<?xml version="1.0" encoding="UTF-8"?>
<gpx version="1.1" creator="2bulu-scraper" xmlns="http://www.topografix.com/GPX/1/1">
  <metadata><name>宜宾高县</name><desc>source: 2bulu.com trackId=79247267; exported 2026-08-31T01:47:47.757Z</desc>
    <bounds minlat="28.5990893" minlon="104.5582328" maxlat="28.6407372" maxlon="104.5871823"/>
    <link href="https://www.2bulu.com/track/t-P5HLCcpT5OHp%252FR2KBg5Tzw%253D%253D.htm"><text>2bulu 源页面</text></link>
  </metadata>
  <wpt lat="28.5995754" lon="104.558268"><ele>385</ele><name>
        </name></wpt>
  <wpt lat="28.5991608" lon="104.5589736"><ele>385</ele><name>
        </name></wpt>
  <wpt lat="28.5998972" lon="104.5592576"><ele>418</ele><name>
        </name></wpt>
  <wpt lat="28.6000575" lon="104.5593478"><ele>428</ele><name>
        </name></wpt>
  <wpt lat="28.6002168" lon="104.5594178"><ele>431</ele><name>
        </name></wpt>
  <wpt lat="28.6021116" lon="104.5614102"><ele>500</ele><name>
        </name></wpt>
  <wpt lat="28.6019939" lon="104.5615959"><ele>511</ele><name>
        </name></wpt>
  <wpt lat="28.602031" lon="104.561744"><ele>509</ele><name>
        </name></wpt>
  <wpt lat="28.6031349" lon="104.5640093"><ele>557</ele><name>
        </name></wpt>
  <wpt lat="28.603722" lon="104.5643511"><ele>565</ele><name>
        </name></wpt>
  <wpt lat="28.6046868" lon="104.5645259"><ele>573</ele><name>
        </name></wpt>
  <wpt lat="28.6053516" lon="104.5650703"><ele>589</ele><name>
        </name></wpt>
  <wpt lat="28.6053854" lon="104.5651115"><ele>589</ele><name>
        </name></wpt>
  <wpt lat="28.6054858" lon="104.5653334"><ele>590</ele><name>
        </name></wpt>
  <wpt lat="28.6072131" lon="104.5668242"><ele>597</ele><name>
        </name></wpt>
  <wpt lat="28.6082335" lon="104.568429"><ele>576</ele><name>
        </name></wpt>
  <wpt lat="28.6102252" lon="104.5718218"><ele>523</ele><name>
        </name></wpt>
  <wpt lat="28.6106915" lon="104.572951"><ele>510</ele><name>
        </name></wpt>
  <wpt lat="28.6111272" lon="104.5740951"><ele>533</ele><name>
        </name></wpt>
  <wpt lat="28.6124291" lon="104.5771081"><ele>527</ele><name>
        </name></wpt>
  <wpt lat="28.6140553" lon="104.5788763"><ele>460</ele><name>
        </name></wpt>
  <wpt lat="28.614623" lon="104.5808354"><ele>452</ele><name>
        </name></wpt>
  <wpt lat="28.6148238" lon="104.5811116"><ele>459</ele><name>
        </name></wpt>
  <wpt lat="28.617762" lon="104.5814988"><ele>512</ele><name>
        </name></wpt>
  <wpt lat="28.6197164" lon="104.5833076"><ele>581</ele><name>
        </name></wpt>
  <wpt lat="28.6200108" lon="104.5835282"><ele>587</ele><name>
        </name></wpt>
  <wpt lat="28.6214341" lon="104.5841081"><ele>598</ele><name>
        </name></wpt>
  <wpt lat="28.622156" lon="104.5838193"><ele>627</ele><name>
        </name></wpt>
  <wpt lat="28.622155" lon="104.583789"><ele>629</ele><name>
        </name></wpt>
  <wpt lat="28.623237" lon="104.584386"><ele>616</ele><name>
        </name></wpt>
  <wpt lat="28.6249915" lon="104.5859539"><ele>553</ele><name>
        </name></wpt>
  <wpt lat="28.6248975" lon="104.5829353"><ele>573</ele><name>
        </name></wpt>
  <wpt lat="28.6247063" lon="104.5822543"><ele>588</ele><name>
        </name></wpt>
  <wpt lat="28.6246963" lon="104.5820143"><ele>588</ele><name>
        </name></wpt>
  <wpt lat="28.6262004" lon="104.5819668"><ele>591</ele><name>
        </name></wpt>
  <wpt lat="28.6283297" lon="104.5828297"><ele>597</ele><name>
        </name></wpt>
  <wpt lat="28.6283706" lon="104.5821889"><ele>612</ele><name>
        </name></wpt>
  <wpt lat="28.628596" lon="104.5813442"><ele>619</ele><name>
        </name></wpt>
  <wpt lat="28.6287185" lon="104.5813566"><ele>617</ele><name>
        </name></wpt>
  <wpt lat="28.6303713" lon="104.5805973"><ele>584</ele><name>
        </name></wpt>
  <wpt lat="28.630401" lon="104.5805524"><ele>585</ele><name>
        </name></wpt>
  <wpt lat="28.6304263" lon="104.580454"><ele>588</ele><name>
        </name></wpt>
  <wpt lat="28.6306569" lon="104.5800535"><ele>585</ele><name>
        </name></wpt>
  <wpt lat="28.6313074" lon="104.5798998"><ele>591</ele><name>
        </name></wpt>
  <wpt lat="28.6319211" lon="104.5798605"><ele>586</ele><name>
        </name></wpt>
  <wpt lat="28.6320538" lon="104.5797398"><ele>600</ele><name>
        </name></wpt>
  <wpt lat="28.6328562" lon="104.5799665"><ele>652</ele><name>
        </name></wpt>
  <wpt lat="28.633575" lon="104.580227"><ele>678</ele><name>
        </name></wpt>
  <wpt lat="28.6343159" lon="104.5800585"><ele>699</ele><name>
        </name></wpt>
  <wpt lat="28.6347339" lon="104.5798299"><ele>706</ele><name>
        </name></wpt>
  <wpt lat="28.6347965" lon="104.5798829"><ele>697</ele><name>
        </name></wpt>
  <wpt lat="28.6345896" lon="104.5802815"><ele>700</ele><name>
        </name></wpt>
  <wpt lat="28.6345896" lon="104.5802815"><ele>700</ele><name>
        </name></wpt>
  <wpt lat="28.6346111" lon="104.5804859"><ele>708</ele><name>
        </name></wpt>
  <wpt lat="28.6359578" lon="104.5827995"><ele>680</ele><name>
        </name></wpt>
  <wpt lat="28.6372968" lon="104.5838337"><ele>690</ele><name>
        </name></wpt>
  <wpt lat="28.6383749" lon="104.5871516"><ele>701</ele><name>
        </name></wpt>
  <wpt lat="28.6383749" lon="104.5871516"><ele>701</ele><name>
        </name></wpt>
  <wpt lat="28.6383499" lon="104.5836522"><ele>679</ele><name>
        </name></wpt>
  <wpt lat="28.640083" lon="104.5833582"><ele>641</ele><name>
        </name></wpt>
  <wpt lat="28.6367855" lon="104.5774771"><ele>562</ele><name>
        </name></wpt>
  <wpt lat="28.6326257" lon="104.5747318"><ele>487</ele><name>
        </name></wpt>
  <wpt lat="28.6237763" lon="104.5697333"><ele>412</ele><name>
        </name></wpt>
  <wpt lat="28.6224319" lon="104.5667271"><ele>359</ele><name>
        </name></wpt>
  <trk><name>宜宾高县</name>
      <trkseg>
        <trkpt lat="28.5990893" lon="104.5584842"><ele>385.77</ele><time>2026-02-16T17:55:35.000Z</time></trkpt>
        <trkpt lat="28.5991084" lon="104.5584666"><ele>385.77</ele><time>2026-02-16T17:55:39.000Z</time></trkpt>
        <trkpt lat="28.5991406" lon="104.5584548"><ele>386.22</ele><time>2026-02-16T17:55:55.000Z</time></trkpt>
        <trkpt lat="28.5991813" lon="104.5584355"><ele>386.57</ele><time>2026-02-16T17:55:59.000Z</time></trkpt>
        <trkpt lat="28.5992347" lon="104.5584129"><ele>386.29</ele><time>2026-02-16T17:56:03.000Z</time></trkpt>
        <trkpt lat="28.5992932" lon="104.558381"><ele>386.01</ele><time>2026-02-16T17:56:07.000Z</time></trkpt>
        <trkpt lat="28.5993519" lon="104.5583459"><ele>385.88</ele><time>2026-02-16T17:56:11.000Z</time></trkpt>
        <trkpt lat="28.5994102" lon="104.5583081"><ele>385.84</ele><time>2026-02-16T17:56:15.000Z</time></trkpt>
        <trkpt lat="28.5994624" lon="104.5582766"><ele>386.1</ele><time>2026-02-16T17:56:19.000Z</time></trkpt>
        <trkpt lat="28.5995101" lon="104.5582508"><ele>386</ele><time>2026-02-16T17:56:23.000Z</time></trkpt>
        <trkpt lat="28.5995554" lon="104.5582328"><ele>386.21</ele><time>2026-02-16T17:56:27.000Z</time></trkpt>
        <trkpt lat="28.5995754" lon="104.558268"><ele>386.7</ele><time>2026-02-16T17:56:31.000Z</time></trkpt>
        <trkpt lat="28.59956" lon="104.5583251"><ele>386.12</ele><time>2026-02-16T17:56:39.000Z</time></trkpt>
        <trkpt lat="28.5995194" lon="104.5583722"><ele>384.43</ele><time>2026-02-16T17:56:43.000Z</time></trkpt>
        <trkpt lat="28.599475" lon="104.558414"><ele>383.57</ele><time>2026-02-16T17:56:47.000Z</time></trkpt>
        <trkpt lat="28.5994284" lon="104.5584602"><ele>383.21</ele><time>2026-02-16T17:56:53.000Z</time></trkpt>
        <trkpt lat="28.5993861" lon="104.5585084"><ele>383.2</ele><time>2026-02-16T17:56:59.000Z</time></trkpt>
        <trkpt lat="28.5993504" lon="104.5585587"><ele>383.41</ele><time>2026-02-16T17:57:05.000Z</time></trkpt>
        <trkpt lat="28.5993325" lon="104.5585764"><ele>383.94</ele><time>2026-02-16T17:57:07.000Z</time></trkpt>
        <trkpt lat="28.5993014" lon="104.5586069"><ele>384.91</ele><time>2026-02-16T17:57:13.000Z</time></trkpt>
        <trkpt lat="28.5992901" lon="104.5586215"><ele>385.88</ele><time>2026-02-16T17:57:15.000Z</time></trkpt>
        <trkpt lat="28.5992612" lon="104.5586568"><ele>386.39</ele><time>2026-02-16T17:57:27.000Z</time></trkpt>
        <trkpt lat="28.5992316" lon="104.5586975"><ele>386.7</ele><time>2026-02-16T17:57:31.000Z</time></trkpt>
        <trkpt lat="28.5991962" lon="104.5587518"><ele>386.8</ele><time>2026-02-16T17:57:37.000Z</time></trkpt>
        <trkpt lat="28.5991714" lon="104.5588211"><ele>386.89</ele><time>2026-02-16T17:57:43.000Z</time></trkpt>
        <trkpt lat="28.5991567" lon="104.5588838"><ele>387.43</ele><time>2026-02-16T17:57:47.000Z</time></trkpt>
        <trkpt lat="28.5991468" lon="104.5589377"><ele>387.58</ele><time>2026-02-16T17:57:51.000Z</time></trkpt>
        <trkpt lat="28.5991608" lon="104.5589736"><ele>387.51</ele><time>2026-02-16T17:57:57.000Z</time></trkpt>
        <trkpt lat="28.5992069" lon="104.559005"><ele>386.64</ele><time>2026-02-16T17:58:07.000Z</time></trkpt>
        <trkpt lat="28.5992688" lon="104.5589869"><ele>386.24</ele><time>2026-02-16T17:58:13.000Z</time></trkpt>
        <trkpt lat="28.5993051" lon="104.5589387"><ele>387.41</ele><time>2026-02-16T17:58:17.000Z</time></trkpt>
        <trkpt lat="28.5993509" lon="104.5589273"><ele>389.04</ele><time>2026-02-16T17:58:25.000Z</time></trkpt>
        <trkpt lat="28.5993587" lon="104.5589366"><ele>391.64</ele><time>2026-02-16T17:58:27.000Z</time></trkpt>
        <trkpt lat="28.5993726" lon="104.5589757"><ele>393.75</ele><time>2026-02-16T17:58:33.000Z</time></trkpt>
        <trkpt lat="28.5994024" lon="104.5590308"><ele>395.13</ele><time>2026-02-16T17:58:39.000Z</time></trkpt>
        <trkpt lat="28.5994466" lon="104.5590762"><ele>396.31</ele><time>2026-02-16T17:59:49.000Z</time></trkpt>
        <trkpt lat="28.5995099" lon="104.559094"><ele>397.68</ele><time>2026-02-16T17:59:59.000Z</time></trkpt>
        <trkpt lat="28.5995547" lon="104.559115"><ele>399.83</ele><time>2026-02-16T18:00:05.000Z</time></trkpt>
        <trkpt lat="28.5996059" lon="104.559129"><ele>401.88</ele><time>2026-02-16T18:00:13.000Z</time></trkpt>
        <trkpt lat="28.5996578" lon="104.5591501"><ele>403.96</ele><time>2026-02-16T18:00:19.000Z</time></trkpt>
        <trkpt lat="28.5997096" lon="104.5591642"><ele>406.31</ele><time>2026-02-16T18:00:23.000Z</time></trkpt>
        <trkpt lat="28.5997414" lon="104.5592015"><ele>408.13</ele><time>2026-02-16T18:00:27.000Z</time></trkpt>
        <trkpt lat="28.5997797" lon="104.5592573"><ele>409.42</ele><time>2026-02-16T18:00:33.000Z</time></trkpt>
        <trkpt lat="28.5997985" lon="104.5593352"><ele>409.97</ele><time>2026-02-16T18:00:39.000Z</time></trkpt>
        <trkpt lat="28.5998467" lon="104.5593664"><ele>411.71</ele><time>2026-02-16T18:00:45.000Z</time></trkpt>
        <trkpt lat="28.5998488" lon="104.5593447"><ele>413.71</ele><time>2026-02-16T18:00:53.000Z</time></trkpt>
        <trkpt lat="28.5998765" lon="104.5593052"><ele>415.02</ele><time>2026-02-16T18:01:07.000Z</time></trkpt>
        <trkpt lat="28.5998972" lon="104.5592576"><ele>415.99</ele><time>2026-02-16T18:01:13.000Z</time></trkpt>
        <trkpt lat="28.5999369" lon="104.5592543"><ele>416.72</ele><time>2026-02-16T18:01:35.000Z</time></trkpt>
        <trkpt lat="28.5999759" lon="104.559284"><ele>416.91</ele><time>2026-02-16T18:01:41.000Z</time></trkpt>
        <trkpt lat="28.6000178" lon="104.5593153"><ele>418.35</ele><time>2026-02-16T18:01:47.000Z</time></trkpt>
        <trkpt lat="28.6000575" lon="104.5593478"><ele>421</ele><time>2026-02-16T18:01:57.000Z</time></trkpt>
        <trkpt lat="28.6001118" lon="104.5593794"><ele>424.03</ele><time>2026-02-16T18:02:07.000Z</time></trkpt>
        <trkpt lat="28.6001702" lon="104.5593977"><ele>426.27</ele><time>2026-02-16T18:02:11.000Z</time></trkpt>
        <trkpt lat="28.6002168" lon="104.5594178"><ele>427.91</ele><time>2026-02-16T18:02:15.000Z</time></trkpt>
        <trkpt lat="28.6002655" lon="104.5594244"><ele>429.32</ele><time>2026-02-16T18:02:27.000Z</time></trkpt>
        <trkpt lat="28.6003238" lon="104.5594367"><ele>431.82</ele><time>2026-02-16T18:02:33.000Z</time></trkpt>
        <trkpt lat="28.6003824" lon="104.5594487"><ele>434.16</ele><time>2026-02-16T18:02:39.000Z</time></trkpt>
        <trkpt lat="28.6004425" lon="104.559455"><ele>436.62</ele><time>2026-02-16T18:02:47.000Z</time></trkpt>
        <trkpt lat="28.6004901" lon="104.5594914"><ele>438.41</ele><time>2026-02-16T18:02:55.000Z</time></trkpt>
        <trkpt lat="28.6005293" lon="104.5595284"><ele>440.38</ele><time>2026-02-16T18:02:59.000Z</time></trkpt>
        <trkpt lat="28.6005682" lon="104.5595654"><ele>441.7</ele><time>2026-02-16T18:03:03.000Z</time></trkpt>
        <trkpt lat="28.6005894" lon="104.5595835"><ele>442.76</ele><time>2026-02-16T18:03:07.000Z</time></trkpt>
        <trkpt lat="28.6006224" lon="104.5596125"><ele>443.39</ele><time>2026-02-16T18:03:25.000Z</time></trkpt>
        <trkpt lat="28.6006672" lon="104.5596432"><ele>443.99</ele><time>2026-02-16T18:03:31.000Z</time></trkpt>
        <trkpt lat="28.6007099" lon="104.5596716"><ele>445.02</ele><time>2026-02-16T18:03:36.000Z</time></trkpt>
        <trkpt lat="28.6007445" lon="104.5597071"><ele>445.69</ele><time>2026-02-16T18:03:40.000Z</time></trkpt>
        <trkpt lat="28.6007818" lon="104.5597442"><ele>447.14</ele><time>2026-02-16T18:03:44.000Z</time></trkpt>
        <trkpt lat="28.6008241" lon="104.559789"><ele>448.59</ele><time>2026-02-16T18:03:50.000Z</time></trkpt>
        <trkpt lat="28.6008695" lon="104.5598071"><ele>450.59</ele><time>2026-02-16T18:03:54.000Z</time></trkpt>
        <trkpt lat="28.6009103" lon="104.559831"><ele>452.18</ele><time>2026-02-16T18:03:58.000Z</time></trkpt>
        <trkpt lat="28.6009474" lon="104.5598695"><ele>453.75</ele><time>2026-02-16T18:04:04.000Z</time></trkpt>
        <trkpt lat="28.600991" lon="104.5599091"><ele>456.63</ele><time>2026-02-16T18:04:10.000Z</time></trkpt>
        <trkpt lat="28.601033" lon="104.5598937"><ele>458.69</ele><time>2026-02-16T18:04:16.000Z</time></trkpt>
        <trkpt lat="28.6010813" lon="104.5599027"><ele>460.48</ele><time>2026-02-16T18:04:22.000Z</time></trkpt>
        <trkpt lat="28.6011285" lon="104.5599374"><ele>460.55</ele><time>2026-02-16T18:04:28.000Z</time></trkpt>
        <trkpt lat="28.6011842" lon="104.559983"><ele>459.77</ele><time>2026-02-16T18:04:34.000Z</time></trkpt>
        <trkpt lat="28.6012167" lon="104.5600427"><ele>460.53</ele><time>2026-02-16T18:04:40.000Z</time></trkpt>
        <trkpt lat="28.6012614" lon="104.5600431"><ele>461.56</ele><time>2026-02-16T18:04:46.000Z</time></trkpt>
        <trkpt lat="28.6012534" lon="104.5600144"><ele>462.8</ele><time>2026-02-16T18:04:52.000Z</time></trkpt>
        <trkpt lat="28.601284" lon="104.5600131"><ele>463.65</ele><time>2026-02-16T18:05:22.000Z</time></trkpt>
        <trkpt lat="28.6013259" lon="104.5600499"><ele>465.08</ele><time>2026-02-16T18:05:26.000Z</time></trkpt>
        <trkpt lat="28.6013762" lon="104.5600914"><ele>466.29</ele><time>2026-02-16T18:05:32.000Z</time></trkpt>
        <trkpt lat="28.6014266" lon="104.5601265"><ele>467.38</ele><time>2026-02-16T18:05:36.000Z</time></trkpt>
        <trkpt lat="28.6014702" lon="104.560168"><ele>468.61</ele><time>2026-02-16T18:05:40.000Z</time></trkpt>
        <trkpt lat="28.6015171" lon="104.5602135"><ele>469.89</ele><time>2026-02-16T18:05:46.000Z</time></trkpt>
        <trkpt lat="28.6015608" lon="104.5602439"><ele>471.05</ele><time>2026-02-16T18:05:50.000Z</time></trkpt>
        <trkpt lat="28.6016085" lon="104.560275"><ele>472.03</ele><time>2026-02-16T18:05:56.000Z</time></trkpt>
        <trkpt lat="28.6016503" lon="104.5603161"><ele>473.47</ele><time>2026-02-16T18:06:02.000Z</time></trkpt>
        <trkpt lat="28.6016919" lon="104.5603544"><ele>475.14</ele><time>2026-02-16T18:06:08.000Z</time></trkpt>
        <trkpt lat="28.6017254" lon="104.5604046"><ele>476.23</ele><time>2026-02-16T18:06:14.000Z</time></trkpt>
        <trkpt lat="28.6017629" lon="104.5604625"><ele>477.22</ele><time>2026-02-16T18:06:24.000Z</time></trkpt>
        <trkpt lat="28.6018072" lon="104.5605167"><ele>478.7</ele><time>2026-02-16T18:06:30.000Z</time></trkpt>
        <trkpt lat="28.6018381" lon="104.560571"><ele>479.54</ele><time>2026-02-16T18:06:34.000Z</time></trkpt>
        <trkpt lat="28.6018621" lon="104.5606249"><ele>479.97</ele><time>2026-02-16T18:06:38.000Z</time></trkpt>
        <trkpt lat="28.6018821" lon="104.5606828"><ele>480.31</ele><time>2026-02-16T18:06:42.000Z</time></trkpt>
        <trkpt lat="28.6019087" lon="104.560741"><ele>481.06</ele><time>2026-02-16T18:06:48.000Z</time></trkpt>
        <trkpt lat="28.6019377" lon="104.5608063"><ele>481.4</ele><time>2026-02-16T18:06:52.000Z</time></trkpt>
        <trkpt lat="28.6019665" lon="104.5608556"><ele>482.21</ele><time>2026-02-16T18:06:56.000Z</time></trkpt>
        <trkpt lat="28.601999" lon="104.5609027"><ele>482.76</ele><time>2026-02-16T18:07:02.000Z</time></trkpt>
        <trkpt lat="28.602033" lon="104.5609579"><ele>484.38</ele><time>2026-02-16T18:07:08.000Z</time></trkpt>
        <trkpt lat="28.602009" lon="104.5610061"><ele>485.97</ele><time>2026-02-16T18:07:14.000Z</time></trkpt>
        <trkpt lat="28.6019966" lon="104.5609879"><ele>485.3</ele><time>2026-02-16T18:07:18.000Z</time></trkpt>
        <trkpt lat="28.602007" lon="104.561023"><ele>485.15</ele><time>2026-02-16T18:07:34.000Z</time></trkpt>
        <trkpt lat="28.6020314" lon="104.5610666"><ele>486.22</ele><time>2026-02-16T18:07:40.000Z</time></trkpt>
        <trkpt lat="28.6020413" lon="104.5611196"><ele>487.6</ele><time>2026-02-16T18:07:44.000Z</time></trkpt>
        <trkpt lat="28.6020511" lon="104.5611744"><ele>488.43</ele><time>2026-02-16T18:07:48.000Z</time></trkpt>
        <trkpt lat="28.6020351" lon="104.5611863"><ele>491.39</ele><time>2026-02-16T18:07:52.000Z</time></trkpt>
        <trkpt lat="28.6020296" lon="104.5612264"><ele>494.57</ele><time>2026-02-16T18:07:58.000Z</time></trkpt>
        <trkpt lat="28.602043" lon="104.5612926"><ele>496.19</ele><time>2026-02-16T18:08:04.000Z</time></trkpt>
        <trkpt lat="28.6020741" lon="104.5613465"><ele>497.32</ele><time>2026-02-16T18:08:10.000Z</time></trkpt>
        <trkpt lat="28.6021016" lon="104.5613945"><ele>498.44</ele><time>2026-02-16T18:08:16.000Z</time></trkpt>
        <trkpt lat="28.6021116" lon="104.5614102"><ele>498.98</ele><time>2026-02-16T18:08:20.000Z</time></trkpt>
        <trkpt lat="28.6020963" lon="104.5614629"><ele>499.3</ele><time>2026-02-16T18:08:30.000Z</time></trkpt>
        <trkpt lat="28.6020806" lon="104.5615172"><ele>499.39</ele><time>2026-02-16T18:08:34.000Z</time></trkpt>
        <trkpt lat="28.6020521" lon="104.5615708"><ele>500.06</ele><time>2026-02-16T18:08:40.000Z</time></trkpt>
        <trkpt lat="28.602041" lon="104.5616266"><ele>501.92</ele><time>2026-02-16T18:08:46.000Z</time></trkpt>
        <trkpt lat="28.6020052" lon="104.5616096"><ele>504.25</ele><time>2026-02-16T18:08:52.000Z</time></trkpt>
        <trkpt lat="28.6019939" lon="104.5615959"><ele>507.04</ele><time>2026-02-16T18:08:54.000Z</time></trkpt>
        <trkpt lat="28.6019912" lon="104.5616361"><ele>508.62</ele><time>2026-02-16T18:09:04.000Z</time></trkpt>
        <trkpt lat="28.6020074" lon="104.5616872"><ele>509.22</ele><time>2026-02-16T18:09:08.000Z</time></trkpt>
        <trkpt lat="28.602031" lon="104.561744"><ele>509.29</ele><time>2026-02-16T18:09:26.000Z</time></trkpt>
        <trkpt lat="28.6020573" lon="104.5618035"><ele>509.34</ele><time>2026-02-16T18:09:46.000Z</time></trkpt>
        <trkpt lat="28.6020955" lon="104.5618315"><ele>509.77</ele><time>2026-02-16T18:09:54.000Z</time></trkpt>
        <trkpt lat="28.6021367" lon="104.5618135"><ele>510.28</ele><time>2026-02-16T18:10:16.000Z</time></trkpt>
        <trkpt lat="28.602154" lon="104.5618423"><ele>511.92</ele><time>2026-02-16T18:10:20.000Z</time></trkpt>
        <trkpt lat="28.6021858" lon="104.5618754"><ele>513.18</ele><time>2026-02-16T18:10:28.000Z</time></trkpt>
        <trkpt lat="28.6021905" lon="104.5619235"><ele>513.37</ele><time>2026-02-16T18:10:34.000Z</time></trkpt>
        <trkpt lat="28.6021706" lon="104.5619427"><ele>514.4</ele><time>2026-02-16T18:10:36.000Z</time></trkpt>
        <trkpt lat="28.6021422" lon="104.5619979"><ele>515.82</ele><time>2026-02-16T18:10:56.000Z</time></trkpt>
        <trkpt lat="28.6021289" lon="104.562017"><ele>517.59</ele><time>2026-02-16T18:10:58.000Z</time></trkpt>
        <trkpt lat="28.6021112" lon="104.5620632"><ele>518.67</ele><time>2026-02-16T18:11:18.000Z</time></trkpt>
        <trkpt lat="28.6021033" lon="104.5621253"><ele>519.98</ele><time>2026-02-16T18:11:24.000Z</time></trkpt>
        <trkpt lat="28.6021055" lon="104.5621905"><ele>521.4</ele><time>2026-02-16T18:11:30.000Z</time></trkpt>
        <trkpt lat="28.6021023" lon="104.5622477"><ele>523</ele><time>2026-02-16T18:11:36.000Z</time></trkpt>
        <trkpt lat="28.6021062" lon="104.5623065"><ele>524.99</ele><time>2026-02-16T18:11:42.000Z</time></trkpt>
        <trkpt lat="28.6021218" lon="104.5623689"><ele>527.3</ele><time>2026-02-16T18:11:48.000Z</time></trkpt>
        <trkpt lat="28.6021508" lon="104.5624173"><ele>528.48</ele><time>2026-02-16T18:11:54.000Z</time></trkpt>
        <trkpt lat="28.6021802" lon="104.5624672"><ele>530.24</ele><time>2026-02-16T18:12:02.000Z</time></trkpt>
        <trkpt lat="28.6022118" lon="104.5625256"><ele>532.84</ele><time>2026-02-16T18:12:08.000Z</time></trkpt>
        <trkpt lat="28.6022614" lon="104.5625614"><ele>534.72</ele><time>2026-02-16T18:12:14.000Z</time></trkpt>
        <trkpt lat="28.6023057" lon="104.5625927"><ele>535.45</ele><time>2026-02-16T18:12:18.000Z</time></trkpt>
        <trkpt lat="28.6023467" lon="104.5626445"><ele>536.31</ele><time>2026-02-16T18:12:24.000Z</time></trkpt>
        <trkpt lat="28.6023739" lon="104.5626927"><ele>537.56</ele><time>2026-02-16T18:12:28.000Z</time></trkpt>
        <trkpt lat="28.602397" lon="104.5627126"><ele>538.83</ele><time>2026-02-16T18:12:32.000Z</time></trkpt>
        <trkpt lat="28.6024191" lon="104.5627539"><ele>539.69</ele><time>2026-02-16T18:12:40.000Z</time></trkpt>
        <trkpt lat="28.6024635" lon="104.5628011"><ele>541.05</ele><time>2026-02-16T18:12:46.000Z</time></trkpt>
        <trkpt lat="28.6025105" lon="104.5628346"><ele>541.63</ele><time>2026-02-16T18:12:58.000Z</time></trkpt>
        <trkpt lat="28.6025492" lon="104.5628737"><ele>541.43</ele><time>2026-02-16T18:13:02.000Z</time></trkpt>
        <trkpt lat="28.6025808" lon="104.5629193"><ele>541.53</ele><time>2026-02-16T18:13:06.000Z</time></trkpt>
        <trkpt lat="28.6026189" lon="104.5629688"><ele>541.66</ele><time>2026-02-16T18:13:12.000Z</time></trkpt>
        <trkpt lat="28.6026667" lon="104.5630057"><ele>542.04</ele><time>2026-02-16T18:13:18.000Z</time></trkpt>
        <trkpt lat="28.6027125" lon="104.5630522"><ele>542.6</ele><time>2026-02-16T18:13:24.000Z</time></trkpt>
        <trkpt lat="28.6027525" lon="104.5631015"><ele>542.77</ele><time>2026-02-16T18:13:30.000Z</time></trkpt>
        <trkpt lat="28.6027936" lon="104.5631452"><ele>543.16</ele><time>2026-02-16T18:13:34.000Z</time></trkpt>
        <trkpt lat="28.6028363" lon="104.5631795"><ele>542.45</ele><time>2026-02-16T18:13:40.000Z</time></trkpt>
        <trkpt lat="28.6028776" lon="104.5632217"><ele>542.43</ele><time>2026-02-16T18:13:46.000Z</time></trkpt>
        <trkpt lat="28.602913" lon="104.5632793"><ele>543.01</ele><time>2026-02-16T18:13:52.000Z</time></trkpt>
        <trkpt lat="28.6029502" lon="104.5633463"><ele>543</ele><time>2026-02-16T18:13:58.000Z</time></trkpt>
        <trkpt lat="28.6029704" lon="104.5634088"><ele>543.6</ele><time>2026-02-16T18:14:04.000Z</time></trkpt>
        <trkpt lat="28.6029879" lon="104.5634685"><ele>544.92</ele><time>2026-02-16T18:14:10.000Z</time></trkpt>
        <trkpt lat="28.602993" lon="104.5635328"><ele>546.74</ele><time>2026-02-16T18:14:16.000Z</time></trkpt>
        <trkpt lat="28.6029978" lon="104.5635827"><ele>548.06</ele><time>2026-02-16T18:14:20.000Z</time></trkpt>
        <trkpt lat="28.6030175" lon="104.563633"><ele>548.95</ele><time>2026-02-16T18:14:26.000Z</time></trkpt>
        <trkpt lat="28.6030408" lon="104.5636911"><ele>549.46</ele><time>2026-02-16T18:14:32.000Z</time></trkpt>
        <trkpt lat="28.6030685" lon="104.5637537"><ele>549.73</ele><time>2026-02-16T18:14:38.000Z</time></trkpt>
        <trkpt lat="28.6030968" lon="104.5638177"><ele>550.29</ele><time>2026-02-16T18:14:44.000Z</time></trkpt>
        <trkpt lat="28.6031237" lon="104.5638793"><ele>551.07</ele><time>2026-02-16T18:14:50.000Z</time></trkpt>
        <trkpt lat="28.6031228" lon="104.563917"><ele>552.3</ele><time>2026-02-16T18:14:54.000Z</time></trkpt>
        <trkpt lat="28.6031043" lon="104.5639621"><ele>553.02</ele><time>2026-02-16T18:15:02.000Z</time></trkpt>
        <trkpt lat="28.6031183" lon="104.5640063"><ele>556.11</ele><time>2026-02-16T18:15:06.000Z</time></trkpt>
        <trkpt lat="28.6031349" lon="104.5640093"><ele>557.7</ele><time>2026-02-16T18:15:10.000Z</time></trkpt>
        <trkpt lat="28.603144" lon="104.5640484"><ele>557.55</ele><time>2026-02-16T18:15:22.000Z</time></trkpt>
        <trkpt lat="28.603123" lon="104.5641173"><ele>557.43</ele><time>2026-02-16T18:15:28.000Z</time></trkpt>
        <trkpt lat="28.6031198" lon="104.5641923"><ele>558.08</ele><time>2026-02-16T18:15:32.000Z</time></trkpt>
        <trkpt lat="28.6031346" lon="104.5642573"><ele>558.99</ele><time>2026-02-16T18:15:36.000Z</time></trkpt>
        <trkpt lat="28.6031645" lon="104.5643137"><ele>558.77</ele><time>2026-02-16T18:15:40.000Z</time></trkpt>
        <trkpt lat="28.60322" lon="104.564353"><ele>559.39</ele><time>2026-02-16T18:15:44.000Z</time></trkpt>
        <trkpt lat="28.6032804" lon="104.5643579"><ele>559.21</ele><time>2026-02-16T18:15:48.000Z</time></trkpt>
        <trkpt lat="28.6033228" lon="104.564326"><ele>559.2</ele><time>2026-02-16T18:15:52.000Z</time></trkpt>
        <trkpt lat="28.6033885" lon="104.5643092"><ele>560.01</ele><time>2026-02-16T18:15:58.000Z</time></trkpt>
        <trkpt lat="28.60345" lon="104.5642899"><ele>559.71</ele><time>2026-02-16T18:16:02.000Z</time></trkpt>
        <trkpt lat="28.6035019" lon="104.5642692"><ele>559.85</ele><time>2026-02-16T18:16:06.000Z</time></trkpt>
        <trkpt lat="28.6035631" lon="104.564268"><ele>560.17</ele><time>2026-02-16T18:16:12.000Z</time></trkpt>
        <trkpt lat="28.6036075" lon="104.5642959"><ele>560.88</ele><time>2026-02-16T18:16:16.000Z</time></trkpt>
        <trkpt lat="28.6036467" lon="104.5643328"><ele>561.11</ele><time>2026-02-16T18:16:20.000Z</time></trkpt>
        <trkpt lat="28.6036883" lon="104.5643636"><ele>561.34</ele><time>2026-02-16T18:16:24.000Z</time></trkpt>
        <trkpt lat="28.603722" lon="104.5643511"><ele>561.81</ele><time>2026-02-16T18:16:30.000Z</time></trkpt>
        <trkpt lat="28.6037585" lon="104.5643171"><ele>563.34</ele><time>2026-02-16T18:16:38.000Z</time></trkpt>
        <trkpt lat="28.6038084" lon="104.5642859"><ele>564.85</ele><time>2026-02-16T18:16:44.000Z</time></trkpt>
        <trkpt lat="28.6038689" lon="104.5642846"><ele>564.71</ele><time>2026-02-16T18:16:50.000Z</time></trkpt>
        <trkpt lat="28.6039352" lon="104.5642969"><ele>566.26</ele><time>2026-02-16T18:16:56.000Z</time></trkpt>
        <trkpt lat="28.6039876" lon="104.5642859"><ele>568.49</ele><time>2026-02-16T18:17:00.000Z</time></trkpt>
        <trkpt lat="28.6040388" lon="104.564294"><ele>569.76</ele><time>2026-02-16T18:17:08.000Z</time></trkpt>
        <trkpt lat="28.6040937" lon="104.5642909"><ele>571.44</ele><time>2026-02-16T18:17:12.000Z</time></trkpt>
        <trkpt lat="28.6041515" lon="104.5642897"><ele>571.91</ele><time>2026-02-16T18:17:16.000Z</time></trkpt>
        <trkpt lat="28.6042" lon="104.5642976"><ele>572.04</ele><time>2026-02-16T18:17:20.000Z</time></trkpt>
        <trkpt lat="28.6042513" lon="104.5643147"><ele>571.48</ele><time>2026-02-16T18:17:24.000Z</time></trkpt>
        <trkpt lat="28.6043028" lon="104.5643315"><ele>571.36</ele><time>2026-02-16T18:17:28.000Z</time></trkpt>
        <trkpt lat="28.604357" lon="104.564345"><ele>571.76</ele><time>2026-02-16T18:17:32.000Z</time></trkpt>
        <trkpt lat="28.6044098" lon="104.564356"><ele>572.54</ele><time>2026-02-16T18:17:36.000Z</time></trkpt>
        <trkpt lat="28.6044605" lon="104.5643602"><ele>572.61</ele><time>2026-02-16T18:17:40.000Z</time></trkpt>
        <trkpt lat="28.6045174" lon="104.5643621"><ele>571.85</ele><time>2026-02-16T18:17:44.000Z</time></trkpt>
        <trkpt lat="28.604569" lon="104.5643888"><ele>570.54</ele><time>2026-02-16T18:17:48.000Z</time></trkpt>
        <trkpt lat="28.604609" lon="104.5644295"><ele>569.92</ele><time>2026-02-16T18:17:52.000Z</time></trkpt>
        <trkpt lat="28.6046445" lon="104.5644738"><ele>569.63</ele><time>2026-02-16T18:17:56.000Z</time></trkpt>
        <trkpt lat="28.6046544" lon="104.5644928"><ele>570.27</ele><time>2026-02-16T18:17:58.000Z</time></trkpt>
        <trkpt lat="28.6046868" lon="104.5645259"><ele>570.76</ele><time>2026-02-16T18:18:06.000Z</time></trkpt>
        <trkpt lat="28.6047235" lon="104.5645578"><ele>571.76</ele><time>2026-02-16T18:18:18.000Z</time></trkpt>
        <trkpt lat="28.6047608" lon="104.5646047"><ele>572.39</ele><time>2026-02-16T18:18:24.000Z</time></trkpt>
        <trkpt lat="28.6048102" lon="104.5646533"><ele>572.96</ele><time>2026-02-16T18:18:32.000Z</time></trkpt>
        <trkpt lat="28.6048541" lon="104.5646963"><ele>574.89</ele><time>2026-02-16T18:18:38.000Z</time></trkpt>
        <trkpt lat="28.6048972" lon="104.5647275"><ele>575.29</ele><time>2026-02-16T18:18:42.000Z</time></trkpt>
        <trkpt lat="28.6049521" lon="104.5647142"><ele>575.93</ele><time>2026-02-16T18:18:48.000Z</time></trkpt>
        <trkpt lat="28.605013" lon="104.5647265"><ele>576.88</ele><time>2026-02-16T18:18:54.000Z</time></trkpt>
        <trkpt lat="28.6050691" lon="104.564746"><ele>578.19</ele><time>2026-02-16T18:19:00.000Z</time></trkpt>
        <trkpt lat="28.6051157" lon="104.5647829"><ele>579.24</ele><time>2026-02-16T18:19:08.000Z</time></trkpt>
        <trkpt lat="28.6051566" lon="104.5648146"><ele>579.95</ele><time>2026-02-16T18:19:14.000Z</time></trkpt>
        <trkpt lat="28.6052011" lon="104.5648403"><ele>581.65</ele><time>2026-02-16T18:19:22.000Z</time></trkpt>
        <trkpt lat="28.6052524" lon="104.5648789"><ele>583.07</ele><time>2026-02-16T18:19:30.000Z</time></trkpt>
        <trkpt lat="28.6052776" lon="104.5649124"><ele>583.36</ele><time>2026-02-16T18:19:34.000Z</time></trkpt>
        <trkpt lat="28.6052534" lon="104.5648979"><ele>584.4</ele><time>2026-02-16T18:19:42.000Z</time></trkpt>
        <trkpt lat="28.6052592" lon="104.5649321"><ele>585.47</ele><time>2026-02-16T18:19:46.000Z</time></trkpt>
        <trkpt lat="28.6052932" lon="104.5649897"><ele>586.13</ele><time>2026-02-16T18:19:52.000Z</time></trkpt>
        <trkpt lat="28.6053304" lon="104.5650416"><ele>586.91</ele><time>2026-02-16T18:19:56.000Z</time></trkpt>
        <trkpt lat="28.6053516" lon="104.5650703"><ele>587.66</ele><time>2026-02-16T18:20:00.000Z</time></trkpt>
        <trkpt lat="28.6053854" lon="104.5651115"><ele>588.27</ele><time>2026-02-16T18:20:12.000Z</time></trkpt>
        <trkpt lat="28.6054171" lon="104.5651646"><ele>588.48</ele><time>2026-02-16T18:20:30.000Z</time></trkpt>
        <trkpt lat="28.6054376" lon="104.5652242"><ele>588.14</ele><time>2026-02-16T18:20:40.000Z</time></trkpt>
        <trkpt lat="28.6054533" lon="104.5652767"><ele>588.79</ele><time>2026-02-16T18:20:44.000Z</time></trkpt>
        <trkpt lat="28.6054858" lon="104.5653334"><ele>589.44</ele><time>2026-02-16T18:20:48.000Z</time></trkpt>
        <trkpt lat="28.6055196" lon="104.5653844"><ele>589.7</ele><time>2026-02-16T18:20:54.000Z</time></trkpt>
        <trkpt lat="28.6055581" lon="104.5654491"><ele>589.26</ele><time>2026-02-16T18:21:00.000Z</time></trkpt>
        <trkpt lat="28.6056017" lon="104.5655097"><ele>588.6</ele><time>2026-02-16T18:21:06.000Z</time></trkpt>
        <trkpt lat="28.6056282" lon="104.5655654"><ele>588.69</ele><time>2026-02-16T18:21:10.000Z</time></trkpt>
        <trkpt lat="28.6056512" lon="104.5656179"><ele>589.3</ele><time>2026-02-16T18:21:14.000Z</time></trkpt>
        <trkpt lat="28.6056897" lon="104.5656751"><ele>588.94</ele><time>2026-02-16T18:21:18.000Z</time></trkpt>
        <trkpt lat="28.6057259" lon="104.5657412"><ele>588.26</ele><time>2026-02-16T18:21:24.000Z</time></trkpt>
        <trkpt lat="28.6057757" lon="104.5657908"><ele>587.42</ele><time>2026-02-16T18:21:28.000Z</time></trkpt>
        <trkpt lat="28.6058272" lon="104.5658376"><ele>586.92</ele><time>2026-02-16T18:21:32.000Z</time></trkpt>
        <trkpt lat="28.6058715" lon="104.5658774"><ele>586.22</ele><time>2026-02-16T18:21:36.000Z</time></trkpt>
        <trkpt lat="28.6059045" lon="104.5659252"><ele>586.1</ele><time>2026-02-16T18:21:40.000Z</time></trkpt>
        <trkpt lat="28.6059378" lon="104.5659673"><ele>586.64</ele><time>2026-02-16T18:21:44.000Z</time></trkpt>
        <trkpt lat="28.6059768" lon="104.5660082"><ele>587.3</ele><time>2026-02-16T18:21:48.000Z</time></trkpt>
        <trkpt lat="28.6060281" lon="104.566028"><ele>587.83</ele><time>2026-02-16T18:21:52.000Z</time></trkpt>
        <trkpt lat="28.6060798" lon="104.5660444"><ele>588.04</ele><time>2026-02-16T18:21:56.000Z</time></trkpt>
        <trkpt lat="28.6061346" lon="104.5660585"><ele>587.89</ele><time>2026-02-16T18:22:00.000Z</time></trkpt>
        <trkpt lat="28.6061924" lon="104.5660841"><ele>587.85</ele><time>2026-02-16T18:22:04.000Z</time></trkpt>
        <trkpt lat="28.6062476" lon="104.5661221"><ele>588.04</ele><time>2026-02-16T18:22:08.000Z</time></trkpt>
        <trkpt lat="28.6063003" lon="104.5661624"><ele>587.13</ele><time>2026-02-16T18:22:12.000Z</time></trkpt>
        <trkpt lat="28.6063561" lon="104.5661626"><ele>586.36</ele><time>2026-02-16T18:22:18.000Z</time></trkpt>
        <trkpt lat="28.6063955" lon="104.5661892"><ele>586.82</ele><time>2026-02-16T18:22:22.000Z</time></trkpt>
        <trkpt lat="28.6064289" lon="104.5662393"><ele>587.03</ele><time>2026-02-16T18:22:28.000Z</time></trkpt>
        <trkpt lat="28.6064687" lon="104.5662834"><ele>586.47</ele><time>2026-02-16T18:22:36.000Z</time></trkpt>
        <trkpt lat="28.6065158" lon="104.566303"><ele>587.23</ele><time>2026-02-16T18:22:44.000Z</time></trkpt>
        <trkpt lat="28.6065708" lon="104.5663373"><ele>588.39</ele><time>2026-02-16T18:22:50.000Z</time></trkpt>
        <trkpt lat="28.6066255" lon="104.5663641"><ele>589.85</ele><time>2026-02-16T18:22:56.000Z</time></trkpt>
        <trkpt lat="28.6066768" lon="104.5663914"><ele>591.26</ele><time>2026-02-16T18:23:02.000Z</time></trkpt>
        <trkpt lat="28.6067208" lon="104.5664216"><ele>592.5</ele><time>2026-02-16T18:23:06.000Z</time></trkpt>
        <trkpt lat="28.6067447" lon="104.5664354"><ele>594.38</ele><time>2026-02-16T18:23:12.000Z</time></trkpt>
        <trkpt lat="28.6067734" lon="104.5664822"><ele>595.92</ele><time>2026-02-16T18:23:20.000Z</time></trkpt>
        <trkpt lat="28.6068138" lon="104.5665291"><ele>597.19</ele><time>2026-02-16T18:23:28.000Z</time></trkpt>
        <trkpt lat="28.6068555" lon="104.5665662"><ele>597.5</ele><time>2026-02-16T18:23:34.000Z</time></trkpt>
        <trkpt lat="28.6068957" lon="104.5665944"><ele>597.66</ele><time>2026-02-16T18:23:38.000Z</time></trkpt>
        <trkpt lat="28.6069368" lon="104.566629"><ele>597.49</ele><time>2026-02-16T18:23:46.000Z</time></trkpt>
        <trkpt lat="28.6069847" lon="104.5666446"><ele>597.6</ele><time>2026-02-16T18:24:08.000Z</time></trkpt>
        <trkpt lat="28.6070338" lon="104.566678"><ele>597.46</ele><time>2026-02-16T18:24:12.000Z</time></trkpt>
        <trkpt lat="28.6070766" lon="104.5667128"><ele>597.45</ele><time>2026-02-16T18:24:16.000Z</time></trkpt>
        <trkpt lat="28.6071227" lon="104.5667449"><ele>597.02</ele><time>2026-02-16T18:24:20.000Z</time></trkpt>
        <trkpt lat="28.6071701" lon="104.5667855"><ele>597.05</ele><time>2026-02-16T18:24:24.000Z</time></trkpt>
        <trkpt lat="28.6072131" lon="104.5668242"><ele>596.83</ele><time>2026-02-16T18:24:30.000Z</time></trkpt>
        <trkpt lat="28.6072421" lon="104.5668745"><ele>597.07</ele><time>2026-02-16T18:24:40.000Z</time></trkpt>
        <trkpt lat="28.6072657" lon="104.5669264"><ele>596.38</ele><time>2026-02-16T18:24:46.000Z</time></trkpt>
        <trkpt lat="28.6072885" lon="104.5669818"><ele>594.88</ele><time>2026-02-16T18:24:52.000Z</time></trkpt>
        <trkpt lat="28.6072949" lon="104.5670086"><ele>592.87</ele><time>2026-02-16T18:24:56.000Z</time></trkpt>
        <trkpt lat="28.6073079" lon="104.5670639"><ele>591.74</ele><time>2026-02-16T18:25:44.000Z</time></trkpt>
        <trkpt lat="28.6073307" lon="104.5671371"><ele>590.46</ele><time>2026-02-16T18:25:54.000Z</time></trkpt>
        <trkpt lat="28.6073573" lon="104.5671994"><ele>589.07</ele><time>2026-02-16T18:25:56.000Z</time></trkpt>
        <trkpt lat="28.607385" lon="104.5672513"><ele>587.35</ele><time>2026-02-16T18:25:58.000Z</time></trkpt>
        <trkpt lat="28.6074152" lon="104.5673035"><ele>585.18</ele><time>2026-02-16T18:26:00.000Z</time></trkpt>
        <trkpt lat="28.6074426" lon="104.5673623"><ele>583.46</ele><time>2026-02-16T18:26:02.000Z</time></trkpt>
        <trkpt lat="28.6074844" lon="104.5674315"><ele>582.14</ele><time>2026-02-16T18:26:04.000Z</time></trkpt>
        <trkpt lat="28.607539" lon="104.5674886"><ele>581.19</ele><time>2026-02-16T18:26:06.000Z</time></trkpt>
        <trkpt lat="28.6076025" lon="104.5675347"><ele>580.53</ele><time>2026-02-16T18:26:08.000Z</time></trkpt>
        <trkpt lat="28.6076118" lon="104.567548"><ele>579.8</ele><time>2026-02-16T18:26:12.000Z</time></trkpt>
        <trkpt lat="28.6076118" lon="104.567548"><ele>579.8</ele><time>2026-02-16T18:26:22.000Z</time></trkpt>
        <trkpt lat="28.6076078" lon="104.5676129"><ele>579.57</ele><time>2026-02-16T18:26:23.000Z</time></trkpt>
        <trkpt lat="28.6076078" lon="104.5676129"><ele>579.57</ele><time>2026-02-16T18:26:29.000Z</time></trkpt>
        <trkpt lat="28.6076366" lon="104.5676528"><ele>578.63</ele><time>2026-02-16T18:26:33.000Z</time></trkpt>
        <trkpt lat="28.6076798" lon="104.567704"><ele>578.66</ele><time>2026-02-16T18:26:39.000Z</time></trkpt>
        <trkpt lat="28.6077078" lon="104.5677596"><ele>577.92</ele><time>2026-02-16T18:26:43.000Z</time></trkpt>
        <trkpt lat="28.6077383" lon="104.5677915"><ele>577.54</ele><time>2026-02-16T18:26:47.000Z</time></trkpt>
        <trkpt lat="28.6077728" lon="104.5678354"><ele>577.52</ele><time>2026-02-16T18:26:57.000Z</time></trkpt>
        <trkpt lat="28.6078036" lon="104.5678842"><ele>577.62</ele><time>2026-02-16T18:27:01.000Z</time></trkpt>
        <trkpt lat="28.6078352" lon="104.5679321"><ele>577.79</ele><time>2026-02-16T18:27:05.000Z</time></trkpt>
        <trkpt lat="28.6078654" lon="104.5679759"><ele>577.77</ele><time>2026-02-16T18:27:09.000Z</time></trkpt>
        <trkpt lat="28.6078961" lon="104.5680151"><ele>578.29</ele><time>2026-02-16T18:27:13.000Z</time></trkpt>
        <trkpt lat="28.6079206" lon="104.5680738"><ele>578.64</ele><time>2026-02-16T18:27:17.000Z</time></trkpt>
        <trkpt lat="28.6079616" lon="104.5681181"><ele>578.22</ele><time>2026-02-16T18:27:23.000Z</time></trkpt>
        <trkpt lat="28.6079939" lon="104.5681591"><ele>577.79</ele><time>2026-02-16T18:27:27.000Z</time></trkpt>
        <trkpt lat="28.6080248" lon="104.5682015"><ele>577.23</ele><time>2026-02-16T18:27:31.000Z</time></trkpt>
        <trkpt lat="28.6080679" lon="104.5682582"><ele>577.26</ele><time>2026-02-16T18:27:35.000Z</time></trkpt>
        <trkpt lat="28.6081188" lon="104.5683232"><ele>576.79</ele><time>2026-02-16T18:27:39.000Z</time></trkpt>
        <trkpt lat="28.6081775" lon="104.5683833"><ele>576.83</ele><time>2026-02-16T18:27:43.000Z</time></trkpt>
        <trkpt lat="28.6082335" lon="104.568429"><ele>576.87</ele><time>2026-02-16T18:27:47.000Z</time></trkpt>
        <trkpt lat="28.6082784" lon="104.5684594"><ele>576.68</ele><time>2026-02-16T18:28:37.000Z</time></trkpt>
        <trkpt lat="28.6083295" lon="104.5684998"><ele>576.97</ele><time>2026-02-16T18:28:43.000Z</time></trkpt>
        <trkpt lat="28.6083923" lon="104.5685384"><ele>575.52</ele><time>2026-02-16T18:28:47.000Z</time></trkpt>
        <trkpt lat="28.6084577" lon="104.5685898"><ele>574.26</ele><time>2026-02-16T18:28:51.000Z</time></trkpt>
        <trkpt lat="28.6085122" lon="104.5686317"><ele>572.82</ele><time>2026-02-16T18:28:53.000Z</time></trkpt>
        <trkpt lat="28.608549" lon="104.5686708"><ele>571.67</ele><time>2026-02-16T18:28:55.000Z</time></trkpt>
        <trkpt lat="28.6085772" lon="104.5687133"><ele>571.25</ele><time>2026-02-16T18:28:57.000Z</time></trkpt>
        <trkpt lat="28.608628" lon="104.5687554"><ele>570.46</ele><time>2026-02-16T18:29:01.000Z</time></trkpt>
        <trkpt lat="28.6086842" lon="104.5687984"><ele>569.52</ele><time>2026-02-16T18:29:05.000Z</time></trkpt>
        <trkpt lat="28.6087148" lon="104.5688461"><ele>569.41</ele><time>2026-02-16T18:29:09.000Z</time></trkpt>
        <trkpt lat="28.6087559" lon="104.5688759"><ele>569.89</ele><time>2026-02-16T18:29:13.000Z</time></trkpt>
        <trkpt lat="28.6087638" lon="104.5688872"><ele>569.54</ele><time>2026-02-16T18:29:15.000Z</time></trkpt>
        <trkpt lat="28.6087267" lon="104.5688931"><ele>569.52</ele><time>2026-02-16T18:29:31.000Z</time></trkpt>
        <trkpt lat="28.6087276" lon="104.5689284"><ele>569.93</ele><time>2026-02-16T18:29:45.000Z</time></trkpt>
        <trkpt lat="28.6087328" lon="104.5689455"><ele>569.56</ele><time>2026-02-16T18:29:47.000Z</time></trkpt>
        <trkpt lat="28.6087707" lon="104.5689649"><ele>569.39</ele><time>2026-02-16T18:29:59.000Z</time></trkpt>
        <trkpt lat="28.6088305" lon="104.5689612"><ele>568.42</ele><time>2026-02-16T18:30:05.000Z</time></trkpt>
        <trkpt lat="28.6088506" lon="104.569004"><ele>567.46</ele><time>2026-02-16T18:30:11.000Z</time></trkpt>
        <trkpt lat="28.6088525" lon="104.5690141"><ele>567.58</ele><time>2026-02-16T18:30:15.000Z</time></trkpt>
        <trkpt lat="28.6088755" lon="104.5690468"><ele>566.9</ele><time>2026-02-16T18:30:37.000Z</time></trkpt>
        <trkpt lat="28.6089245" lon="104.5690541"><ele>566.71</ele><time>2026-02-16T18:30:53.000Z</time></trkpt>
        <trkpt lat="28.6089682" lon="104.5690812"><ele>565.8</ele><time>2026-02-16T18:31:03.000Z</time></trkpt>
        <trkpt lat="28.6090067" lon="104.569115"><ele>564.42</ele><time>2026-02-16T18:31:13.000Z</time></trkpt>
        <trkpt lat="28.6090426" lon="104.5691493"><ele>563.72</ele><time>2026-02-16T18:31:19.000Z</time></trkpt>
        <trkpt lat="28.6090658" lon="104.5691626"><ele>563.21</ele><time>2026-02-16T18:31:23.000Z</time></trkpt>
        <trkpt lat="28.6091107" lon="104.569192"><ele>562.99</ele><time>2026-02-16T18:31:33.000Z</time></trkpt>
        <trkpt lat="28.6091448" lon="104.5692453"><ele>564.11</ele><time>2026-02-16T18:31:41.000Z</time></trkpt>
        <trkpt lat="28.6091719" lon="104.5693059"><ele>566.04</ele><time>2026-02-16T18:31:47.000Z</time></trkpt>
        <trkpt lat="28.6091862" lon="104.569376"><ele>567.82</ele><time>2026-02-16T18:31:53.000Z</time></trkpt>
        <trkpt lat="28.6092085" lon="104.5694322"><ele>569.73</ele><time>2026-02-16T18:31:57.000Z</time></trkpt>
        <trkpt lat="28.6092299" lon="104.5694845"><ele>570.1</ele><time>2026-02-16T18:32:01.000Z</time></trkpt>
        <trkpt lat="28.6092458" lon="104.569547"><ele>570.5</ele><time>2026-02-16T18:32:07.000Z</time></trkpt>
        <trkpt lat="28.6092666" lon="104.5696017"><ele>570.74</ele><time>2026-02-16T18:32:11.000Z</time></trkpt>
        <trkpt lat="28.6092845" lon="104.569652"><ele>570.67</ele><time>2026-02-16T18:32:15.000Z</time></trkpt>
        <trkpt lat="28.6093051" lon="104.5696994"><ele>570.04</ele><time>2026-02-16T18:32:19.000Z</time></trkpt>
        <trkpt lat="28.609328" lon="104.5697474"><ele>570.23</ele><time>2026-02-16T18:32:23.000Z</time></trkpt>
        <trkpt lat="28.6093457" lon="104.5698027"><ele>570.47</ele><time>2026-02-16T18:32:27.000Z</time></trkpt>
        <trkpt lat="28.6093676" lon="104.5698546"><ele>570.75</ele><time>2026-02-16T18:32:31.000Z</time></trkpt>
        <trkpt lat="28.6094003" lon="104.5699009"><ele>570.74</ele><time>2026-02-16T18:32:35.000Z</time></trkpt>
        <trkpt lat="28.6094398" lon="104.5699496"><ele>570.39</ele><time>2026-02-16T18:32:39.000Z</time></trkpt>
        <trkpt lat="28.6094768" lon="104.570001"><ele>570.07</ele><time>2026-02-16T18:32:43.000Z</time></trkpt>
        <trkpt lat="28.6095187" lon="104.5700632"><ele>570.87</ele><time>2026-02-16T18:32:49.000Z</time></trkpt>
        <trkpt lat="28.6095571" lon="104.5701196"><ele>570.9</ele><time>2026-02-16T18:32:53.000Z</time></trkpt>
        <trkpt lat="28.6096004" lon="104.5701682"><ele>570.95</ele><time>2026-02-16T18:32:57.000Z</time></trkpt>
        <trkpt lat="28.6096358" lon="104.5702289"><ele>570.61</ele><time>2026-02-16T18:33:01.000Z</time></trkpt>
        <trkpt lat="28.6096711" lon="104.5703049"><ele>570.43</ele><time>2026-02-16T18:33:05.000Z</time></trkpt>
        <trkpt lat="28.6097054" lon="104.5703754"><ele>570.59</ele><time>2026-02-16T18:33:09.000Z</time></trkpt>
        <trkpt lat="28.609729" lon="104.5704471"><ele>570.15</ele><time>2026-02-16T18:33:13.000Z</time></trkpt>
        <trkpt lat="28.6097593" lon="104.5705238"><ele>570.03</ele><time>2026-02-16T18:33:17.000Z</time></trkpt>
        <trkpt lat="28.6097899" lon="104.5705972"><ele>568.43</ele><time>2026-02-16T18:33:21.000Z</time></trkpt>
        <trkpt lat="28.6098143" lon="104.5706737"><ele>566.42</ele><time>2026-02-16T18:33:25.000Z</time></trkpt>
        <trkpt lat="28.6098421" lon="104.5707492"><ele>564.15</ele><time>2026-02-16T18:33:29.000Z</time></trkpt>
        <trkpt lat="28.6098467" lon="104.5708296"><ele>561.59</ele><time>2026-02-16T18:33:33.000Z</time></trkpt>
        <trkpt lat="28.6098667" lon="104.5709164"><ele>560.39</ele><time>2026-02-16T18:33:37.000Z</time></trkpt>
        <trkpt lat="28.6098768" lon="104.571012"><ele>559.66</ele><time>2026-02-16T18:33:41.000Z</time></trkpt>
        <trkpt lat="28.6098967" lon="104.5711"><ele>558.62</ele><time>2026-02-16T18:33:45.000Z</time></trkpt>
        <trkpt lat="28.6099247" lon="104.5711818"><ele>557.91</ele><time>2026-02-16T18:33:49.000Z</time></trkpt>
        <trkpt lat="28.6099343" lon="104.5712505"><ele>556.34</ele><time>2026-02-16T18:33:53.000Z</time></trkpt>
        <trkpt lat="28.6099168" lon="104.571301"><ele>555.1</ele><time>2026-02-16T18:33:59.000Z</time></trkpt>
        <trkpt lat="28.6099424" lon="104.5713017"><ele>553.94</ele><time>2026-02-16T18:34:43.000Z</time></trkpt>
        <trkpt lat="28.6099517" lon="104.571344"><ele>551.68</ele><time>2026-02-16T18:34:49.000Z</time></trkpt>
        <trkpt lat="28.6099819" lon="104.5713922"><ele>549.5</ele><time>2026-02-16T18:34:55.000Z</time></trkpt>
        <trkpt lat="28.6099928" lon="104.5714125"><ele>548.15</ele><time>2026-02-16T18:34:59.000Z</time></trkpt>
        <trkpt lat="28.6100184" lon="104.5714467"><ele>547.45</ele><time>2026-02-16T18:35:13.000Z</time></trkpt>
        <trkpt lat="28.6100439" lon="104.5714905"><ele>545.73</ele><time>2026-02-16T18:35:17.000Z</time></trkpt>
        <trkpt lat="28.610064" lon="104.5715475"><ele>542.75</ele><time>2026-02-16T18:35:23.000Z</time></trkpt>
        <trkpt lat="28.6100633" lon="104.5715758"><ele>540.52</ele><time>2026-02-16T18:35:27.000Z</time></trkpt>
        <trkpt lat="28.6100657" lon="104.5716305"><ele>539.63</ele><time>2026-02-16T18:35:39.000Z</time></trkpt>
        <trkpt lat="28.6100885" lon="104.5716811"><ele>538.74</ele><time>2026-02-16T18:35:55.000Z</time></trkpt>
        <trkpt lat="28.6100999" lon="104.571739"><ele>536.35</ele><time>2026-02-16T18:36:05.000Z</time></trkpt>
        <trkpt lat="28.6101496" lon="104.5717684"><ele>533.24</ele><time>2026-02-16T18:36:11.000Z</time></trkpt>
        <trkpt lat="28.6101994" lon="104.5718036"><ele>529.94</ele><time>2026-02-16T18:36:17.000Z</time></trkpt>
        <trkpt lat="28.6102252" lon="104.5718218"><ele>526.67</ele><time>2026-02-16T18:36:21.000Z</time></trkpt>
        <trkpt lat="28.6102462" lon="104.5718637"><ele>525.11</ele><time>2026-02-16T18:36:41.000Z</time></trkpt>
        <trkpt lat="28.6102528" lon="104.5719499"><ele>523.84</ele><time>2026-02-16T18:36:45.000Z</time></trkpt>
        <trkpt lat="28.6102435" lon="104.5720173"><ele>522.44</ele><time>2026-02-16T18:36:47.000Z</time></trkpt>
        <trkpt lat="28.6102307" lon="104.5720746"><ele>520.84</ele><time>2026-02-16T18:36:49.000Z</time></trkpt>
        <trkpt lat="28.6102227" lon="104.5721321"><ele>519.51</ele><time>2026-02-16T18:36:51.000Z</time></trkpt>
        <trkpt lat="28.6102194" lon="104.5722003"><ele>518.43</ele><time>2026-02-16T18:36:55.000Z</time></trkpt>
        <trkpt lat="28.6102401" lon="104.572272"><ele>516.56</ele><time>2026-02-16T18:36:59.000Z</time></trkpt>
        <trkpt lat="28.6102925" lon="104.5723518"><ele>513.83</ele><time>2026-02-16T18:37:03.000Z</time></trkpt>
        <trkpt lat="28.6103529" lon="104.5724316"><ele>513</ele><time>2026-02-16T18:37:07.000Z</time></trkpt>
        <trkpt lat="28.6104213" lon="104.5724915"><ele>511.81</ele><time>2026-02-16T18:37:11.000Z</time></trkpt>
        <trkpt lat="28.6104665" lon="104.5725523"><ele>510.76</ele><time>2026-02-16T18:37:17.000Z</time></trkpt>
        <trkpt lat="28.6105085" lon="104.572591"><ele>510.19</ele><time>2026-02-16T18:37:23.000Z</time></trkpt>
        <trkpt lat="28.6105481" lon="104.5726413"><ele>510.07</ele><time>2026-02-16T18:37:29.000Z</time></trkpt>
        <trkpt lat="28.6105798" lon="104.5726865"><ele>510.16</ele><time>2026-02-16T18:37:33.000Z</time></trkpt>
        <trkpt lat="28.6106089" lon="104.5727287"><ele>510.51</ele><time>2026-02-16T18:37:37.000Z</time></trkpt>
        <trkpt lat="28.6106315" lon="104.5727755"><ele>510.71</ele><time>2026-02-16T18:37:41.000Z</time></trkpt>
        <trkpt lat="28.6106475" lon="104.572827"><ele>511.08</ele><time>2026-02-16T18:37:45.000Z</time></trkpt>
        <trkpt lat="28.6106594" lon="104.5728834"><ele>510.62</ele><time>2026-02-16T18:37:49.000Z</time></trkpt>
        <trkpt lat="28.610684" lon="104.5729364"><ele>510.71</ele><time>2026-02-16T18:37:53.000Z</time></trkpt>
        <trkpt lat="28.6106915" lon="104.572951"><ele>510.56</ele><time>2026-02-16T18:37:55.000Z</time></trkpt>
        <trkpt lat="28.6107257" lon="104.5729239"><ele>510.4</ele><time>2026-02-16T18:38:13.000Z</time></trkpt>
        <trkpt lat="28.6107547" lon="104.5728894"><ele>511.36</ele><time>2026-02-16T18:38:19.000Z</time></trkpt>
        <trkpt lat="28.6107183" lon="104.5729"><ele>512.65</ele><time>2026-02-16T18:38:37.000Z</time></trkpt>
        <trkpt lat="28.6107047" lon="104.5729176"><ele>513.96</ele><time>2026-02-16T18:38:41.000Z</time></trkpt>
        <trkpt lat="28.6106834" lon="104.572967"><ele>514.42</ele><time>2026-02-16T18:38:51.000Z</time></trkpt>
        <trkpt lat="28.6106737" lon="104.5730376"><ele>514.67</ele><time>2026-02-16T18:38:55.000Z</time></trkpt>
        <trkpt lat="28.6106788" lon="104.5731064"><ele>515.77</ele><time>2026-02-16T18:38:57.000Z</time></trkpt>
        <trkpt lat="28.6106907" lon="104.5731704"><ele>517.32</ele><time>2026-02-16T18:38:59.000Z</time></trkpt>
        <trkpt lat="28.610715" lon="104.5732312"><ele>518.64</ele><time>2026-02-16T18:39:03.000Z</time></trkpt>
        <trkpt lat="28.6107365" lon="104.5732885"><ele>520.83</ele><time>2026-02-16T18:39:07.000Z</time></trkpt>
        <trkpt lat="28.6107812" lon="104.5733187"><ele>523.08</ele><time>2026-02-16T18:39:13.000Z</time></trkpt>
        <trkpt lat="28.6108099" lon="104.5733592"><ele>525.12</ele><time>2026-02-16T18:39:17.000Z</time></trkpt>
        <trkpt lat="28.6108437" lon="104.5734053"><ele>527.45</ele><time>2026-02-16T18:39:21.000Z</time></trkpt>
        <trkpt lat="28.6108885" lon="104.5734593"><ele>528.57</ele><time>2026-02-16T18:39:27.000Z</time></trkpt>
        <trkpt lat="28.6109214" lon="104.5735056"><ele>529.23</ele><time>2026-02-16T18:39:31.000Z</time></trkpt>
        <trkpt lat="28.6109465" lon="104.5735535"><ele>529.98</ele><time>2026-02-16T18:39:35.000Z</time></trkpt>
        <trkpt lat="28.6109657" lon="104.5736194"><ele>529.67</ele><time>2026-02-16T18:39:41.000Z</time></trkpt>
        <trkpt lat="28.6109723" lon="104.5736772"><ele>528.91</ele><time>2026-02-16T18:39:45.000Z</time></trkpt>
        <trkpt lat="28.6109935" lon="104.5737286"><ele>528.96</ele><time>2026-02-16T18:39:49.000Z</time></trkpt>
        <trkpt lat="28.6110278" lon="104.5737787"><ele>528.89</ele><time>2026-02-16T18:39:53.000Z</time></trkpt>
        <trkpt lat="28.6110657" lon="104.573831"><ele>527.98</ele><time>2026-02-16T18:39:57.000Z</time></trkpt>
        <trkpt lat="28.6110817" lon="104.5738846"><ele>528.01</ele><time>2026-02-16T18:40:01.000Z</time></trkpt>
        <trkpt lat="28.6110903" lon="104.5739412"><ele>528.92</ele><time>2026-02-16T18:40:05.000Z</time></trkpt>
        <trkpt lat="28.6111019" lon="104.5739997"><ele>528.92</ele><time>2026-02-16T18:40:09.000Z</time></trkpt>
        <trkpt lat="28.6111116" lon="104.5740672"><ele>529.97</ele><time>2026-02-16T18:40:15.000Z</time></trkpt>
        <trkpt lat="28.6111272" lon="104.5740951"><ele>531.62</ele><time>2026-02-16T18:40:19.000Z</time></trkpt>
        <trkpt lat="28.6111393" lon="104.5741429"><ele>532.27</ele><time>2026-02-16T18:40:31.000Z</time></trkpt>
        <trkpt lat="28.6111527" lon="104.5741719"><ele>532.3</ele><time>2026-02-16T18:40:35.000Z</time></trkpt>
        <trkpt lat="28.6111516" lon="104.57423"><ele>531.85</ele><time>2026-02-16T18:40:43.000Z</time></trkpt>
        <trkpt lat="28.6111428" lon="104.5742889"><ele>531.42</ele><time>2026-02-16T18:41:25.000Z</time></trkpt>
        <trkpt lat="28.6111793" lon="104.5743476"><ele>531.96</ele><time>2026-02-16T18:41:33.000Z</time></trkpt>
        <trkpt lat="28.6112046" lon="104.5744058"><ele>532.92</ele><time>2026-02-16T18:41:37.000Z</time></trkpt>
        <trkpt lat="28.6112279" lon="104.5744662"><ele>533.77</ele><time>2026-02-16T18:41:41.000Z</time></trkpt>
        <trkpt lat="28.611244" lon="104.5745213"><ele>534.16</ele><time>2026-02-16T18:41:45.000Z</time></trkpt>
        <trkpt lat="28.6112565" lon="104.5745756"><ele>535.26</ele><time>2026-02-16T18:41:49.000Z</time></trkpt>
        <trkpt lat="28.6112602" lon="104.5746297"><ele>535.96</ele><time>2026-02-16T18:41:53.000Z</time></trkpt>
        <trkpt lat="28.6112749" lon="104.5746783"><ele>537.37</ele><time>2026-02-16T18:41:59.000Z</time></trkpt>
        <trkpt lat="28.6113002" lon="104.5747351"><ele>538.65</ele><time>2026-02-16T18:42:05.000Z</time></trkpt>
        <trkpt lat="28.6113213" lon="104.5747915"><ele>541.03</ele><time>2026-02-16T18:42:09.000Z</time></trkpt>
        <trkpt lat="28.6113553" lon="104.5748362"><ele>542.65</ele><time>2026-02-16T18:42:13.000Z</time></trkpt>
        <trkpt lat="28.6114034" lon="104.5748691"><ele>543.31</ele><time>2026-02-16T18:42:19.000Z</time></trkpt>
        <trkpt lat="28.6114294" lon="104.5748838"><ele>543.69</ele><time>2026-02-16T18:42:25.000Z</time></trkpt>
        <trkpt lat="28.6114755" lon="104.5748979"><ele>542.25</ele><time>2026-02-16T18:42:37.000Z</time></trkpt>
        <trkpt lat="28.611509" lon="104.5749008"><ele>540.86</ele><time>2026-02-16T18:42:41.000Z</time></trkpt>
        <trkpt lat="28.6115646" lon="104.5749297"><ele>539.5</ele><time>2026-02-16T18:42:45.000Z</time></trkpt>
        <trkpt lat="28.6116162" lon="104.5749452"><ele>537.97</ele><time>2026-02-16T18:42:47.000Z</time></trkpt>
        <trkpt lat="28.6116646" lon="104.5749543"><ele>537.1</ele><time>2026-02-16T18:42:51.000Z</time></trkpt>
        <trkpt lat="28.6117036" lon="104.574989"><ele>535.64</ele><time>2026-02-16T18:42:55.000Z</time></trkpt>
        <trkpt lat="28.6117403" lon="104.5750376"><ele>534.01</ele><time>2026-02-16T18:42:59.000Z</time></trkpt>
        <trkpt lat="28.6117688" lon="104.5750702"><ele>533.03</ele><time>2026-02-16T18:43:03.000Z</time></trkpt>
        <trkpt lat="28.6118097" lon="104.5751146"><ele>531.01</ele><time>2026-02-16T18:43:19.000Z</time></trkpt>
        <trkpt lat="28.6118388" lon="104.5752"><ele>529.14</ele><time>2026-02-16T18:43:23.000Z</time></trkpt>
        <trkpt lat="28.6118507" lon="104.5752863"><ele>527.27</ele><time>2026-02-16T18:43:25.000Z</time></trkpt>
        <trkpt lat="28.6118586" lon="104.5753721"><ele>526.11</ele><time>2026-02-16T18:43:27.000Z</time></trkpt>
        <trkpt lat="28.611884" lon="104.5754486"><ele>525.43</ele><time>2026-02-16T18:43:29.000Z</time></trkpt>
        <trkpt lat="28.61192" lon="104.5755077"><ele>525.08</ele><time>2026-02-16T18:43:31.000Z</time></trkpt>
        <trkpt lat="28.611957" lon="104.5755781"><ele>525.6</ele><time>2026-02-16T18:43:35.000Z</time></trkpt>
        <trkpt lat="28.6119941" lon="104.575653"><ele>527.34</ele><time>2026-02-16T18:43:39.000Z</time></trkpt>
        <trkpt lat="28.6120358" lon="104.575728"><ele>529.68</ele><time>2026-02-16T18:43:43.000Z</time></trkpt>
        <trkpt lat="28.6120794" lon="104.5757808"><ele>531.75</ele><time>2026-02-16T18:43:47.000Z</time></trkpt>
        <trkpt lat="28.6121279" lon="104.5758248"><ele>533.3</ele><time>2026-02-16T18:43:51.000Z</time></trkpt>
        <trkpt lat="28.6121677" lon="104.5758727"><ele>534.67</ele><time>2026-02-16T18:43:55.000Z</time></trkpt>
        <trkpt lat="28.6121819" lon="104.5759352"><ele>536.04</ele><time>2026-02-16T18:43:59.000Z</time></trkpt>
        <trkpt lat="28.6121697" lon="104.5760009"><ele>537.99</ele><time>2026-02-16T18:44:03.000Z</time></trkpt>
        <trkpt lat="28.6121426" lon="104.576067"><ele>538.89</ele><time>2026-02-16T18:44:07.000Z</time></trkpt>
        <trkpt lat="28.6121266" lon="104.5761242"><ele>539.86</ele><time>2026-02-16T18:44:11.000Z</time></trkpt>
        <trkpt lat="28.6121278" lon="104.5761795"><ele>540.57</ele><time>2026-02-16T18:44:15.000Z</time></trkpt>
        <trkpt lat="28.6121379" lon="104.5762375"><ele>541.39</ele><time>2026-02-16T18:44:19.000Z</time></trkpt>
        <trkpt lat="28.6121503" lon="104.5762986"><ele>541.23</ele><time>2026-02-16T18:44:23.000Z</time></trkpt>
        <trkpt lat="28.6121692" lon="104.5763627"><ele>540.63</ele><time>2026-02-16T18:44:27.000Z</time></trkpt>
        <trkpt lat="28.6122043" lon="104.5764219"><ele>540.17</ele><time>2026-02-16T18:44:31.000Z</time></trkpt>
        <trkpt lat="28.61225" lon="104.5764737"><ele>539.78</ele><time>2026-02-16T18:44:35.000Z</time></trkpt>
        <trkpt lat="28.6122841" lon="104.5765455"><ele>539.08</ele><time>2026-02-16T18:44:39.000Z</time></trkpt>
        <trkpt lat="28.6123019" lon="104.5766343"><ele>537.06</ele><time>2026-02-16T18:44:43.000Z</time></trkpt>
        <trkpt lat="28.6123075" lon="104.576712"><ele>535.07</ele><time>2026-02-16T18:44:47.000Z</time></trkpt>
        <trkpt lat="28.6123155" lon="104.5767701"><ele>533.52</ele><time>2026-02-16T18:44:49.000Z</time></trkpt>
        <trkpt lat="28.6123298" lon="104.5768451"><ele>532.29</ele><time>2026-02-16T18:44:53.000Z</time></trkpt>
        <trkpt lat="28.6123453" lon="104.57691"><ele>531.17</ele><time>2026-02-16T18:44:57.000Z</time></trkpt>
        <trkpt lat="28.6123699" lon="104.5769702"><ele>530.16</ele><time>2026-02-16T18:45:01.000Z</time></trkpt>
        <trkpt lat="28.6124033" lon="104.5770491"><ele>529.08</ele><time>2026-02-16T18:45:05.000Z</time></trkpt>
        <trkpt lat="28.6124291" lon="104.5771081"><ele>528.32</ele><time>2026-02-16T18:45:09.000Z</time></trkpt>
        <trkpt lat="28.6124608" lon="104.5771516"><ele>527.78</ele><time>2026-02-16T18:45:27.000Z</time></trkpt>
        <trkpt lat="28.6124801" lon="104.5771969"><ele>526.64</ele><time>2026-02-16T18:45:31.000Z</time></trkpt>
        <trkpt lat="28.612491" lon="104.5772486"><ele>526.05</ele><time>2026-02-16T18:45:37.000Z</time></trkpt>
        <trkpt lat="28.6125076" lon="104.5773101"><ele>525.55</ele><time>2026-02-16T18:45:43.000Z</time></trkpt>
        <trkpt lat="28.6125103" lon="104.5773201"><ele>525.43</ele><time>2026-02-16T18:45:45.000Z</time></trkpt>
        <trkpt lat="28.6125292" lon="104.5773616"><ele>525.33</ele><time>2026-02-16T18:46:11.000Z</time></trkpt>
        <trkpt lat="28.6125531" lon="104.5774141"><ele>523.59</ele><time>2026-02-16T18:46:15.000Z</time></trkpt>
        <trkpt lat="28.6126061" lon="104.5774542"><ele>521.89</ele><time>2026-02-16T18:46:19.000Z</time></trkpt>
        <trkpt lat="28.6126616" lon="104.5774782"><ele>519.93</ele><time>2026-02-16T18:46:21.000Z</time></trkpt>
        <trkpt lat="28.6127417" lon="104.5774856"><ele>517.57</ele><time>2026-02-16T18:46:23.000Z</time></trkpt>
        <trkpt lat="28.6128229" lon="104.5775112"><ele>516.13</ele><time>2026-02-16T18:46:25.000Z</time></trkpt>
        <trkpt lat="28.6128805" lon="104.577558"><ele>515.31</ele><time>2026-02-16T18:46:27.000Z</time></trkpt>
        <trkpt lat="28.6129211" lon="104.5776265"><ele>515.52</ele><time>2026-02-16T18:46:29.000Z</time></trkpt>
        <trkpt lat="28.6129679" lon="104.577706"><ele>515.22</ele><time>2026-02-16T18:46:31.000Z</time></trkpt>
        <trkpt lat="28.6130022" lon="104.5777839"><ele>514.23</ele><time>2026-02-16T18:46:33.000Z</time></trkpt>
        <trkpt lat="28.6130294" lon="104.5778567"><ele>513.41</ele><time>2026-02-16T18:46:35.000Z</time></trkpt>
        <trkpt lat="28.6130551" lon="104.5779222"><ele>512.04</ele><time>2026-02-16T18:46:37.000Z</time></trkpt>
        <trkpt lat="28.613077" lon="104.5779952"><ele>510.46</ele><time>2026-02-16T18:46:39.000Z</time></trkpt>
        <trkpt lat="28.6130994" lon="104.5780479"><ele>508.94</ele><time>2026-02-16T18:46:41.000Z</time></trkpt>
        <trkpt lat="28.6131509" lon="104.578087"><ele>508</ele><time>2026-02-16T18:46:45.000Z</time></trkpt>
        <trkpt lat="28.6131876" lon="104.5781256"><ele>505.73</ele><time>2026-02-16T18:46:49.000Z</time></trkpt>
        <trkpt lat="28.6131999" lon="104.5781827"><ele>503.18</ele><time>2026-02-16T18:46:53.000Z</time></trkpt>
        <trkpt lat="28.6132129" lon="104.5782435"><ele>501.35</ele><time>2026-02-16T18:46:57.000Z</time></trkpt>
        <trkpt lat="28.6132348" lon="104.5783174"><ele>499.5</ele><time>2026-02-16T18:47:01.000Z</time></trkpt>
        <trkpt lat="28.6132807" lon="104.578384"><ele>496.83</ele><time>2026-02-16T18:47:05.000Z</time></trkpt>
        <trkpt lat="28.613343" lon="104.578435"><ele>494.96</ele><time>2026-02-16T18:47:09.000Z</time></trkpt>
        <trkpt lat="28.6133896" lon="104.5784949"><ele>493.27</ele><time>2026-02-16T18:47:13.000Z</time></trkpt>
        <trkpt lat="28.613447" lon="104.5784959"><ele>491.62</ele><time>2026-02-16T18:47:19.000Z</time></trkpt>
        <trkpt lat="28.6134996" lon="104.5784776"><ele>490.07</ele><time>2026-02-16T18:47:23.000Z</time></trkpt>
        <trkpt lat="28.613548" lon="104.5784928"><ele>489.31</ele><time>2026-02-16T18:47:29.000Z</time></trkpt>
        <trkpt lat="28.613595" lon="104.5785209"><ele>488.21</ele><time>2026-02-16T18:47:33.000Z</time></trkpt>
        <trkpt lat="28.6136409" lon="104.5785375"><ele>487.34</ele><time>2026-02-16T18:47:37.000Z</time></trkpt>
        <trkpt lat="28.6136803" lon="104.5785893"><ele>486.26</ele><time>2026-02-16T18:47:43.000Z</time></trkpt>
        <trkpt lat="28.6137264" lon="104.5786299"><ele>485.32</ele><time>2026-02-16T18:47:47.000Z</time></trkpt>
        <trkpt lat="28.6137874" lon="104.5786578"><ele>484.17</ele><time>2026-02-16T18:47:53.000Z</time></trkpt>
        <trkpt lat="28.6138443" lon="104.5786704"><ele>480.87</ele><time>2026-02-16T18:47:57.000Z</time></trkpt>
        <trkpt lat="28.613904" lon="104.5786612"><ele>477.68</ele><time>2026-02-16T18:48:03.000Z</time></trkpt>
        <trkpt lat="28.6139618" lon="104.5786777"><ele>474.82</ele><time>2026-02-16T18:48:09.000Z</time></trkpt>
        <trkpt lat="28.6140218" lon="104.5786905"><ele>471.71</ele><time>2026-02-16T18:48:13.000Z</time></trkpt>
        <trkpt lat="28.6140421" lon="104.5787354"><ele>468.59</ele><time>2026-02-16T18:48:41.000Z</time></trkpt>
        <trkpt lat="28.6140823" lon="104.5787786"><ele>465.79</ele><time>2026-02-16T18:48:47.000Z</time></trkpt>
        <trkpt lat="28.6140751" lon="104.5788295"><ele>464.54</ele><time>2026-02-16T18:48:53.000Z</time></trkpt>
        <trkpt lat="28.6140553" lon="104.5788763"><ele>463.1</ele><time>2026-02-16T18:48:59.000Z</time></trkpt>
        <trkpt lat="28.6140553" lon="104.5788763"><ele>463.1</ele><time>2026-02-16T18:49:06.000Z</time></trkpt>
        <trkpt lat="28.6140597" lon="104.5789285"><ele>461.88</ele><time>2026-02-16T18:49:09.000Z</time></trkpt>
        <trkpt lat="28.6140597" lon="104.5789285"><ele>461.88</ele><time>2026-02-16T18:49:17.000Z</time></trkpt>
        <trkpt lat="28.6140735" lon="104.5789967"><ele>459.9</ele><time>2026-02-16T18:49:25.000Z</time></trkpt>
        <trkpt lat="28.6141122" lon="104.5790032"><ele>458.1</ele><time>2026-02-16T18:49:29.000Z</time></trkpt>
        <trkpt lat="28.6141535" lon="104.5789581"><ele>457.07</ele><time>2026-02-16T18:49:33.000Z</time></trkpt>
        <trkpt lat="28.6141975" lon="104.5788985"><ele>456.49</ele><time>2026-02-16T18:49:37.000Z</time></trkpt>
        <trkpt lat="28.6142489" lon="104.5788525"><ele>456.26</ele><time>2026-02-16T18:49:41.000Z</time></trkpt>
        <trkpt lat="28.6143095" lon="104.578844"><ele>456.44</ele><time>2026-02-16T18:49:45.000Z</time></trkpt>
        <trkpt lat="28.6143649" lon="104.5788753"><ele>456.69</ele><time>2026-02-16T18:49:49.000Z</time></trkpt>
        <trkpt lat="28.614406" lon="104.5789285"><ele>457.24</ele><time>2026-02-16T18:49:53.000Z</time></trkpt>
        <trkpt lat="28.6144022" lon="104.5789912"><ele>457.62</ele><time>2026-02-16T18:49:57.000Z</time></trkpt>
        <trkpt lat="28.6143828" lon="104.5790534"><ele>458.03</ele><time>2026-02-16T18:50:01.000Z</time></trkpt>
        <trkpt lat="28.6143635" lon="104.5791149"><ele>458.49</ele><time>2026-02-16T18:50:05.000Z</time></trkpt>
        <trkpt lat="28.61435" lon="104.5791793"><ele>459.29</ele><time>2026-02-16T18:50:09.000Z</time></trkpt>
        <trkpt lat="28.614338" lon="104.5792481"><ele>459.66</ele><time>2026-02-16T18:50:13.000Z</time></trkpt>
        <trkpt lat="28.6143274" lon="104.5793163"><ele>460.16</ele><time>2026-02-16T18:50:17.000Z</time></trkpt>
        <trkpt lat="28.614328" lon="104.5793798"><ele>460.74</ele><time>2026-02-16T18:50:21.000Z</time></trkpt>
        <trkpt lat="28.6143287" lon="104.579437"><ele>461.15</ele><time>2026-02-16T18:50:25.000Z</time></trkpt>
        <trkpt lat="28.6143235" lon="104.5794945"><ele>461.69</ele><time>2026-02-16T18:50:29.000Z</time></trkpt>
        <trkpt lat="28.6143407" lon="104.5795433"><ele>461.91</ele><time>2026-02-16T18:50:33.000Z</time></trkpt>
        <trkpt lat="28.6143825" lon="104.5795954"><ele>462.43</ele><time>2026-02-16T18:50:39.000Z</time></trkpt>
        <trkpt lat="28.6144264" lon="104.5796425"><ele>463.08</ele><time>2026-02-16T18:50:44.000Z</time></trkpt>
        <trkpt lat="28.6144606" lon="104.5796879"><ele>463.92</ele><time>2026-02-16T18:50:48.000Z</time></trkpt>
        <trkpt lat="28.6145029" lon="104.5797248"><ele>464.39</ele><time>2026-02-16T18:50:52.000Z</time></trkpt>
        <trkpt lat="28.6145516" lon="104.5797429"><ele>464.97</ele><time>2026-02-16T18:50:56.000Z</time></trkpt>
        <trkpt lat="28.6146055" lon="104.5797448"><ele>465.35</ele><time>2026-02-16T18:51:00.000Z</time></trkpt>
        <trkpt lat="28.6146566" lon="104.5797306"><ele>465.7</ele><time>2026-02-16T18:51:04.000Z</time></trkpt>
        <trkpt lat="28.6147036" lon="104.5797065"><ele>466.01</ele><time>2026-02-16T18:51:08.000Z</time></trkpt>
        <trkpt lat="28.6147544" lon="104.5796884"><ele>466.45</ele><time>2026-02-16T18:51:12.000Z</time></trkpt>
        <trkpt lat="28.614803" lon="104.5796646"><ele>466.66</ele><time>2026-02-16T18:51:16.000Z</time></trkpt>
        <trkpt lat="28.6148544" lon="104.5796357"><ele>466.66</ele><time>2026-02-16T18:51:20.000Z</time></trkpt>
        <trkpt lat="28.6149085" lon="104.5796047"><ele>466.64</ele><time>2026-02-16T18:51:24.000Z</time></trkpt>
        <trkpt lat="28.6149678" lon="104.5795794"><ele>466.17</ele><time>2026-02-16T18:51:28.000Z</time></trkpt>
        <trkpt lat="28.6150214" lon="104.5795579"><ele>465.27</ele><time>2026-02-16T18:51:32.000Z</time></trkpt>
        <trkpt lat="28.6150787" lon="104.5795376"><ele>464.47</ele><time>2026-02-16T18:51:36.000Z</time></trkpt>
        <trkpt lat="28.6151373" lon="104.5795173"><ele>463.77</ele><time>2026-02-16T18:51:40.000Z</time></trkpt>
        <trkpt lat="28.615188" lon="104.5794909"><ele>463.25</ele><time>2026-02-16T18:51:44.000Z</time></trkpt>
        <trkpt lat="28.6152418" lon="104.5794589"><ele>462.4</ele><time>2026-02-16T18:51:48.000Z</time></trkpt>
        <trkpt lat="28.6153007" lon="104.5794323"><ele>461.49</ele><time>2026-02-16T18:51:52.000Z</time></trkpt>
        <trkpt lat="28.6153651" lon="104.5794036"><ele>461.03</ele><time>2026-02-16T18:51:56.000Z</time></trkpt>
        <trkpt lat="28.6154281" lon="104.579367"><ele>460.36</ele><time>2026-02-16T18:52:00.000Z</time></trkpt>
        <trkpt lat="28.6154904" lon="104.5793349"><ele>459.74</ele><time>2026-02-16T18:52:04.000Z</time></trkpt>
        <trkpt lat="28.615555" lon="104.5793059"><ele>459.55</ele><time>2026-02-16T18:52:08.000Z</time></trkpt>
        <trkpt lat="28.6155894" lon="104.579348"><ele>459.26</ele><time>2026-02-16T18:52:12.000Z</time></trkpt>
        <trkpt lat="28.6155611" lon="104.5794123"><ele>459.44</ele><time>2026-02-16T18:52:16.000Z</time></trkpt>
        <trkpt lat="28.6155051" lon="104.5794804"><ele>459.36</ele><time>2026-02-16T18:52:20.000Z</time></trkpt>
        <trkpt lat="28.6154505" lon="104.5795483"><ele>458.07</ele><time>2026-02-16T18:52:22.000Z</time></trkpt>
        <trkpt lat="28.6154012" lon="104.5796263"><ele>456.83</ele><time>2026-02-16T18:52:24.000Z</time></trkpt>
        <trkpt lat="28.6153708" lon="104.5796966"><ele>456.02</ele><time>2026-02-16T18:52:26.000Z</time></trkpt>
        <trkpt lat="28.6153462" lon="104.579776"><ele>455.58</ele><time>2026-02-16T18:52:30.000Z</time></trkpt>
        <trkpt lat="28.6153178" lon="104.5798566"><ele>455.54</ele><time>2026-02-16T18:52:34.000Z</time></trkpt>
        <trkpt lat="28.6152961" lon="104.5799269"><ele>455.68</ele><time>2026-02-16T18:52:38.000Z</time></trkpt>
        <trkpt lat="28.6152835" lon="104.5799926"><ele>455.7</ele><time>2026-02-16T18:52:42.000Z</time></trkpt>
        <trkpt lat="28.615297" lon="104.5800563"><ele>455.9</ele><time>2026-02-16T18:52:46.000Z</time></trkpt>
        <trkpt lat="28.6153213" lon="104.5801102"><ele>455.59</ele><time>2026-02-16T18:52:50.000Z</time></trkpt>
        <trkpt lat="28.6153314" lon="104.5801935"><ele>455.35</ele><time>2026-02-16T18:52:54.000Z</time></trkpt>
        <trkpt lat="28.6153154" lon="104.5802558"><ele>455.79</ele><time>2026-02-16T18:52:56.000Z</time></trkpt>
        <trkpt lat="28.6152727" lon="104.5802964"><ele>456.46</ele><time>2026-02-16T18:52:58.000Z</time></trkpt>
        <trkpt lat="28.6152231" lon="104.5803176"><ele>457.15</ele><time>2026-02-16T18:53:00.000Z</time></trkpt>
        <trkpt lat="28.6151554" lon="104.5803494"><ele>458.23</ele><time>2026-02-16T18:53:04.000Z</time></trkpt>
        <trkpt lat="28.6150931" lon="104.5803926"><ele>459.44</ele><time>2026-02-16T18:53:08.000Z</time></trkpt>
        <trkpt lat="28.6150394" lon="104.5804339"><ele>460.16</ele><time>2026-02-16T18:53:12.000Z</time></trkpt>
        <trkpt lat="28.6149896" lon="104.5804704"><ele>460.31</ele><time>2026-02-16T18:53:16.000Z</time></trkpt>
        <trkpt lat="28.6149379" lon="104.5804965"><ele>460.15</ele><time>2026-02-16T18:53:20.000Z</time></trkpt>
        <trkpt lat="28.6148831" lon="104.5805243"><ele>460.03</ele><time>2026-02-16T18:53:24.000Z</time></trkpt>
        <trkpt lat="28.614827" lon="104.5805564"><ele>459.57</ele><time>2026-02-16T18:53:28.000Z</time></trkpt>
        <trkpt lat="28.6147691" lon="104.5805868"><ele>458.89</ele><time>2026-02-16T18:53:32.000Z</time></trkpt>
        <trkpt lat="28.6147179" lon="104.5806371"><ele>458.2</ele><time>2026-02-16T18:53:36.000Z</time></trkpt>
        <trkpt lat="28.6146775" lon="104.5807009"><ele>457.4</ele><time>2026-02-16T18:53:40.000Z</time></trkpt>
        <trkpt lat="28.6146426" lon="104.5807693"><ele>456.59</ele><time>2026-02-16T18:53:44.000Z</time></trkpt>
        <trkpt lat="28.614623" lon="104.5808354"><ele>455.41</ele><time>2026-02-16T18:53:48.000Z</time></trkpt>
        <trkpt lat="28.6146332" lon="104.5808933"><ele>454.07</ele><time>2026-02-16T18:53:54.000Z</time></trkpt>
        <trkpt lat="28.6146652" lon="104.5809488"><ele>452.81</ele><time>2026-02-16T18:53:58.000Z</time></trkpt>
        <trkpt lat="28.6147009" lon="104.5810098"><ele>452.63</ele><time>2026-02-16T18:54:04.000Z</time></trkpt>
        <trkpt lat="28.6147311" lon="104.5810597"><ele>454.18</ele><time>2026-02-16T18:54:08.000Z</time></trkpt>
        <trkpt lat="28.6147768" lon="104.5810934"><ele>455.99</ele><time>2026-02-16T18:54:12.000Z</time></trkpt>
        <trkpt lat="28.6148238" lon="104.5811116"><ele>456.85</ele><time>2026-02-16T18:54:16.000Z</time></trkpt>
        <trkpt lat="28.6148706" lon="104.5811214"><ele>457.84</ele><time>2026-02-16T18:54:22.000Z</time></trkpt>
        <trkpt lat="28.6149304" lon="104.5811396"><ele>458.45</ele><time>2026-02-16T18:54:26.000Z</time></trkpt>
        <trkpt lat="28.6149846" lon="104.5811727"><ele>458.7</ele><time>2026-02-16T18:54:30.000Z</time></trkpt>
        <trkpt lat="28.615032" lon="104.5811985"><ele>458.64</ele><time>2026-02-16T18:54:34.000Z</time></trkpt>
        <trkpt lat="28.615072" lon="104.5812293"><ele>459.61</ele><time>2026-02-16T18:54:38.000Z</time></trkpt>
        <trkpt lat="28.6151238" lon="104.5812387"><ele>461.18</ele><time>2026-02-16T18:54:44.000Z</time></trkpt>
        <trkpt lat="28.6151725" lon="104.5812634"><ele>461.34</ele><time>2026-02-16T18:54:48.000Z</time></trkpt>
        <trkpt lat="28.615215" lon="104.5812888"><ele>461.57</ele><time>2026-02-16T18:54:52.000Z</time></trkpt>
        <trkpt lat="28.6152644" lon="104.5813073"><ele>462.24</ele><time>2026-02-16T18:54:56.000Z</time></trkpt>
        <trkpt lat="28.6153141" lon="104.5813231"><ele>463.44</ele><time>2026-02-16T18:55:00.000Z</time></trkpt>
        <trkpt lat="28.6153722" lon="104.5813411"><ele>466.43</ele><time>2026-02-16T18:55:06.000Z</time></trkpt>
        <trkpt lat="28.6154357" lon="104.5813339"><ele>467.9</ele><time>2026-02-16T18:55:12.000Z</time></trkpt>
        <trkpt lat="28.6154976" lon="104.5813376"><ele>468.43</ele><time>2026-02-16T18:55:18.000Z</time></trkpt>
        <trkpt lat="28.6155574" lon="104.5813371"><ele>470.16</ele><time>2026-02-16T18:55:24.000Z</time></trkpt>
        <trkpt lat="28.6156122" lon="104.5813282"><ele>471.98</ele><time>2026-02-16T18:55:30.000Z</time></trkpt>
        <trkpt lat="28.615677" lon="104.5813284"><ele>473.94</ele><time>2026-02-16T18:55:36.000Z</time></trkpt>
        <trkpt lat="28.6157285" lon="104.5813144"><ele>474.91</ele><time>2026-02-16T18:55:40.000Z</time></trkpt>
        <trkpt lat="28.6157894" lon="104.5813042"><ele>475.93</ele><time>2026-02-16T18:55:46.000Z</time></trkpt>
        <trkpt lat="28.6158392" lon="104.581302"><ele>476.42</ele><time>2026-02-16T18:55:50.000Z</time></trkpt>
        <trkpt lat="28.6158917" lon="104.5813085"><ele>476.9</ele><time>2026-02-16T18:56:02.000Z</time></trkpt>
        <trkpt lat="28.6159437" lon="104.5813198"><ele>478.28</ele><time>2026-02-16T18:56:08.000Z</time></trkpt>
        <trkpt lat="28.615994" lon="104.5813256"><ele>479.58</ele><time>2026-02-16T18:56:14.000Z</time></trkpt>
        <trkpt lat="28.6160448" lon="104.5813044"><ele>481.02</ele><time>2026-02-16T18:56:18.000Z</time></trkpt>
        <trkpt lat="28.6160857" lon="104.5812595"><ele>481.04</ele><time>2026-02-16T18:56:22.000Z</time></trkpt>
        <trkpt lat="28.6161302" lon="104.5812205"><ele>480.94</ele><time>2026-02-16T18:56:28.000Z</time></trkpt>
        <trkpt lat="28.6161792" lon="104.5812122"><ele>480.99</ele><time>2026-02-16T18:56:34.000Z</time></trkpt>
        <trkpt lat="28.6162334" lon="104.5812126"><ele>481.98</ele><time>2026-02-16T18:56:40.000Z</time></trkpt>
        <trkpt lat="28.6162784" lon="104.5811944"><ele>483.56</ele><time>2026-02-16T18:56:54.000Z</time></trkpt>
        <trkpt lat="28.6163221" lon="104.5811753"><ele>484.69</ele><time>2026-02-16T18:57:00.000Z</time></trkpt>
        <trkpt lat="28.616371" lon="104.5811542"><ele>487.18</ele><time>2026-02-16T18:57:08.000Z</time></trkpt>
        <trkpt lat="28.6164253" lon="104.5811515"><ele>488.6</ele><time>2026-02-16T18:57:14.000Z</time></trkpt>
        <trkpt lat="28.6164564" lon="104.5811914"><ele>490.11</ele><time>2026-02-16T18:57:34.000Z</time></trkpt>
        <trkpt lat="28.6164763" lon="104.5812446"><ele>491.93</ele><time>2026-02-16T18:57:42.000Z</time></trkpt>
        <trkpt lat="28.6164937" lon="104.5813083"><ele>491.55</ele><time>2026-02-16T18:57:50.000Z</time></trkpt>
        <trkpt lat="28.6165068" lon="104.5813771"><ele>492.63</ele><time>2026-02-16T18:57:56.000Z</time></trkpt>
        <trkpt lat="28.6165068" lon="104.5813771"><ele>492.63</ele><time>2026-02-16T18:58:06.000Z</time></trkpt>
        <trkpt lat="28.616536" lon="104.5814309"><ele>494.93</ele><time>2026-02-16T18:58:09.000Z</time></trkpt>
        <trkpt lat="28.616536" lon="104.5814309"><ele>494.93</ele><time>2026-02-16T18:58:28.000Z</time></trkpt>
        <trkpt lat="28.6165525" lon="104.5814833"><ele>495.16</ele><time>2026-02-16T18:58:34.000Z</time></trkpt>
        <trkpt lat="28.6165685" lon="104.5815202"><ele>496.71</ele><time>2026-02-16T18:58:42.000Z</time></trkpt>
        <trkpt lat="28.6166099" lon="104.5815475"><ele>498.66</ele><time>2026-02-16T18:59:08.000Z</time></trkpt>
        <trkpt lat="28.6166535" lon="104.5815881"><ele>499.57</ele><time>2026-02-16T18:59:16.000Z</time></trkpt>
        <trkpt lat="28.6166937" lon="104.5816368"><ele>500.32</ele><time>2026-02-16T18:59:20.000Z</time></trkpt>
        <trkpt lat="28.6167369" lon="104.5816674"><ele>500.9</ele><time>2026-02-16T18:59:24.000Z</time></trkpt>
        <trkpt lat="28.6167834" lon="104.5816885"><ele>501.29</ele><time>2026-02-16T18:59:28.000Z</time></trkpt>
        <trkpt lat="28.6168417" lon="104.5817005"><ele>501.47</ele><time>2026-02-16T18:59:34.000Z</time></trkpt>
        <trkpt lat="28.6168951" lon="104.581684"><ele>502.02</ele><time>2026-02-16T18:59:40.000Z</time></trkpt>
        <trkpt lat="28.6169263" lon="104.5816225"><ele>503</ele><time>2026-02-16T18:59:46.000Z</time></trkpt>
        <trkpt lat="28.6169043" lon="104.5815689"><ele>504.5</ele><time>2026-02-16T18:59:50.000Z</time></trkpt>
        <trkpt lat="28.6168497" lon="104.5815351"><ele>505.86</ele><time>2026-02-16T18:59:56.000Z</time></trkpt>
        <trkpt lat="28.6168541" lon="104.5814981"><ele>506.72</ele><time>2026-02-16T19:00:06.000Z</time></trkpt>
        <trkpt lat="28.616902" lon="104.5814797"><ele>508.47</ele><time>2026-02-16T19:00:12.000Z</time></trkpt>
        <trkpt lat="28.6169574" lon="104.5814514"><ele>509.61</ele><time>2026-02-16T19:00:18.000Z</time></trkpt>
        <trkpt lat="28.6170003" lon="104.5814162"><ele>510.66</ele><time>2026-02-16T19:00:22.000Z</time></trkpt>
        <trkpt lat="28.6170208" lon="104.5813533"><ele>513.34</ele><time>2026-02-16T19:00:28.000Z</time></trkpt>
        <trkpt lat="28.6170545" lon="104.5813085"><ele>515.98</ele><time>2026-02-16T19:00:34.000Z</time></trkpt>
        <trkpt lat="28.6170966" lon="104.5812868"><ele>516.06</ele><time>2026-02-16T19:00:40.000Z</time></trkpt>
        <trkpt lat="28.6171558" lon="104.5813105"><ele>516.89</ele><time>2026-02-16T19:00:46.000Z</time></trkpt>
        <trkpt lat="28.6172163" lon="104.5813455"><ele>516.17</ele><time>2026-02-16T19:00:52.000Z</time></trkpt>
        <trkpt lat="28.6172667" lon="104.5813681"><ele>515.65</ele><time>2026-02-16T19:00:56.000Z</time></trkpt>
        <trkpt lat="28.6173125" lon="104.5813883"><ele>515.42</ele><time>2026-02-16T19:01:02.000Z</time></trkpt>
        <trkpt lat="28.6173599" lon="104.581419"><ele>514.3</ele><time>2026-02-16T19:01:08.000Z</time></trkpt>
        <trkpt lat="28.617411" lon="104.5814327"><ele>514.01</ele><time>2026-02-16T19:01:12.000Z</time></trkpt>
        <trkpt lat="28.6174593" lon="104.581435"><ele>513.81</ele><time>2026-02-16T19:01:16.000Z</time></trkpt>
        <trkpt lat="28.6175217" lon="104.5814363"><ele>514.26</ele><time>2026-02-16T19:01:20.000Z</time></trkpt>
        <trkpt lat="28.617577" lon="104.5814359"><ele>514.85</ele><time>2026-02-16T19:01:24.000Z</time></trkpt>
        <trkpt lat="28.6176295" lon="104.5814389"><ele>515.1</ele><time>2026-02-16T19:01:28.000Z</time></trkpt>
        <trkpt lat="28.6176885" lon="104.5814591"><ele>514.77</ele><time>2026-02-16T19:01:32.000Z</time></trkpt>
        <trkpt lat="28.6177396" lon="104.581492"><ele>514.12</ele><time>2026-02-16T19:01:36.000Z</time></trkpt>
        <trkpt lat="28.617762" lon="104.5814988"><ele>513.49</ele><time>2026-02-16T19:01:40.000Z</time></trkpt>
        <trkpt lat="28.6178072" lon="104.5815179"><ele>513.06</ele><time>2026-02-16T19:01:48.000Z</time></trkpt>
        <trkpt lat="28.6178604" lon="104.5815268"><ele>512.65</ele><time>2026-02-16T19:01:52.000Z</time></trkpt>
        <trkpt lat="28.6179253" lon="104.5815258"><ele>511.68</ele><time>2026-02-16T19:01:56.000Z</time></trkpt>
        <trkpt lat="28.6179805" lon="104.5815329"><ele>512.45</ele><time>2026-02-16T19:02:00.000Z</time></trkpt>
        <trkpt lat="28.6180392" lon="104.5815221"><ele>513.56</ele><time>2026-02-16T19:02:04.000Z</time></trkpt>
        <trkpt lat="28.6180918" lon="104.5815108"><ele>514.94</ele><time>2026-02-16T19:02:08.000Z</time></trkpt>
        <trkpt lat="28.6181372" lon="104.5815046"><ele>516.2</ele><time>2026-02-16T19:02:14.000Z</time></trkpt>
        <trkpt lat="28.6181909" lon="104.5815052"><ele>518.33</ele><time>2026-02-16T19:02:20.000Z</time></trkpt>
        <trkpt lat="28.6182378" lon="104.5814958"><ele>521.28</ele><time>2026-02-16T19:02:24.000Z</time></trkpt>
        <trkpt lat="28.6182948" lon="104.5814738"><ele>523.54</ele><time>2026-02-16T19:02:30.000Z</time></trkpt>
        <trkpt lat="28.6183585" lon="104.5814702"><ele>525.76</ele><time>2026-02-16T19:02:36.000Z</time></trkpt>
        <trkpt lat="28.6184262" lon="104.5814801"><ele>526.33</ele><time>2026-02-16T19:02:48.000Z</time></trkpt>
        <trkpt lat="28.6184814" lon="104.5815082"><ele>527.78</ele><time>2026-02-16T19:02:54.000Z</time></trkpt>
        <trkpt lat="28.6185223" lon="104.581524"><ele>528.63</ele><time>2026-02-16T19:03:00.000Z</time></trkpt>
        <trkpt lat="28.6185664" lon="104.5815367"><ele>529.08</ele><time>2026-02-16T19:03:06.000Z</time></trkpt>
        <trkpt lat="28.6186129" lon="104.581562"><ele>530.94</ele><time>2026-02-16T19:03:12.000Z</time></trkpt>
        <trkpt lat="28.6186471" lon="104.5815802"><ele>532.68</ele><time>2026-02-16T19:03:18.000Z</time></trkpt>
        <trkpt lat="28.618691" lon="104.5815937"><ele>534.51</ele><time>2026-02-16T19:03:42.000Z</time></trkpt>
        <trkpt lat="28.6187456" lon="104.5815978"><ele>535.8</ele><time>2026-02-16T19:03:50.000Z</time></trkpt>
        <trkpt lat="28.6187906" lon="104.5816169"><ele>536.71</ele><time>2026-02-16T19:03:58.000Z</time></trkpt>
        <trkpt lat="28.6188472" lon="104.5816358"><ele>537.67</ele><time>2026-02-16T19:04:22.000Z</time></trkpt>
        <trkpt lat="28.6189041" lon="104.5816211"><ele>539.05</ele><time>2026-02-16T19:04:28.000Z</time></trkpt>
        <trkpt lat="28.6189716" lon="104.5815955"><ele>539.22</ele><time>2026-02-16T19:04:35.000Z</time></trkpt>
        <trkpt lat="28.6189975" lon="104.5815931"><ele>539.61</ele><time>2026-02-16T19:04:37.000Z</time></trkpt>
        <trkpt lat="28.6190531" lon="104.5815875"><ele>540.1</ele><time>2026-02-16T19:04:43.000Z</time></trkpt>
        <trkpt lat="28.6191123" lon="104.5815813"><ele>540.08</ele><time>2026-02-16T19:04:47.000Z</time></trkpt>
        <trkpt lat="28.6191412" lon="104.5815539"><ele>539.56</ele><time>2026-02-16T19:04:53.000Z</time></trkpt>
        <trkpt lat="28.6191638" lon="104.5814981"><ele>539.8</ele><time>2026-02-16T19:06:05.000Z</time></trkpt>
        <trkpt lat="28.6192011" lon="104.5814633"><ele>541.21</ele><time>2026-02-16T19:06:09.000Z</time></trkpt>
        <trkpt lat="28.6192247" lon="104.5814801"><ele>542.7</ele><time>2026-02-16T19:06:15.000Z</time></trkpt>
        <trkpt lat="28.6192354" lon="104.5814431"><ele>542.33</ele><time>2026-02-16T19:06:21.000Z</time></trkpt>
        <trkpt lat="28.6192832" lon="104.581402"><ele>544.79</ele><time>2026-02-16T19:06:27.000Z</time></trkpt>
        <trkpt lat="28.619336" lon="104.5813679"><ele>546.76</ele><time>2026-02-16T19:06:33.000Z</time></trkpt>
        <trkpt lat="28.6193857" lon="104.5813555"><ele>548.15</ele><time>2026-02-16T19:07:03.000Z</time></trkpt>
        <trkpt lat="28.6194426" lon="104.5813481"><ele>548.36</ele><time>2026-02-16T19:07:05.000Z</time></trkpt>
        <trkpt lat="28.6195158" lon="104.5813409"><ele>546.69</ele><time>2026-02-16T19:07:07.000Z</time></trkpt>
        <trkpt lat="28.6196051" lon="104.5813161"><ele>545.02</ele><time>2026-02-16T19:07:09.000Z</time></trkpt>
        <trkpt lat="28.6196909" lon="104.5812896"><ele>544.36</ele><time>2026-02-16T19:07:11.000Z</time></trkpt>
        <trkpt lat="28.619766" lon="104.581268"><ele>544.02</ele><time>2026-02-16T19:07:13.000Z</time></trkpt>
        <trkpt lat="28.6197738" lon="104.5812049"><ele>543.52</ele><time>2026-02-16T19:07:17.000Z</time></trkpt>
        <trkpt lat="28.6197653" lon="104.5811569"><ele>544.23</ele><time>2026-02-16T19:07:21.000Z</time></trkpt>
        <trkpt lat="28.6197515" lon="104.5810763"><ele>544.56</ele><time>2026-02-16T19:07:27.000Z</time></trkpt>
        <trkpt lat="28.6197198" lon="104.5809534"><ele>545.96</ele><time>2026-02-16T19:07:29.000Z</time></trkpt>
        <trkpt lat="28.6196666" lon="104.5808376"><ele>546.08</ele><time>2026-02-16T19:07:31.000Z</time></trkpt>
        <trkpt lat="28.6195925" lon="104.580736"><ele>546.78</ele><time>2026-02-16T19:07:33.000Z</time></trkpt>
        <trkpt lat="28.6195285" lon="104.5806503"><ele>547.05</ele><time>2026-02-16T19:07:35.000Z</time></trkpt>
        <trkpt lat="28.6194687" lon="104.5805671"><ele>545.99</ele><time>2026-02-16T19:07:37.000Z</time></trkpt>
        <trkpt lat="28.6194154" lon="104.580487"><ele>544.78</ele><time>2026-02-16T19:07:39.000Z</time></trkpt>
        <trkpt lat="28.6193594" lon="104.5804159"><ele>541.51</ele><time>2026-02-16T19:07:41.000Z</time></trkpt>
        <trkpt lat="28.6192935" lon="104.5803535"><ele>538.75</ele><time>2026-02-16T19:07:43.000Z</time></trkpt>
        <trkpt lat="28.6192231" lon="104.5803009"><ele>536.76</ele><time>2026-02-16T19:07:45.000Z</time></trkpt>
        <trkpt lat="28.6191578" lon="104.5802593"><ele>535.42</ele><time>2026-02-16T19:07:47.000Z</time></trkpt>
        <trkpt lat="28.6190874" lon="104.5802214"><ele>533.95</ele><time>2026-02-16T19:07:49.000Z</time></trkpt>
        <trkpt lat="28.6190208" lon="104.5801851"><ele>533.09</ele><time>2026-02-16T19:07:51.000Z</time></trkpt>
        <trkpt lat="28.6189718" lon="104.5801504"><ele>532.04</ele><time>2026-02-16T19:07:53.000Z</time></trkpt>
        <trkpt lat="28.6189281" lon="104.5801073"><ele>530.83</ele><time>2026-02-16T19:07:57.000Z</time></trkpt>
        <trkpt lat="28.6189122" lon="104.5800786"><ele>530.45</ele><time>2026-02-16T19:08:01.000Z</time></trkpt>
        <trkpt lat="28.6188708" lon="104.5800335"><ele>530.48</ele><time>2026-02-16T19:08:45.000Z</time></trkpt>
        <trkpt lat="28.6188381" lon="104.5799912"><ele>527.73</ele><time>2026-02-16T19:08:47.000Z</time></trkpt>
        <trkpt lat="28.6188019" lon="104.5799535"><ele>525.43</ele><time>2026-02-16T19:08:49.000Z</time></trkpt>
        <trkpt lat="28.6187631" lon="104.5798969"><ele>523.45</ele><time>2026-02-16T19:08:53.000Z</time></trkpt>
        <trkpt lat="28.6187212" lon="104.5798365"><ele>521.76</ele><time>2026-02-16T19:08:57.000Z</time></trkpt>
        <trkpt lat="28.6186855" lon="104.5797607"><ele>520.19</ele><time>2026-02-16T19:09:01.000Z</time></trkpt>
        <trkpt lat="28.6186461" lon="104.5796987"><ele>519.08</ele><time>2026-02-16T19:09:05.000Z</time></trkpt>
        <trkpt lat="28.6185997" lon="104.5796466"><ele>518.24</ele><time>2026-02-16T19:09:09.000Z</time></trkpt>
        <trkpt lat="28.6185485" lon="104.5796149"><ele>517.39</ele><time>2026-02-16T19:09:13.000Z</time></trkpt>
        <trkpt lat="28.6185023" lon="104.5795739"><ele>516.28</ele><time>2026-02-16T19:09:17.000Z</time></trkpt>
        <trkpt lat="28.6184632" lon="104.5795309"><ele>515.28</ele><time>2026-02-16T19:09:21.000Z</time></trkpt>
        <trkpt lat="28.6184268" lon="104.5794877"><ele>515.25</ele><time>2026-02-16T19:09:25.000Z</time></trkpt>
        <trkpt lat="28.6183912" lon="104.5794446"><ele>514.61</ele><time>2026-02-16T19:09:29.000Z</time></trkpt>
        <trkpt lat="28.6183793" lon="104.5793779"><ele>514.18</ele><time>2026-02-16T19:09:33.000Z</time></trkpt>
        <trkpt lat="28.6183776" lon="104.5793142"><ele>513.96</ele><time>2026-02-16T19:09:37.000Z</time></trkpt>
        <trkpt lat="28.6183944" lon="104.5792589"><ele>513.71</ele><time>2026-02-16T19:09:41.000Z</time></trkpt>
        <trkpt lat="28.6184161" lon="104.5792027"><ele>514.22</ele><time>2026-02-16T19:09:45.000Z</time></trkpt>
        <trkpt lat="28.6184157" lon="104.5791483"><ele>514.9</ele><time>2026-02-16T19:09:49.000Z</time></trkpt>
        <trkpt lat="28.6183975" lon="104.5790951"><ele>515.5</ele><time>2026-02-16T19:09:53.000Z</time></trkpt>
        <trkpt lat="28.6183647" lon="104.5790518"><ele>515.97</ele><time>2026-02-16T19:09:57.000Z</time></trkpt>
        <trkpt lat="28.6183276" lon="104.5789952"><ele>516.23</ele><time>2026-02-16T19:10:01.000Z</time></trkpt>
        <trkpt lat="28.6183003" lon="104.578922"><ele>516.13</ele><time>2026-02-16T19:10:03.000Z</time></trkpt>
        <trkpt lat="28.6182832" lon="104.5788539"><ele>515.5</ele><time>2026-02-16T19:10:05.000Z</time></trkpt>
        <trkpt lat="28.6182687" lon="104.5787754"><ele>515.43</ele><time>2026-02-16T19:10:09.000Z</time></trkpt>
        <trkpt lat="28.618243" lon="104.5787091"><ele>515.74</ele><time>2026-02-16T19:10:13.000Z</time></trkpt>
        <trkpt lat="28.6182157" lon="104.5786506"><ele>515.44</ele><time>2026-02-16T19:10:17.000Z</time></trkpt>
        <trkpt lat="28.6181856" lon="104.5786007"><ele>515.4</ele><time>2026-02-16T19:10:19.000Z</time></trkpt>
        <trkpt lat="28.6181357" lon="104.5785626"><ele>515.23</ele><time>2026-02-16T19:10:21.000Z</time></trkpt>
        <trkpt lat="28.6180775" lon="104.5785381"><ele>515.33</ele><time>2026-02-16T19:10:23.000Z</time></trkpt>
        <trkpt lat="28.6180293" lon="104.5785151"><ele>515.07</ele><time>2026-02-16T19:10:25.000Z</time></trkpt>
        <trkpt lat="28.6179869" lon="104.5784861"><ele>515.07</ele><time>2026-02-16T19:10:27.000Z</time></trkpt>
        <trkpt lat="28.6179423" lon="104.5784647"><ele>513.1</ele><time>2026-02-16T19:10:31.000Z</time></trkpt>
        <trkpt lat="28.6178933" lon="104.5784645"><ele>509.38</ele><time>2026-02-16T19:10:35.000Z</time></trkpt>
        <trkpt lat="28.6178893" lon="104.5784773"><ele>505.78</ele><time>2026-02-16T19:10:39.000Z</time></trkpt>
        <trkpt lat="28.617932" lon="104.578485"><ele>502.44</ele><time>2026-02-16T19:11:14.000Z</time></trkpt>
        <trkpt lat="28.6179599" lon="104.5784805"><ele>500.36</ele><time>2026-02-16T19:11:18.000Z</time></trkpt>
        <trkpt lat="28.6179599" lon="104.5784805"><ele>500.36</ele><time>2026-02-16T19:11:26.000Z</time></trkpt>
        <trkpt lat="28.618028" lon="104.5785015"><ele>499.2</ele><time>2026-02-16T19:11:29.000Z</time></trkpt>
        <trkpt lat="28.618028" lon="104.5785015"><ele>499.2</ele><time>2026-02-16T19:11:34.000Z</time></trkpt>
        <trkpt lat="28.6180489" lon="104.578518"><ele>493.18</ele><time>2026-02-16T19:11:38.000Z</time></trkpt>
        <trkpt lat="28.6180151" lon="104.5785312"><ele>492.75</ele><time>2026-02-16T19:11:50.000Z</time></trkpt>
        <trkpt lat="28.6180151" lon="104.5785312"><ele>492.75</ele><time>2026-02-16T19:12:02.000Z</time></trkpt>
        <trkpt lat="28.6180333" lon="104.5785186"><ele>495.38</ele><time>2026-02-16T19:12:05.000Z</time></trkpt>
        <trkpt lat="28.6180333" lon="104.5785186"><ele>495.38</ele><time>2026-02-16T19:12:11.000Z</time></trkpt>
        <trkpt lat="28.6180609" lon="104.5785412"><ele>500.26</ele><time>2026-02-16T19:12:17.000Z</time></trkpt>
        <trkpt lat="28.6180609" lon="104.5785412"><ele>500.26</ele><time>2026-02-16T19:12:32.000Z</time></trkpt>
        <trkpt lat="28.6180975" lon="104.5785757"><ele>501</ele><time>2026-02-16T19:12:33.000Z</time></trkpt>
        <trkpt lat="28.6180975" lon="104.5785757"><ele>501</ele><time>2026-02-16T19:12:39.000Z</time></trkpt>
        <trkpt lat="28.6181402" lon="104.5786109"><ele>500.87</ele><time>2026-02-16T19:12:43.000Z</time></trkpt>
        <trkpt lat="28.618184" lon="104.578644"><ele>501.98</ele><time>2026-02-16T19:12:47.000Z</time></trkpt>
        <trkpt lat="28.61823" lon="104.5786923"><ele>503.45</ele><time>2026-02-16T19:12:53.000Z</time></trkpt>
        <trkpt lat="28.6182617" lon="104.5787382"><ele>504.94</ele><time>2026-02-16T19:12:57.000Z</time></trkpt>
        <trkpt lat="28.6182791" lon="104.5787602"><ele>505.7</ele><time>2026-02-16T19:13:01.000Z</time></trkpt>
        <trkpt lat="28.6183075" lon="104.5787959"><ele>505.89</ele><time>2026-02-16T19:13:07.000Z</time></trkpt>
        <trkpt lat="28.6183184" lon="104.5788484"><ele>506.54</ele><time>2026-02-16T19:13:11.000Z</time></trkpt>
        <trkpt lat="28.6183341" lon="104.5789071"><ele>507.29</ele><time>2026-02-16T19:13:15.000Z</time></trkpt>
        <trkpt lat="28.6183491" lon="104.578978"><ele>507.91</ele><time>2026-02-16T19:13:19.000Z</time></trkpt>
        <trkpt lat="28.6183634" lon="104.5790415"><ele>508.76</ele><time>2026-02-16T19:13:23.000Z</time></trkpt>
        <trkpt lat="28.6183853" lon="104.5790934"><ele>509.53</ele><time>2026-02-16T19:13:27.000Z</time></trkpt>
        <trkpt lat="28.6184262" lon="104.5791468"><ele>510.01</ele><time>2026-02-16T19:13:35.000Z</time></trkpt>
        <trkpt lat="28.6184501" lon="104.5791964"><ele>511.31</ele><time>2026-02-16T19:13:39.000Z</time></trkpt>
        <trkpt lat="28.6184578" lon="104.5792677"><ele>512.6</ele><time>2026-02-16T19:13:43.000Z</time></trkpt>
        <trkpt lat="28.6184497" lon="104.5793372"><ele>513.18</ele><time>2026-02-16T19:13:47.000Z</time></trkpt>
        <trkpt lat="28.6184419" lon="104.5794011"><ele>513.08</ele><time>2026-02-16T19:13:51.000Z</time></trkpt>
        <trkpt lat="28.6184443" lon="104.5794675"><ele>512.79</ele><time>2026-02-16T19:13:55.000Z</time></trkpt>
        <trkpt lat="28.6184632" lon="104.5795236"><ele>511.59</ele><time>2026-02-16T19:13:59.000Z</time></trkpt>
        <trkpt lat="28.6185124" lon="104.5795675"><ele>511.18</ele><time>2026-02-16T19:14:03.000Z</time></trkpt>
        <trkpt lat="28.6185647" lon="104.5796139"><ele>510.78</ele><time>2026-02-16T19:14:07.000Z</time></trkpt>
        <trkpt lat="28.6186123" lon="104.5796616"><ele>509.93</ele><time>2026-02-16T19:14:11.000Z</time></trkpt>
        <trkpt lat="28.6186562" lon="104.5797113"><ele>508.82</ele><time>2026-02-16T19:14:15.000Z</time></trkpt>
        <trkpt lat="28.6186949" lon="104.5797664"><ele>508.04</ele><time>2026-02-16T19:14:19.000Z</time></trkpt>
        <trkpt lat="28.6187306" lon="104.5798253"><ele>507.86</ele><time>2026-02-16T19:14:23.000Z</time></trkpt>
        <trkpt lat="28.6187617" lon="104.5798846"><ele>507.54</ele><time>2026-02-16T19:14:27.000Z</time></trkpt>
        <trkpt lat="28.6187978" lon="104.5799419"><ele>507.86</ele><time>2026-02-16T19:14:31.000Z</time></trkpt>
        <trkpt lat="28.6188342" lon="104.5799939"><ele>509.24</ele><time>2026-02-16T19:14:35.000Z</time></trkpt>
        <trkpt lat="28.6188761" lon="104.5800415"><ele>510.03</ele><time>2026-02-16T19:14:39.000Z</time></trkpt>
        <trkpt lat="28.6189116" lon="104.5800878"><ele>510.54</ele><time>2026-02-16T19:14:43.000Z</time></trkpt>
        <trkpt lat="28.6189455" lon="104.5801263"><ele>511.17</ele><time>2026-02-16T19:14:47.000Z</time></trkpt>
        <trkpt lat="28.6189849" lon="104.5801675"><ele>512.47</ele><time>2026-02-16T19:14:53.000Z</time></trkpt>
        <trkpt lat="28.6190256" lon="104.5802103"><ele>513.47</ele><time>2026-02-16T19:14:59.000Z</time></trkpt>
        <trkpt lat="28.6190668" lon="104.5802495"><ele>514.56</ele><time>2026-02-16T19:15:07.000Z</time></trkpt>
        <trkpt lat="28.6191134" lon="104.5802741"><ele>515.75</ele><time>2026-02-16T19:15:17.000Z</time></trkpt>
        <trkpt lat="28.6191617" lon="104.5803041"><ele>516.57</ele><time>2026-02-16T19:15:23.000Z</time></trkpt>
        <trkpt lat="28.6192071" lon="104.5803323"><ele>517.24</ele><time>2026-02-16T19:15:27.000Z</time></trkpt>
        <trkpt lat="28.6192475" lon="104.5803586"><ele>517.29</ele><time>2026-02-16T19:15:31.000Z</time></trkpt>
        <trkpt lat="28.6192873" lon="104.5803844"><ele>517.75</ele><time>2026-02-16T19:15:35.000Z</time></trkpt>
        <trkpt lat="28.619337" lon="104.5804162"><ele>519.1</ele><time>2026-02-16T19:15:39.000Z</time></trkpt>
        <trkpt lat="28.6193815" lon="104.5804459"><ele>519.26</ele><time>2026-02-16T19:15:43.000Z</time></trkpt>
        <trkpt lat="28.6194292" lon="104.5804747"><ele>519.34</ele><time>2026-02-16T19:15:47.000Z</time></trkpt>
        <trkpt lat="28.6194773" lon="104.5805182"><ele>519.73</ele><time>2026-02-16T19:15:53.000Z</time></trkpt>
        <trkpt lat="28.6195205" lon="104.5805533"><ele>519.87</ele><time>2026-02-16T19:15:57.000Z</time></trkpt>
        <trkpt lat="28.6195573" lon="104.5805926"><ele>520.39</ele><time>2026-02-16T19:16:01.000Z</time></trkpt>
        <trkpt lat="28.6195933" lon="104.5806275"><ele>520.81</ele><time>2026-02-16T19:16:05.000Z</time></trkpt>
        <trkpt lat="28.6196303" lon="104.5806618"><ele>521.16</ele><time>2026-02-16T19:16:09.000Z</time></trkpt>
        <trkpt lat="28.6196605" lon="104.5807008"><ele>521.82</ele><time>2026-02-16T19:16:13.000Z</time></trkpt>
        <trkpt lat="28.6196989" lon="104.5807526"><ele>522.6</ele><time>2026-02-16T19:16:19.000Z</time></trkpt>
        <trkpt lat="28.6197404" lon="104.5807991"><ele>523.88</ele><time>2026-02-16T19:16:23.000Z</time></trkpt>
        <trkpt lat="28.6197918" lon="104.5808298"><ele>524.61</ele><time>2026-02-16T19:16:29.000Z</time></trkpt>
        <trkpt lat="28.619827" lon="104.5808688"><ele>525.9</ele><time>2026-02-16T19:16:35.000Z</time></trkpt>
        <trkpt lat="28.6198612" lon="104.5809111"><ele>528.02</ele><time>2026-02-16T19:16:51.000Z</time></trkpt>
        <trkpt lat="28.6199005" lon="104.5809576"><ele>532.91</ele><time>2026-02-16T19:16:57.000Z</time></trkpt>
        <trkpt lat="28.61994" lon="104.5809988"><ele>536.03</ele><time>2026-02-16T19:17:01.000Z</time></trkpt>
        <trkpt lat="28.6199671" lon="104.5810593"><ele>538.3</ele><time>2026-02-16T19:17:13.000Z</time></trkpt>
        <trkpt lat="28.6199867" lon="104.5811126"><ele>540.08</ele><time>2026-02-16T19:17:19.000Z</time></trkpt>
        <trkpt lat="28.6200072" lon="104.5811629"><ele>541.82</ele><time>2026-02-16T19:17:35.000Z</time></trkpt>
        <trkpt lat="28.6200347" lon="104.5812156"><ele>543.4</ele><time>2026-02-16T19:17:41.000Z</time></trkpt>
        <trkpt lat="28.6200526" lon="104.5812494"><ele>545.05</ele><time>2026-02-16T19:17:45.000Z</time></trkpt>
        <trkpt lat="28.6200593" lon="104.5813017"><ele>546.47</ele><time>2026-02-16T19:17:59.000Z</time></trkpt>
        <trkpt lat="28.620069" lon="104.5813582"><ele>547.72</ele><time>2026-02-16T19:18:09.000Z</time></trkpt>
        <trkpt lat="28.6200812" lon="104.5814253"><ele>548.69</ele><time>2026-02-16T19:18:23.000Z</time></trkpt>
        <trkpt lat="28.6200596" lon="104.5814774"><ele>550.25</ele><time>2026-02-16T19:18:39.000Z</time></trkpt>
        <trkpt lat="28.6200623" lon="104.5815346"><ele>552.13</ele><time>2026-02-16T19:18:55.000Z</time></trkpt>
        <trkpt lat="28.6200943" lon="104.5815833"><ele>554.56</ele><time>2026-02-16T19:18:59.000Z</time></trkpt>
        <trkpt lat="28.6200705" lon="104.581622"><ele>556.07</ele><time>2026-02-16T19:19:07.000Z</time></trkpt>
        <trkpt lat="28.6200183" lon="104.5816352"><ele>559.43</ele><time>2026-02-16T19:19:13.000Z</time></trkpt>
        <trkpt lat="28.6199629" lon="104.5816447"><ele>563.83</ele><time>2026-02-16T19:19:19.000Z</time></trkpt>
        <trkpt lat="28.6199086" lon="104.5816806"><ele>566.89</ele><time>2026-02-16T19:19:25.000Z</time></trkpt>
        <trkpt lat="28.6198648" lon="104.5817175"><ele>568.94</ele><time>2026-02-16T19:19:31.000Z</time></trkpt>
        <trkpt lat="28.6198091" lon="104.5817371"><ele>570.74</ele><time>2026-02-16T19:19:39.000Z</time></trkpt>
        <trkpt lat="28.6197553" lon="104.5817581"><ele>573.17</ele><time>2026-02-16T19:19:45.000Z</time></trkpt>
        <trkpt lat="28.6197025" lon="104.5817835"><ele>574.63</ele><time>2026-02-16T19:19:51.000Z</time></trkpt>
        <trkpt lat="28.6196608" lon="104.5818351"><ele>576.2</ele><time>2026-02-16T19:19:57.000Z</time></trkpt>
        <trkpt lat="28.6196206" lon="104.5818678"><ele>578.36</ele><time>2026-02-16T19:20:01.000Z</time></trkpt>
        <trkpt lat="28.6195764" lon="104.5818997"><ele>579.6</ele><time>2026-02-16T19:20:07.000Z</time></trkpt>
        <trkpt lat="28.6196093" lon="104.5819342"><ele>580.65</ele><time>2026-02-16T19:20:15.000Z</time></trkpt>
        <trkpt lat="28.6196511" lon="104.5819856"><ele>579.02</ele><time>2026-02-16T19:20:23.000Z</time></trkpt>
        <trkpt lat="28.6196948" lon="104.5820397"><ele>578.17</ele><time>2026-02-16T19:20:29.000Z</time></trkpt>
        <trkpt lat="28.6197185" lon="104.5820946"><ele>578.21</ele><time>2026-02-16T19:20:35.000Z</time></trkpt>
        <trkpt lat="28.6197439" lon="104.5821414"><ele>577.63</ele><time>2026-02-16T19:20:41.000Z</time></trkpt>
        <trkpt lat="28.6197745" lon="104.5821796"><ele>577.51</ele><time>2026-02-16T19:20:47.000Z</time></trkpt>
        <trkpt lat="28.619816" lon="104.582212"><ele>577.67</ele><time>2026-02-16T19:20:51.000Z</time></trkpt>
        <trkpt lat="28.6198707" lon="104.5822411"><ele>578.88</ele><time>2026-02-16T19:20:57.000Z</time></trkpt>
        <trkpt lat="28.6199228" lon="104.58228"><ele>579.91</ele><time>2026-02-16T19:21:01.000Z</time></trkpt>
        <trkpt lat="28.6199704" lon="104.5823288"><ele>580.84</ele><time>2026-02-16T19:21:06.000Z</time></trkpt>
        <trkpt lat="28.6199913" lon="104.5823806"><ele>581.6</ele><time>2026-02-16T19:21:12.000Z</time></trkpt>
        <trkpt lat="28.6200016" lon="104.5824355"><ele>581.18</ele><time>2026-02-16T19:21:16.000Z</time></trkpt>
        <trkpt lat="28.620009" lon="104.5824967"><ele>581.57</ele><time>2026-02-16T19:21:22.000Z</time></trkpt>
        <trkpt lat="28.6200064" lon="104.5825699"><ele>581.35</ele><time>2026-02-16T19:21:28.000Z</time></trkpt>
        <trkpt lat="28.619992" lon="104.5826277"><ele>583.03</ele><time>2026-02-16T19:21:32.000Z</time></trkpt>
        <trkpt lat="28.6199371" lon="104.5826821"><ele>585.26</ele><time>2026-02-16T19:21:36.000Z</time></trkpt>
        <trkpt lat="28.6198861" lon="104.5827101"><ele>588.77</ele><time>2026-02-16T19:21:38.000Z</time></trkpt>
        <trkpt lat="28.6198183" lon="104.5827228"><ele>591.86</ele><time>2026-02-16T19:21:40.000Z</time></trkpt>
        <trkpt lat="28.6197535" lon="104.5827275"><ele>593.67</ele><time>2026-02-16T19:21:42.000Z</time></trkpt>
        <trkpt lat="28.6196896" lon="104.5827353"><ele>595.04</ele><time>2026-02-16T19:21:46.000Z</time></trkpt>
        <trkpt lat="28.6196243" lon="104.5827464"><ele>595.76</ele><time>2026-02-16T19:21:50.000Z</time></trkpt>
        <trkpt lat="28.6195772" lon="104.5827839"><ele>595.65</ele><time>2026-02-16T19:21:54.000Z</time></trkpt>
        <trkpt lat="28.6195451" lon="104.5828355"><ele>594.12</ele><time>2026-02-16T19:21:58.000Z</time></trkpt>
        <trkpt lat="28.6195574" lon="104.5829156"><ele>593.21</ele><time>2026-02-16T19:22:02.000Z</time></trkpt>
        <trkpt lat="28.6195848" lon="104.5829646"><ele>590.79</ele><time>2026-02-16T19:22:06.000Z</time></trkpt>
        <trkpt lat="28.6196364" lon="104.5829722"><ele>588.39</ele><time>2026-02-16T19:22:14.000Z</time></trkpt>
        <trkpt lat="28.6196753" lon="104.5830002"><ele>588.17</ele><time>2026-02-16T19:22:18.000Z</time></trkpt>
        <trkpt lat="28.6197186" lon="104.5829855"><ele>588.62</ele><time>2026-02-16T19:22:24.000Z</time></trkpt>
        <trkpt lat="28.6197122" lon="104.5830089"><ele>591.11</ele><time>2026-02-16T19:22:44.000Z</time></trkpt>
        <trkpt lat="28.6196691" lon="104.5829856"><ele>591.16</ele><time>2026-02-16T19:22:50.000Z</time></trkpt>
        <trkpt lat="28.6196243" lon="104.5830098"><ele>590.79</ele><time>2026-02-16T19:22:54.000Z</time></trkpt>
        <trkpt lat="28.6196303" lon="104.5830715"><ele>591.06</ele><time>2026-02-16T19:22:58.000Z</time></trkpt>
        <trkpt lat="28.619651" lon="104.5831331"><ele>590.48</ele><time>2026-02-16T19:23:02.000Z</time></trkpt>
        <trkpt lat="28.6196783" lon="104.5831935"><ele>590.03</ele><time>2026-02-16T19:23:08.000Z</time></trkpt>
        <trkpt lat="28.6197092" lon="104.5832454"><ele>586.86</ele><time>2026-02-16T19:23:12.000Z</time></trkpt>
        <trkpt lat="28.6197196" lon="104.5832981"><ele>584.22</ele><time>2026-02-16T19:23:16.000Z</time></trkpt>
        <trkpt lat="28.6197164" lon="104.5833076"><ele>583.18</ele><time>2026-02-16T19:23:18.000Z</time></trkpt>
        <trkpt lat="28.619721" lon="104.5833583"><ele>582.39</ele><time>2026-02-16T19:23:24.000Z</time></trkpt>
        <trkpt lat="28.6197467" lon="104.5834052"><ele>581.68</ele><time>2026-02-16T19:23:28.000Z</time></trkpt>
        <trkpt lat="28.6197986" lon="104.5834477"><ele>581.29</ele><time>2026-02-16T19:23:32.000Z</time></trkpt>
        <trkpt lat="28.619858" lon="104.5834931"><ele>581.03</ele><time>2026-02-16T19:23:36.000Z</time></trkpt>
        <trkpt lat="28.6199227" lon="104.5835293"><ele>581.83</ele><time>2026-02-16T19:23:40.000Z</time></trkpt>
        <trkpt lat="28.6199868" lon="104.5835363"><ele>583.08</ele><time>2026-02-16T19:23:44.000Z</time></trkpt>
        <trkpt lat="28.6200108" lon="104.5835282"><ele>584.1</ele><time>2026-02-16T19:23:46.000Z</time></trkpt>
        <trkpt lat="28.6200612" lon="104.5835359"><ele>585.15</ele><time>2026-02-16T19:23:56.000Z</time></trkpt>
        <trkpt lat="28.6201128" lon="104.583545"><ele>585.81</ele><time>2026-02-16T19:24:00.000Z</time></trkpt>
        <trkpt lat="28.6201573" lon="104.5835684"><ele>585.74</ele><time>2026-02-16T19:24:04.000Z</time></trkpt>
        <trkpt lat="28.6201564" lon="104.583626"><ele>585.85</ele><time>2026-02-16T19:24:10.000Z</time></trkpt>
        <trkpt lat="28.6201232" lon="104.5836877"><ele>586.45</ele><time>2026-02-16T19:24:14.000Z</time></trkpt>
        <trkpt lat="28.6200863" lon="104.5837533"><ele>587.47</ele><time>2026-02-16T19:24:18.000Z</time></trkpt>
        <trkpt lat="28.6200677" lon="104.5838112"><ele>588.99</ele><time>2026-02-16T19:24:22.000Z</time></trkpt>
        <trkpt lat="28.6200618" lon="104.5838701"><ele>590.07</ele><time>2026-02-16T19:24:26.000Z</time></trkpt>
        <trkpt lat="28.6200884" lon="104.5839356"><ele>592</ele><time>2026-02-16T19:24:32.000Z</time></trkpt>
        <trkpt lat="28.620128" lon="104.5839758"><ele>593.75</ele><time>2026-02-16T19:24:38.000Z</time></trkpt>
        <trkpt lat="28.6201657" lon="104.5839515"><ele>594.72</ele><time>2026-02-16T19:24:44.000Z</time></trkpt>
        <trkpt lat="28.6202067" lon="104.5839026"><ele>595.74</ele><time>2026-02-16T19:24:48.000Z</time></trkpt>
        <trkpt lat="28.6202543" lon="104.583905"><ele>596.49</ele><time>2026-02-16T19:24:54.000Z</time></trkpt>
        <trkpt lat="28.6202868" lon="104.5839516"><ele>596.79</ele><time>2026-02-16T19:25:00.000Z</time></trkpt>
        <trkpt lat="28.6203131" lon="104.5840046"><ele>596.75</ele><time>2026-02-16T19:25:04.000Z</time></trkpt>
        <trkpt lat="28.6203323" lon="104.5840645"><ele>596.73</ele><time>2026-02-16T19:25:08.000Z</time></trkpt>
        <trkpt lat="28.6203586" lon="104.5841293"><ele>597.05</ele><time>2026-02-16T19:25:12.000Z</time></trkpt>
        <trkpt lat="28.6203993" lon="104.5841743"><ele>597.29</ele><time>2026-02-16T19:25:16.000Z</time></trkpt>
        <trkpt lat="28.6204425" lon="104.5841599"><ele>597.55</ele><time>2026-02-16T19:25:20.000Z</time></trkpt>
        <trkpt lat="28.6204917" lon="104.5841393"><ele>597.46</ele><time>2026-02-16T19:25:24.000Z</time></trkpt>
        <trkpt lat="28.6205418" lon="104.5841615"><ele>597.15</ele><time>2026-02-16T19:25:28.000Z</time></trkpt>
        <trkpt lat="28.6205958" lon="104.58417"><ele>596.9</ele><time>2026-02-16T19:25:32.000Z</time></trkpt>
        <trkpt lat="28.6206499" lon="104.5841552"><ele>597.19</ele><time>2026-02-16T19:25:36.000Z</time></trkpt>
        <trkpt lat="28.620696" lon="104.5841252"><ele>597.59</ele><time>2026-02-16T19:25:40.000Z</time></trkpt>
        <trkpt lat="28.620745" lon="104.5841172"><ele>598.68</ele><time>2026-02-16T19:25:44.000Z</time></trkpt>
        <trkpt lat="28.6207943" lon="104.5841311"><ele>598.65</ele><time>2026-02-16T19:25:48.000Z</time></trkpt>
        <trkpt lat="28.6208278" lon="104.5841702"><ele>597.22</ele><time>2026-02-16T19:25:52.000Z</time></trkpt>
        <trkpt lat="28.6208699" lon="104.5842123"><ele>596.14</ele><time>2026-02-16T19:25:56.000Z</time></trkpt>
        <trkpt lat="28.6209266" lon="104.5842552"><ele>594.99</ele><time>2026-02-16T19:26:00.000Z</time></trkpt>
        <trkpt lat="28.6209861" lon="104.5842886"><ele>593.81</ele><time>2026-02-16T19:26:04.000Z</time></trkpt>
        <trkpt lat="28.6210539" lon="104.5843157"><ele>592.89</ele><time>2026-02-16T19:26:10.000Z</time></trkpt>
        <trkpt lat="28.6210833" lon="104.5843336"><ele>592.28</ele><time>2026-02-16T19:26:12.000Z</time></trkpt>
        <trkpt lat="28.6211229" lon="104.5843531"><ele>592.4</ele><time>2026-02-16T19:26:18.000Z</time></trkpt>
        <trkpt lat="28.621173" lon="104.5843443"><ele>592.88</ele><time>2026-02-16T19:26:22.000Z</time></trkpt>
        <trkpt lat="28.6212208" lon="104.5843124"><ele>593.1</ele><time>2026-02-16T19:26:26.000Z</time></trkpt>
        <trkpt lat="28.6212627" lon="104.5842635"><ele>593.15</ele><time>2026-02-16T19:26:30.000Z</time></trkpt>
        <trkpt lat="28.6213068" lon="104.5842162"><ele>593.18</ele><time>2026-02-16T19:26:34.000Z</time></trkpt>
        <trkpt lat="28.6213488" lon="104.5841727"><ele>593.29</ele><time>2026-02-16T19:26:38.000Z</time></trkpt>
        <trkpt lat="28.6213882" lon="104.5841356"><ele>593.64</ele><time>2026-02-16T19:26:42.000Z</time></trkpt>
        <trkpt lat="28.6214341" lon="104.5841081"><ele>594.44</ele><time>2026-02-16T19:26:46.000Z</time></trkpt>
        <trkpt lat="28.6214493" lon="104.5841175"><ele>596.08</ele><time>2026-02-16T19:26:48.000Z</time></trkpt>
        <trkpt lat="28.6214943" lon="104.5840961"><ele>596.95</ele><time>2026-02-16T19:26:54.000Z</time></trkpt>
        <trkpt lat="28.6215429" lon="104.5841087"><ele>597.22</ele><time>2026-02-16T19:26:58.000Z</time></trkpt>
        <trkpt lat="28.621561" lon="104.5841551"><ele>597.67</ele><time>2026-02-16T19:27:02.000Z</time></trkpt>
        <trkpt lat="28.6215494" lon="104.5842129"><ele>599.17</ele><time>2026-02-16T19:27:06.000Z</time></trkpt>
        <trkpt lat="28.6215413" lon="104.5842778"><ele>600.82</ele><time>2026-02-16T19:27:10.000Z</time></trkpt>
        <trkpt lat="28.6215512" lon="104.5843418"><ele>602.46</ele><time>2026-02-16T19:27:14.000Z</time></trkpt>
        <trkpt lat="28.6215756" lon="104.5843951"><ele>603.65</ele><time>2026-02-16T19:27:18.000Z</time></trkpt>
        <trkpt lat="28.6215979" lon="104.5844464"><ele>603.11</ele><time>2026-02-16T19:27:22.000Z</time></trkpt>
        <trkpt lat="28.6216369" lon="104.5844893"><ele>602.57</ele><time>2026-02-16T19:27:26.000Z</time></trkpt>
        <trkpt lat="28.6216778" lon="104.5845245"><ele>601.97</ele><time>2026-02-16T19:27:30.000Z</time></trkpt>
        <trkpt lat="28.6217216" lon="104.5845595"><ele>601.54</ele><time>2026-02-16T19:27:34.000Z</time></trkpt>
        <trkpt lat="28.6217682" lon="104.5845933"><ele>601.41</ele><time>2026-02-16T19:27:38.000Z</time></trkpt>
        <trkpt lat="28.6218192" lon="104.5846136"><ele>601.3</ele><time>2026-02-16T19:27:42.000Z</time></trkpt>
        <trkpt lat="28.6218708" lon="104.5846164"><ele>601.46</ele><time>2026-02-16T19:27:46.000Z</time></trkpt>
        <trkpt lat="28.6219194" lon="104.5845999"><ele>601.94</ele><time>2026-02-16T19:27:50.000Z</time></trkpt>
        <trkpt lat="28.6219625" lon="104.58457"><ele>602.68</ele><time>2026-02-16T19:27:54.000Z</time></trkpt>
        <trkpt lat="28.6219942" lon="104.5845136"><ele>603.17</ele><time>2026-02-16T19:28:00.000Z</time></trkpt>
        <trkpt lat="28.6219555" lon="104.5845062"><ele>603.58</ele><time>2026-02-16T19:28:04.000Z</time></trkpt>
        <trkpt lat="28.621936" lon="104.5845462"><ele>602.98</ele><time>2026-02-16T19:28:06.000Z</time></trkpt>
        <trkpt lat="28.6219466" lon="104.584596"><ele>602.49</ele><time>2026-02-16T19:28:10.000Z</time></trkpt>
        <trkpt lat="28.6219514" lon="104.5845508"><ele>603.43</ele><time>2026-02-16T19:28:16.000Z</time></trkpt>
        <trkpt lat="28.6219675" lon="104.5844961"><ele>604.46</ele><time>2026-02-16T19:28:20.000Z</time></trkpt>
        <trkpt lat="28.621979" lon="104.5844362"><ele>605.45</ele><time>2026-02-16T19:28:24.000Z</time></trkpt>
        <trkpt lat="28.6219762" lon="104.5843735"><ele>606.52</ele><time>2026-02-16T19:28:28.000Z</time></trkpt>
        <trkpt lat="28.6219537" lon="104.5843021"><ele>608.15</ele><time>2026-02-16T19:28:34.000Z</time></trkpt>
        <trkpt lat="28.6219268" lon="104.5842472"><ele>609.82</ele><time>2026-02-16T19:28:38.000Z</time></trkpt>
        <trkpt lat="28.6218963" lon="104.5842005"><ele>610.38</ele><time>2026-02-16T19:28:42.000Z</time></trkpt>
        <trkpt lat="28.6218628" lon="104.584147"><ele>611.06</ele><time>2026-02-16T19:28:46.000Z</time></trkpt>
        <trkpt lat="28.6218555" lon="104.5840854"><ele>611.77</ele><time>2026-02-16T19:28:52.000Z</time></trkpt>
        <trkpt lat="28.6218735" lon="104.5840197"><ele>613.05</ele><time>2026-02-16T19:28:58.000Z</time></trkpt>
        <trkpt lat="28.6219057" lon="104.5839661"><ele>614.07</ele><time>2026-02-16T19:29:04.000Z</time></trkpt>
        <trkpt lat="28.6219603" lon="104.5839334"><ele>615.51</ele><time>2026-02-16T19:29:16.000Z</time></trkpt>
        <trkpt lat="28.6220185" lon="104.5839171"><ele>617.06</ele><time>2026-02-16T19:29:24.000Z</time></trkpt>
        <trkpt lat="28.62207" lon="104.5839004"><ele>620.1</ele><time>2026-02-16T19:29:30.000Z</time></trkpt>
        <trkpt lat="28.6221089" lon="104.5838665"><ele>622.18</ele><time>2026-02-16T19:29:42.000Z</time></trkpt>
        <trkpt lat="28.622156" lon="104.5838193"><ele>624.37</ele><time>2026-02-16T19:29:52.000Z</time></trkpt>
        <trkpt lat="28.622155" lon="104.583789"><ele>625.48</ele><time>2026-02-16T19:29:56.000Z</time></trkpt>
        <trkpt lat="28.622183" lon="104.5837934"><ele>626.96</ele><time>2026-02-16T19:30:08.000Z</time></trkpt>
        <trkpt lat="28.6222316" lon="104.5837827"><ele>626.98</ele><time>2026-02-16T19:30:14.000Z</time></trkpt>
        <trkpt lat="28.6222738" lon="104.5837919"><ele>627.01</ele><time>2026-02-16T19:30:20.000Z</time></trkpt>
        <trkpt lat="28.6223345" lon="104.5837882"><ele>626.91</ele><time>2026-02-16T19:30:44.000Z</time></trkpt>
        <trkpt lat="28.622381" lon="104.5837602"><ele>627.04</ele><time>2026-02-16T19:30:48.000Z</time></trkpt>
        <trkpt lat="28.622425" lon="104.5837308"><ele>627.32</ele><time>2026-02-16T19:30:52.000Z</time></trkpt>
        <trkpt lat="28.6224864" lon="104.5837081"><ele>627.51</ele><time>2026-02-16T19:30:58.000Z</time></trkpt>
        <trkpt lat="28.6225339" lon="104.5836818"><ele>627.61</ele><time>2026-02-16T19:31:02.000Z</time></trkpt>
        <trkpt lat="28.6225788" lon="104.5836536"><ele>627.7</ele><time>2026-02-16T19:31:06.000Z</time></trkpt>
        <trkpt lat="28.6226258" lon="104.5836266"><ele>627.86</ele><time>2026-02-16T19:31:10.000Z</time></trkpt>
        <trkpt lat="28.6226671" lon="104.5835849"><ele>627.85</ele><time>2026-02-16T19:31:14.000Z</time></trkpt>
        <trkpt lat="28.6227085" lon="104.5835469"><ele>627.72</ele><time>2026-02-16T19:31:18.000Z</time></trkpt>
        <trkpt lat="28.6227538" lon="104.5835079"><ele>627.3</ele><time>2026-02-16T19:31:22.000Z</time></trkpt>
        <trkpt lat="28.6228123" lon="104.5834695"><ele>627.06</ele><time>2026-02-16T19:31:27.000Z</time></trkpt>
        <trkpt lat="28.6228408" lon="104.5834577"><ele>627.09</ele><time>2026-02-16T19:31:31.000Z</time></trkpt>
        <trkpt lat="28.6228663" lon="104.5834246"><ele>627.19</ele><time>2026-02-16T19:31:39.000Z</time></trkpt>
        <trkpt lat="28.6229089" lon="104.5833839"><ele>627.23</ele><time>2026-02-16T19:31:43.000Z</time></trkpt>
        <trkpt lat="28.6229487" lon="104.5833392"><ele>627.25</ele><time>2026-02-16T19:31:47.000Z</time></trkpt>
        <trkpt lat="28.6229792" lon="104.5832961"><ele>627.34</ele><time>2026-02-16T19:31:51.000Z</time></trkpt>
        <trkpt lat="28.6229944" lon="104.5832393"><ele>627.46</ele><time>2026-02-16T19:31:55.000Z</time></trkpt>
        <trkpt lat="28.6230005" lon="104.5831717"><ele>627.36</ele><time>2026-02-16T19:31:59.000Z</time></trkpt>
        <trkpt lat="28.6229787" lon="104.58314"><ele>627.32</ele><time>2026-02-16T19:32:03.000Z</time></trkpt>
        <trkpt lat="28.6230027" lon="104.5831267"><ele>627.75</ele><time>2026-02-16T19:32:09.000Z</time></trkpt>
        <trkpt lat="28.6230027" lon="104.5831267"><ele>627.75</ele><time>2026-02-16T19:32:24.000Z</time></trkpt>
        <trkpt lat="28.6230431" lon="104.5831563"><ele>627.78</ele><time>2026-02-16T19:32:27.000Z</time></trkpt>
        <trkpt lat="28.6230431" lon="104.5831563"><ele>627.78</ele><time>2026-02-16T19:32:40.000Z</time></trkpt>
        <trkpt lat="28.6230874" lon="104.5832072"><ele>628.99</ele><time>2026-02-16T19:32:44.000Z</time></trkpt>
        <trkpt lat="28.6230924" lon="104.5832831"><ele>629.46</ele><time>2026-02-16T19:32:48.000Z</time></trkpt>
        <trkpt lat="28.6230831" lon="104.5833577"><ele>629.56</ele><time>2026-02-16T19:32:52.000Z</time></trkpt>
        <trkpt lat="28.623074" lon="104.5834314"><ele>629.6</ele><time>2026-02-16T19:32:56.000Z</time></trkpt>
        <trkpt lat="28.6230723" lon="104.5835022"><ele>629.17</ele><time>2026-02-16T19:33:00.000Z</time></trkpt>
        <trkpt lat="28.6230752" lon="104.5835688"><ele>628.3</ele><time>2026-02-16T19:33:04.000Z</time></trkpt>
        <trkpt lat="28.6230668" lon="104.583631"><ele>627.4</ele><time>2026-02-16T19:33:08.000Z</time></trkpt>
        <trkpt lat="28.6230552" lon="104.583691"><ele>626.78</ele><time>2026-02-16T19:33:14.000Z</time></trkpt>
        <trkpt lat="28.6230394" lon="104.5837438"><ele>626.32</ele><time>2026-02-16T19:33:18.000Z</time></trkpt>
        <trkpt lat="28.6230279" lon="104.5837999"><ele>626.01</ele><time>2026-02-16T19:33:22.000Z</time></trkpt>
        <trkpt lat="28.6230323" lon="104.5838595"><ele>625.44</ele><time>2026-02-16T19:33:26.000Z</time></trkpt>
        <trkpt lat="28.6230495" lon="104.5839214"><ele>624.39</ele><time>2026-02-16T19:33:30.000Z</time></trkpt>
        <trkpt lat="28.6230811" lon="104.5839791"><ele>623.11</ele><time>2026-02-16T19:33:34.000Z</time></trkpt>
        <trkpt lat="28.623119" lon="104.5840387"><ele>621.87</ele><time>2026-02-16T19:33:38.000Z</time></trkpt>
        <trkpt lat="28.6231599" lon="104.584091"><ele>620.87</ele><time>2026-02-16T19:33:42.000Z</time></trkpt>
        <trkpt lat="28.623202" lon="104.5841459"><ele>619.82</ele><time>2026-02-16T19:33:46.000Z</time></trkpt>
        <trkpt lat="28.6232195" lon="104.584228"><ele>619.03</ele><time>2026-02-16T19:33:50.000Z</time></trkpt>
        <trkpt lat="28.6232289" lon="104.5843065"><ele>617.96</ele><time>2026-02-16T19:33:54.000Z</time></trkpt>
        <trkpt lat="28.6232347" lon="104.5843761"><ele>616.61</ele><time>2026-02-16T19:33:58.000Z</time></trkpt>
        <trkpt lat="28.623237" lon="104.584386"><ele>616.32</ele><time>2026-02-16T19:34:00.000Z</time></trkpt>
        <trkpt lat="28.6232258" lon="104.5844231"><ele>616.03</ele><time>2026-02-16T19:34:06.000Z</time></trkpt>
        <trkpt lat="28.6232219" lon="104.5844842"><ele>614.7</ele><time>2026-02-16T19:34:10.000Z</time></trkpt>
        <trkpt lat="28.6232258" lon="104.5845505"><ele>612.73</ele><time>2026-02-16T19:34:14.000Z</time></trkpt>
        <trkpt lat="28.6232471" lon="104.5846058"><ele>610.67</ele><time>2026-02-16T19:34:18.000Z</time></trkpt>
        <trkpt lat="28.6232733" lon="104.5846567"><ele>609.3</ele><time>2026-02-16T19:34:22.000Z</time></trkpt>
        <trkpt lat="28.6233034" lon="104.5847033"><ele>608.14</ele><time>2026-02-16T19:34:26.000Z</time></trkpt>
        <trkpt lat="28.6233435" lon="104.5847428"><ele>607.04</ele><time>2026-02-16T19:34:30.000Z</time></trkpt>
        <trkpt lat="28.6233898" lon="104.5847744"><ele>605.83</ele><time>2026-02-16T19:34:34.000Z</time></trkpt>
        <trkpt lat="28.6234384" lon="104.584812"><ele>604.69</ele><time>2026-02-16T19:34:38.000Z</time></trkpt>
        <trkpt lat="28.6234819" lon="104.5848557"><ele>602.77</ele><time>2026-02-16T19:34:42.000Z</time></trkpt>
        <trkpt lat="28.6235182" lon="104.5849017"><ele>601.35</ele><time>2026-02-16T19:34:46.000Z</time></trkpt>
        <trkpt lat="28.6235567" lon="104.5849422"><ele>600.46</ele><time>2026-02-16T19:34:50.000Z</time></trkpt>
        <trkpt lat="28.6235926" lon="104.5849834"><ele>599.63</ele><time>2026-02-16T19:34:54.000Z</time></trkpt>
        <trkpt lat="28.6236228" lon="104.5850338"><ele>598.53</ele><time>2026-02-16T19:34:58.000Z</time></trkpt>
        <trkpt lat="28.623636" lon="104.5850953"><ele>597.16</ele><time>2026-02-16T19:35:02.000Z</time></trkpt>
        <trkpt lat="28.6236254" lon="104.5851604"><ele>596.15</ele><time>2026-02-16T19:35:06.000Z</time></trkpt>
        <trkpt lat="28.6235985" lon="104.5852141"><ele>595.88</ele><time>2026-02-16T19:35:10.000Z</time></trkpt>
        <trkpt lat="28.6236017" lon="104.5852433"><ele>595.34</ele><time>2026-02-16T19:35:16.000Z</time></trkpt>
        <trkpt lat="28.6236017" lon="104.5852433"><ele>595.34</ele><time>2026-02-16T19:35:52.000Z</time></trkpt>
        <trkpt lat="28.6235441" lon="104.5853032"><ele>594.74</ele><time>2026-02-16T19:36:01.000Z</time></trkpt>
        <trkpt lat="28.6235441" lon="104.5853032"><ele>594.74</ele><time>2026-02-16T19:36:36.000Z</time></trkpt>
        <trkpt lat="28.6235124" lon="104.5853495"><ele>593.79</ele><time>2026-02-16T19:36:40.000Z</time></trkpt>
        <trkpt lat="28.6234925" lon="104.5854027"><ele>592.96</ele><time>2026-02-16T19:36:44.000Z</time></trkpt>
        <trkpt lat="28.6234894" lon="104.5854228"><ele>592.07</ele><time>2026-02-16T19:36:46.000Z</time></trkpt>
        <trkpt lat="28.6234894" lon="104.5854805"><ele>591.26</ele><time>2026-02-16T19:36:58.000Z</time></trkpt>
        <trkpt lat="28.6234987" lon="104.58552"><ele>589.72</ele><time>2026-02-16T19:37:02.000Z</time></trkpt>
        <trkpt lat="28.6235002" lon="104.5855748"><ele>588.78</ele><time>2026-02-16T19:37:20.000Z</time></trkpt>
        <trkpt lat="28.6234895" lon="104.5856453"><ele>587.87</ele><time>2026-02-16T19:37:24.000Z</time></trkpt>
        <trkpt lat="28.6234914" lon="104.58576"><ele>586.85</ele><time>2026-02-16T19:37:28.000Z</time></trkpt>
        <trkpt lat="28.6235184" lon="104.5858319"><ele>586.61</ele><time>2026-02-16T19:37:30.000Z</time></trkpt>
        <trkpt lat="28.6235559" lon="104.5858188"><ele>586.53</ele><time>2026-02-16T19:37:32.000Z</time></trkpt>
        <trkpt lat="28.623587" lon="104.5857662"><ele>586.24</ele><time>2026-02-16T19:37:34.000Z</time></trkpt>
        <trkpt lat="28.6236138" lon="104.5857103"><ele>586</ele><time>2026-02-16T19:37:36.000Z</time></trkpt>
        <trkpt lat="28.6236552" lon="104.5856467"><ele>585.44</ele><time>2026-02-16T19:37:40.000Z</time></trkpt>
        <trkpt lat="28.6237132" lon="104.5856045"><ele>584.73</ele><time>2026-02-16T19:37:44.000Z</time></trkpt>
        <trkpt lat="28.6237792" lon="104.5855805"><ele>584.21</ele><time>2026-02-16T19:37:48.000Z</time></trkpt>
        <trkpt lat="28.6238501" lon="104.5855997"><ele>583.8</ele><time>2026-02-16T19:37:52.000Z</time></trkpt>
        <trkpt lat="28.6239515" lon="104.5856367"><ele>581.56</ele><time>2026-02-16T19:37:56.000Z</time></trkpt>
        <trkpt lat="28.6240216" lon="104.5856513"><ele>580.61</ele><time>2026-02-16T19:37:58.000Z</time></trkpt>
        <trkpt lat="28.6240966" lon="104.5856555"><ele>579.84</ele><time>2026-02-16T19:38:02.000Z</time></trkpt>
        <trkpt lat="28.6241587" lon="104.5856664"><ele>579.36</ele><time>2026-02-16T19:38:06.000Z</time></trkpt>
        <trkpt lat="28.6242142" lon="104.5856747"><ele>578.35</ele><time>2026-02-16T19:38:10.000Z</time></trkpt>
        <trkpt lat="28.6242605" lon="104.585682"><ele>576.92</ele><time>2026-02-16T19:38:14.000Z</time></trkpt>
        <trkpt lat="28.62431" lon="104.5856976"><ele>575.47</ele><time>2026-02-16T19:38:18.000Z</time></trkpt>
        <trkpt lat="28.6243645" lon="104.5857327"><ele>574.02</ele><time>2026-02-16T19:38:22.000Z</time></trkpt>
        <trkpt lat="28.6244211" lon="104.5857836"><ele>572.37</ele><time>2026-02-16T19:38:26.000Z</time></trkpt>
        <trkpt lat="28.6244824" lon="104.5858616"><ele>570.52</ele><time>2026-02-16T19:38:30.000Z</time></trkpt>
        <trkpt lat="28.6245227" lon="104.5859201"><ele>568.36</ele><time>2026-02-16T19:38:32.000Z</time></trkpt>
        <trkpt lat="28.6245604" lon="104.5859897"><ele>566.9</ele><time>2026-02-16T19:38:36.000Z</time></trkpt>
        <trkpt lat="28.6245868" lon="104.5860439"><ele>565.64</ele><time>2026-02-16T19:38:40.000Z</time></trkpt>
        <trkpt lat="28.6246157" lon="104.5860851"><ele>564.39</ele><time>2026-02-16T19:38:44.000Z</time></trkpt>
        <trkpt lat="28.6246718" lon="104.5861153"><ele>562.81</ele><time>2026-02-16T19:38:48.000Z</time></trkpt>
        <trkpt lat="28.6247355" lon="104.5860815"><ele>561.26</ele><time>2026-02-16T19:38:52.000Z</time></trkpt>
        <trkpt lat="28.6248136" lon="104.5860346"><ele>559.64</ele><time>2026-02-16T19:38:56.000Z</time></trkpt>
        <trkpt lat="28.624889" lon="104.5860036"><ele>557.66</ele><time>2026-02-16T19:39:00.000Z</time></trkpt>
        <trkpt lat="28.6249521" lon="104.5859805"><ele>556</ele><time>2026-02-16T19:39:04.000Z</time></trkpt>
        <trkpt lat="28.6249915" lon="104.5859539"><ele>554.93</ele><time>2026-02-16T19:39:08.000Z</time></trkpt>
        <trkpt lat="28.6250231" lon="104.5859194"><ele>554.18</ele><time>2026-02-16T19:39:26.000Z</time></trkpt>
        <trkpt lat="28.6250745" lon="104.5858785"><ele>553.1</ele><time>2026-02-16T19:39:32.000Z</time></trkpt>
        <trkpt lat="28.6251086" lon="104.5858321"><ele>551.29</ele><time>2026-02-16T19:39:36.000Z</time></trkpt>
        <trkpt lat="28.6251267" lon="104.5857825"><ele>549.87</ele><time>2026-02-16T19:39:40.000Z</time></trkpt>
        <trkpt lat="28.6251409" lon="104.5857238"><ele>548.95</ele><time>2026-02-16T19:39:48.000Z</time></trkpt>
        <trkpt lat="28.6251593" lon="104.5856578"><ele>547.87</ele><time>2026-02-16T19:39:54.000Z</time></trkpt>
        <trkpt lat="28.6252046" lon="104.5856262"><ele>546.02</ele><time>2026-02-16T19:39:58.000Z</time></trkpt>
        <trkpt lat="28.6252352" lon="104.5856065"><ele>543.33</ele><time>2026-02-16T19:40:04.000Z</time></trkpt>
        <trkpt lat="28.6252711" lon="104.5855721"><ele>541.1</ele><time>2026-02-16T19:40:14.000Z</time></trkpt>
        <trkpt lat="28.6253088" lon="104.5855314"><ele>539.11</ele><time>2026-02-16T19:40:34.000Z</time></trkpt>
        <trkpt lat="28.625354" lon="104.5854942"><ele>538.73</ele><time>2026-02-16T19:40:38.000Z</time></trkpt>
        <trkpt lat="28.6253989" lon="104.5854666"><ele>538.8</ele><time>2026-02-16T19:40:42.000Z</time></trkpt>
        <trkpt lat="28.6253801" lon="104.5854239"><ele>539.51</ele><time>2026-02-16T19:40:48.000Z</time></trkpt>
        <trkpt lat="28.6253425" lon="104.5853673"><ele>541.3</ele><time>2026-02-16T19:40:54.000Z</time></trkpt>
        <trkpt lat="28.6253073" lon="104.5853107"><ele>542.7</ele><time>2026-02-16T19:40:58.000Z</time></trkpt>
        <trkpt lat="28.6252744" lon="104.5852397"><ele>544.07</ele><time>2026-02-16T19:41:02.000Z</time></trkpt>
        <trkpt lat="28.6252507" lon="104.5851827"><ele>544.82</ele><time>2026-02-16T19:41:06.000Z</time></trkpt>
        <trkpt lat="28.625227" lon="104.585128"><ele>545.99</ele><time>2026-02-16T19:41:10.000Z</time></trkpt>
        <trkpt lat="28.6252075" lon="104.5850745"><ele>546.68</ele><time>2026-02-16T19:41:14.000Z</time></trkpt>
        <trkpt lat="28.6251936" lon="104.5850225"><ele>547.51</ele><time>2026-02-16T19:41:18.000Z</time></trkpt>
        <trkpt lat="28.6251877" lon="104.5849571"><ele>548.68</ele><time>2026-02-16T19:41:24.000Z</time></trkpt>
        <trkpt lat="28.6251917" lon="104.5848814"><ele>551.13</ele><time>2026-02-16T19:41:30.000Z</time></trkpt>
        <trkpt lat="28.6251981" lon="104.5848111"><ele>553.15</ele><time>2026-02-16T19:41:34.000Z</time></trkpt>
        <trkpt lat="28.6252036" lon="104.5847468"><ele>553.97</ele><time>2026-02-16T19:41:38.000Z</time></trkpt>
        <trkpt lat="28.6252074" lon="104.5846873"><ele>554.63</ele><time>2026-02-16T19:41:42.000Z</time></trkpt>
        <trkpt lat="28.6252093" lon="104.5846608"><ele>555.2</ele><time>2026-02-16T19:41:46.000Z</time></trkpt>
        <trkpt lat="28.6252189" lon="104.5846141"><ele>555.65</ele><time>2026-02-16T19:41:54.000Z</time></trkpt>
        <trkpt lat="28.6252483" lon="104.5845656"><ele>556.55</ele><time>2026-02-16T19:42:00.000Z</time></trkpt>
        <trkpt lat="28.6252787" lon="104.5845036"><ele>557.32</ele><time>2026-02-16T19:42:06.000Z</time></trkpt>
        <trkpt lat="28.625271" lon="104.5844319"><ele>557.6</ele><time>2026-02-16T19:42:12.000Z</time></trkpt>
        <trkpt lat="28.6252305" lon="104.5843969"><ele>558.27</ele><time>2026-02-16T19:42:16.000Z</time></trkpt>
        <trkpt lat="28.6251812" lon="104.5843619"><ele>559.19</ele><time>2026-02-16T19:42:20.000Z</time></trkpt>
        <trkpt lat="28.6251272" lon="104.5843193"><ele>560.2</ele><time>2026-02-16T19:42:26.000Z</time></trkpt>
        <trkpt lat="28.6250918" lon="104.5842759"><ele>561.35</ele><time>2026-02-16T19:42:30.000Z</time></trkpt>
        <trkpt lat="28.6250745" lon="104.5842191"><ele>562.27</ele><time>2026-02-16T19:42:34.000Z</time></trkpt>
        <trkpt lat="28.6250644" lon="104.5841177"><ele>562.24</ele><time>2026-02-16T19:42:38.000Z</time></trkpt>
        <trkpt lat="28.6250545" lon="104.5840294"><ele>562.52</ele><time>2026-02-16T19:42:40.000Z</time></trkpt>
        <trkpt lat="28.625026" lon="104.583964"><ele>562.64</ele><time>2026-02-16T19:42:44.000Z</time></trkpt>
        <trkpt lat="28.624973" lon="104.5839017"><ele>562.08</ele><time>2026-02-16T19:42:48.000Z</time></trkpt>
        <trkpt lat="28.62494" lon="104.5838349"><ele>561.89</ele><time>2026-02-16T19:42:52.000Z</time></trkpt>
        <trkpt lat="28.6249268" lon="104.5837717"><ele>562.6</ele><time>2026-02-16T19:42:56.000Z</time></trkpt>
        <trkpt lat="28.6249456" lon="104.5837295"><ele>561.69</ele><time>2026-02-16T19:43:00.000Z</time></trkpt>
        <trkpt lat="28.624961" lon="104.5836715"><ele>561.25</ele><time>2026-02-16T19:43:06.000Z</time></trkpt>
        <trkpt lat="28.6249612" lon="104.5836173"><ele>561.88</ele><time>2026-02-16T19:43:10.000Z</time></trkpt>
        <trkpt lat="28.6249737" lon="104.5835614"><ele>562.14</ele><time>2026-02-16T19:43:14.000Z</time></trkpt>
        <trkpt lat="28.6249768" lon="104.5835002"><ele>562.48</ele><time>2026-02-16T19:43:18.000Z</time></trkpt>
        <trkpt lat="28.6249811" lon="104.5834291"><ele>563.34</ele><time>2026-02-16T19:43:24.000Z</time></trkpt>
        <trkpt lat="28.6249946" lon="104.5833635"><ele>562.94</ele><time>2026-02-16T19:43:28.000Z</time></trkpt>
        <trkpt lat="28.6250074" lon="104.5833021"><ele>561.73</ele><time>2026-02-16T19:43:32.000Z</time></trkpt>
        <trkpt lat="28.624998" lon="104.5832324"><ele>563.31</ele><time>2026-02-16T19:43:36.000Z</time></trkpt>
        <trkpt lat="28.6249728" lon="104.5831685"><ele>564.5</ele><time>2026-02-16T19:43:42.000Z</time></trkpt>
        <trkpt lat="28.6249452" lon="104.5831054"><ele>565.61</ele><time>2026-02-16T19:44:00.000Z</time></trkpt>
        <trkpt lat="28.6249204" lon="104.5830471"><ele>567.32</ele><time>2026-02-16T19:44:06.000Z</time></trkpt>
        <trkpt lat="28.6249144" lon="104.5829903"><ele>569.08</ele><time>2026-02-16T19:44:14.000Z</time></trkpt>
        <trkpt lat="28.6248975" lon="104.5829353"><ele>569.84</ele><time>2026-02-16T19:44:24.000Z</time></trkpt>
        <trkpt lat="28.6249094" lon="104.5828808"><ele>571.33</ele><time>2026-02-16T19:44:44.000Z</time></trkpt>
        <trkpt lat="28.6248959" lon="104.5828183"><ele>571.94</ele><time>2026-02-16T19:44:48.000Z</time></trkpt>
        <trkpt lat="28.6248707" lon="104.5827579"><ele>572.43</ele><time>2026-02-16T19:44:52.000Z</time></trkpt>
        <trkpt lat="28.624831" lon="104.5827095"><ele>572.42</ele><time>2026-02-16T19:44:56.000Z</time></trkpt>
        <trkpt lat="28.6248122" lon="104.5826482"><ele>572.89</ele><time>2026-02-16T19:45:02.000Z</time></trkpt>
        <trkpt lat="28.6247888" lon="104.5825932"><ele>573.47</ele><time>2026-02-16T19:45:08.000Z</time></trkpt>
        <trkpt lat="28.6247571" lon="104.5825531"><ele>573.71</ele><time>2026-02-16T19:45:12.000Z</time></trkpt>
        <trkpt lat="28.6247435" lon="104.58249"><ele>575.29</ele><time>2026-02-16T19:45:42.000Z</time></trkpt>
        <trkpt lat="28.6247148" lon="104.5824366"><ele>577.71</ele><time>2026-02-16T19:45:48.000Z</time></trkpt>
        <trkpt lat="28.6246995" lon="104.5823792"><ele>580.19</ele><time>2026-02-16T19:45:54.000Z</time></trkpt>
        <trkpt lat="28.6246994" lon="104.5823109"><ele>582.89</ele><time>2026-02-16T19:46:00.000Z</time></trkpt>
        <trkpt lat="28.6247063" lon="104.5822543"><ele>584.63</ele><time>2026-02-16T19:46:06.000Z</time></trkpt>
        <trkpt lat="28.6247175" lon="104.5821825"><ele>586.12</ele><time>2026-02-16T19:46:24.000Z</time></trkpt>
        <trkpt lat="28.6246955" lon="104.5821165"><ele>587.49</ele><time>2026-02-16T19:46:32.000Z</time></trkpt>
        <trkpt lat="28.6246937" lon="104.5820503"><ele>588.1</ele><time>2026-02-16T19:46:38.000Z</time></trkpt>
        <trkpt lat="28.6246963" lon="104.5820143"><ele>587.75</ele><time>2026-02-16T19:46:42.000Z</time></trkpt>
        <trkpt lat="28.6246649" lon="104.5819929"><ele>587.9</ele><time>2026-02-16T19:46:54.000Z</time></trkpt>
        <trkpt lat="28.6246058" lon="104.581987"><ele>587.88</ele><time>2026-02-16T19:47:00.000Z</time></trkpt>
        <trkpt lat="28.6246011" lon="104.5819373"><ele>588.9</ele><time>2026-02-16T19:47:06.000Z</time></trkpt>
        <trkpt lat="28.6246522" lon="104.581911"><ele>590.74</ele><time>2026-02-16T19:47:10.000Z</time></trkpt>
        <trkpt lat="28.6247162" lon="104.5819229"><ele>591.99</ele><time>2026-02-16T19:47:14.000Z</time></trkpt>
        <trkpt lat="28.624769" lon="104.5819563"><ele>592.7</ele><time>2026-02-16T19:47:18.000Z</time></trkpt>
        <trkpt lat="28.6248179" lon="104.5819965"><ele>593.11</ele><time>2026-02-16T19:47:22.000Z</time></trkpt>
        <trkpt lat="28.6248559" lon="104.5820457"><ele>593.37</ele><time>2026-02-16T19:47:26.000Z</time></trkpt>
        <trkpt lat="28.6248755" lon="104.5821041"><ele>594.01</ele><time>2026-02-16T19:47:30.000Z</time></trkpt>
        <trkpt lat="28.6249149" lon="104.5821421"><ele>594.64</ele><time>2026-02-16T19:47:34.000Z</time></trkpt>
        <trkpt lat="28.6249619" lon="104.5821506"><ele>595.5</ele><time>2026-02-16T19:47:38.000Z</time></trkpt>
        <trkpt lat="28.6250136" lon="104.5821521"><ele>596.26</ele><time>2026-02-16T19:47:42.000Z</time></trkpt>
        <trkpt lat="28.6250673" lon="104.5821707"><ele>596.96</ele><time>2026-02-16T19:47:46.000Z</time></trkpt>
        <trkpt lat="28.6251238" lon="104.5821817"><ele>597.37</ele><time>2026-02-16T19:47:50.000Z</time></trkpt>
        <trkpt lat="28.6251568" lon="104.5821335"><ele>597.49</ele><time>2026-02-16T19:47:54.000Z</time></trkpt>
        <trkpt lat="28.6251841" lon="104.5820698"><ele>597.78</ele><time>2026-02-16T19:47:58.000Z</time></trkpt>
        <trkpt lat="28.6252192" lon="104.5820114"><ele>598.52</ele><time>2026-02-16T19:48:02.000Z</time></trkpt>
        <trkpt lat="28.6252699" lon="104.5819808"><ele>599.08</ele><time>2026-02-16T19:48:06.000Z</time></trkpt>
        <trkpt lat="28.6253321" lon="104.5819804"><ele>599.97</ele><time>2026-02-16T19:48:10.000Z</time></trkpt>
        <trkpt lat="28.6253892" lon="104.5820097"><ele>600.66</ele><time>2026-02-16T19:48:14.000Z</time></trkpt>
        <trkpt lat="28.6254434" lon="104.5820443"><ele>601.25</ele><time>2026-02-16T19:48:18.000Z</time></trkpt>
        <trkpt lat="28.6254948" lon="104.5820804"><ele>601.58</ele><time>2026-02-16T19:48:22.000Z</time></trkpt>
        <trkpt lat="28.6255383" lon="104.5821181"><ele>602</ele><time>2026-02-16T19:48:26.000Z</time></trkpt>
        <trkpt lat="28.6255772" lon="104.5821671"><ele>602.04</ele><time>2026-02-16T19:48:30.000Z</time></trkpt>
        <trkpt lat="28.6256222" lon="104.5822089"><ele>602.21</ele><time>2026-02-16T19:48:34.000Z</time></trkpt>
        <trkpt lat="28.6256763" lon="104.5822314"><ele>602.35</ele><time>2026-02-16T19:48:38.000Z</time></trkpt>
        <trkpt lat="28.6257383" lon="104.5822389"><ele>601.69</ele><time>2026-02-16T19:48:42.000Z</time></trkpt>
        <trkpt lat="28.6258041" lon="104.5822306"><ele>602.02</ele><time>2026-02-16T19:48:46.000Z</time></trkpt>
        <trkpt lat="28.6258632" lon="104.5822063"><ele>601.57</ele><time>2026-02-16T19:48:50.000Z</time></trkpt>
        <trkpt lat="28.6258851" lon="104.582188"><ele>600.92</ele><time>2026-02-16T19:48:52.000Z</time></trkpt>
        <trkpt lat="28.6259033" lon="104.5821482"><ele>600.34</ele><time>2026-02-16T19:49:00.000Z</time></trkpt>
        <trkpt lat="28.6259399" lon="104.5820982"><ele>598.85</ele><time>2026-02-16T19:49:06.000Z</time></trkpt>
        <trkpt lat="28.6259799" lon="104.5820438"><ele>597.92</ele><time>2026-02-16T19:49:12.000Z</time></trkpt>
        <trkpt lat="28.6260213" lon="104.5819998"><ele>596.86</ele><time>2026-02-16T19:49:16.000Z</time></trkpt>
        <trkpt lat="28.6260791" lon="104.5819702"><ele>595.71</ele><time>2026-02-16T19:49:20.000Z</time></trkpt>
        <trkpt lat="28.6261498" lon="104.5819543"><ele>594.65</ele><time>2026-02-16T19:49:24.000Z</time></trkpt>
        <trkpt lat="28.6262004" lon="104.5819668"><ele>593.46</ele><time>2026-02-16T19:49:28.000Z</time></trkpt>
        <trkpt lat="28.6262588" lon="104.5819955"><ele>592.4</ele><time>2026-02-16T19:49:36.000Z</time></trkpt>
        <trkpt lat="28.626319" lon="104.5820061"><ele>590.16</ele><time>2026-02-16T19:49:40.000Z</time></trkpt>
        <trkpt lat="28.6263656" lon="104.5820394"><ele>588.92</ele><time>2026-02-16T19:49:44.000Z</time></trkpt>
        <trkpt lat="28.6264135" lon="104.5820842"><ele>586.13</ele><time>2026-02-16T19:49:50.000Z</time></trkpt>
        <trkpt lat="28.6264596" lon="104.5821074"><ele>584.26</ele><time>2026-02-16T19:49:54.000Z</time></trkpt>
        <trkpt lat="28.6264984" lon="104.5820809"><ele>581.67</ele><time>2026-02-16T19:50:04.000Z</time></trkpt>
        <trkpt lat="28.6265123" lon="104.5820262"><ele>579.61</ele><time>2026-02-16T19:50:08.000Z</time></trkpt>
        <trkpt lat="28.6265338" lon="104.5819597"><ele>578.69</ele><time>2026-02-16T19:50:12.000Z</time></trkpt>
        <trkpt lat="28.6265635" lon="104.5818985"><ele>578.11</ele><time>2026-02-16T19:50:16.000Z</time></trkpt>
        <trkpt lat="28.6265953" lon="104.5818429"><ele>577.72</ele><time>2026-02-16T19:50:20.000Z</time></trkpt>
        <trkpt lat="28.6266321" lon="104.5817966"><ele>577.66</ele><time>2026-02-16T19:50:24.000Z</time></trkpt>
        <trkpt lat="28.6266928" lon="104.5817653"><ele>578.23</ele><time>2026-02-16T19:50:30.000Z</time></trkpt>
        <trkpt lat="28.6267506" lon="104.5817537"><ele>578.71</ele><time>2026-02-16T19:50:34.000Z</time></trkpt>
        <trkpt lat="28.626803" lon="104.5817435"><ele>578.42</ele><time>2026-02-16T19:50:38.000Z</time></trkpt>
        <trkpt lat="28.6268499" lon="104.5817289"><ele>577.87</ele><time>2026-02-16T19:50:42.000Z</time></trkpt>
        <trkpt lat="28.6268952" lon="104.5817144"><ele>577.18</ele><time>2026-02-16T19:50:48.000Z</time></trkpt>
        <trkpt lat="28.6269424" lon="104.5817382"><ele>576.34</ele><time>2026-02-16T19:51:02.000Z</time></trkpt>
        <trkpt lat="28.6269812" lon="104.5817776"><ele>575.78</ele><time>2026-02-16T19:51:06.000Z</time></trkpt>
        <trkpt lat="28.6270187" lon="104.581824"><ele>575.85</ele><time>2026-02-16T19:51:10.000Z</time></trkpt>
        <trkpt lat="28.6270579" lon="104.581863"><ele>575.65</ele><time>2026-02-16T19:51:14.000Z</time></trkpt>
        <trkpt lat="28.6270964" lon="104.5818968"><ele>575.54</ele><time>2026-02-16T19:51:18.000Z</time></trkpt>
        <trkpt lat="28.6271437" lon="104.5819189"><ele>575.64</ele><time>2026-02-16T19:51:22.000Z</time></trkpt>
        <trkpt lat="28.6271859" lon="104.5819477"><ele>576.25</ele><time>2026-02-16T19:51:26.000Z</time></trkpt>
        <trkpt lat="28.627239" lon="104.5819869"><ele>577.07</ele><time>2026-02-16T19:51:32.000Z</time></trkpt>
        <trkpt lat="28.627295" lon="104.5820255"><ele>579.1</ele><time>2026-02-16T19:51:38.000Z</time></trkpt>
        <trkpt lat="28.6273506" lon="104.5820625"><ele>580.76</ele><time>2026-02-16T19:51:44.000Z</time></trkpt>
        <trkpt lat="28.6273916" lon="104.5821093"><ele>581.87</ele><time>2026-02-16T19:51:50.000Z</time></trkpt>
        <trkpt lat="28.6274298" lon="104.5821566"><ele>582.42</ele><time>2026-02-16T19:51:56.000Z</time></trkpt>
        <trkpt lat="28.6274826" lon="104.5821889"><ele>582.45</ele><time>2026-02-16T19:52:02.000Z</time></trkpt>
        <trkpt lat="28.6275387" lon="104.5822029"><ele>582.89</ele><time>2026-02-16T19:52:08.000Z</time></trkpt>
        <trkpt lat="28.6276011" lon="104.5821836"><ele>584.08</ele><time>2026-02-16T19:52:12.000Z</time></trkpt>
        <trkpt lat="28.6276467" lon="104.5821311"><ele>585.09</ele><time>2026-02-16T19:52:16.000Z</time></trkpt>
        <trkpt lat="28.6276837" lon="104.5820814"><ele>585.76</ele><time>2026-02-16T19:52:20.000Z</time></trkpt>
        <trkpt lat="28.6277254" lon="104.5820401"><ele>585.88</ele><time>2026-02-16T19:52:24.000Z</time></trkpt>
        <trkpt lat="28.6277696" lon="104.5819932"><ele>585.34</ele><time>2026-02-16T19:52:28.000Z</time></trkpt>
        <trkpt lat="28.6278075" lon="104.5819425"><ele>585.13</ele><time>2026-02-16T19:52:32.000Z</time></trkpt>
        <trkpt lat="28.6278543" lon="104.5819166"><ele>585.59</ele><time>2026-02-16T19:52:36.000Z</time></trkpt>
        <trkpt lat="28.6278992" lon="104.5819286"><ele>586.69</ele><time>2026-02-16T19:52:40.000Z</time></trkpt>
        <trkpt lat="28.6279486" lon="104.5819663"><ele>587.62</ele><time>2026-02-16T19:52:44.000Z</time></trkpt>
        <trkpt lat="28.6279901" lon="104.5820165"><ele>588.07</ele><time>2026-02-16T19:52:48.000Z</time></trkpt>
        <trkpt lat="28.6280167" lon="104.5820757"><ele>588.17</ele><time>2026-02-16T19:52:52.000Z</time></trkpt>
        <trkpt lat="28.6280405" lon="104.5821324"><ele>588.35</ele><time>2026-02-16T19:52:56.000Z</time></trkpt>
        <trkpt lat="28.6280574" lon="104.5822061"><ele>589.29</ele><time>2026-02-16T19:53:02.000Z</time></trkpt>
        <trkpt lat="28.6280697" lon="104.5822758"><ele>590.64</ele><time>2026-02-16T19:53:06.000Z</time></trkpt>
        <trkpt lat="28.6280801" lon="104.5823378"><ele>591.42</ele><time>2026-02-16T19:53:10.000Z</time></trkpt>
        <trkpt lat="28.6280986" lon="104.582392"><ele>592.2</ele><time>2026-02-16T19:53:14.000Z</time></trkpt>
        <trkpt lat="28.6281096" lon="104.582444"><ele>593.84</ele><time>2026-02-16T19:53:18.000Z</time></trkpt>
        <trkpt lat="28.6281206" lon="104.5824932"><ele>594.72</ele><time>2026-02-16T19:53:22.000Z</time></trkpt>
        <trkpt lat="28.6281404" lon="104.5825377"><ele>596.96</ele><time>2026-02-16T19:53:26.000Z</time></trkpt>
        <trkpt lat="28.6281524" lon="104.5825876"><ele>597.44</ele><time>2026-02-16T19:53:30.000Z</time></trkpt>
        <trkpt lat="28.6281634" lon="104.5826453"><ele>597.54</ele><time>2026-02-16T19:53:34.000Z</time></trkpt>
        <trkpt lat="28.6281882" lon="104.5827102"><ele>597.85</ele><time>2026-02-16T19:53:40.000Z</time></trkpt>
        <trkpt lat="28.6282428" lon="104.582753"><ele>598.31</ele><time>2026-02-16T19:53:46.000Z</time></trkpt>
        <trkpt lat="28.628285" lon="104.582791"><ele>599.17</ele><time>2026-02-16T19:53:50.000Z</time></trkpt>
        <trkpt lat="28.6283297" lon="104.5828297"><ele>600.16</ele><time>2026-02-16T19:53:58.000Z</time></trkpt>
        <trkpt lat="28.6283454" lon="104.5828269"><ele>598.9</ele><time>2026-02-16T19:54:00.000Z</time></trkpt>
        <trkpt lat="28.6283643" lon="104.5827722"><ele>598.35</ele><time>2026-02-16T19:54:04.000Z</time></trkpt>
        <trkpt lat="28.6283603" lon="104.582698"><ele>597.17</ele><time>2026-02-16T19:54:08.000Z</time></trkpt>
        <trkpt lat="28.6283461" lon="104.5826308"><ele>597.25</ele><time>2026-02-16T19:54:12.000Z</time></trkpt>
        <trkpt lat="28.6283399" lon="104.5825509"><ele>598.77</ele><time>2026-02-16T19:54:16.000Z</time></trkpt>
        <trkpt lat="28.6283314" lon="104.5824887"><ele>600.36</ele><time>2026-02-16T19:54:20.000Z</time></trkpt>
        <trkpt lat="28.6283248" lon="104.5824196"><ele>601.67</ele><time>2026-02-16T19:54:26.000Z</time></trkpt>
        <trkpt lat="28.6283384" lon="104.5823631"><ele>603.31</ele><time>2026-02-16T19:54:30.000Z</time></trkpt>
        <trkpt lat="28.6283445" lon="104.5822962"><ele>604.48</ele><time>2026-02-16T19:54:36.000Z</time></trkpt>
        <trkpt lat="28.6283551" lon="104.5822392"><ele>606.28</ele><time>2026-02-16T19:54:42.000Z</time></trkpt>
        <trkpt lat="28.6283706" lon="104.5821889"><ele>607.88</ele><time>2026-02-16T19:54:50.000Z</time></trkpt>
        <trkpt lat="28.6283805" lon="104.5821651"><ele>609.57</ele><time>2026-02-16T19:54:54.000Z</time></trkpt>
        <trkpt lat="28.6284112" lon="104.5821198"><ele>611.08</ele><time>2026-02-16T19:55:02.000Z</time></trkpt>
        <trkpt lat="28.6284547" lon="104.5820894"><ele>612.76</ele><time>2026-02-16T19:55:08.000Z</time></trkpt>
        <trkpt lat="28.6284346" lon="104.582041"><ele>613.9</ele><time>2026-02-16T19:55:22.000Z</time></trkpt>
        <trkpt lat="28.628444" lon="104.5819896"><ele>614.54</ele><time>2026-02-16T19:55:30.000Z</time></trkpt>
        <trkpt lat="28.6284376" lon="104.5819237"><ele>615.19</ele><time>2026-02-16T19:55:38.000Z</time></trkpt>
        <trkpt lat="28.628419" lon="104.5818653"><ele>616.81</ele><time>2026-02-16T19:55:46.000Z</time></trkpt>
        <trkpt lat="28.6284042" lon="104.5817889"><ele>618.91</ele><time>2026-02-16T19:55:52.000Z</time></trkpt>
        <trkpt lat="28.6283955" lon="104.5817202"><ele>621.37</ele><time>2026-02-16T19:55:58.000Z</time></trkpt>
        <trkpt lat="28.6283851" lon="104.5816915"><ele>623.49</ele><time>2026-02-16T19:56:04.000Z</time></trkpt>
        <trkpt lat="28.6283963" lon="104.5816391"><ele>624.35</ele><time>2026-02-16T19:56:12.000Z</time></trkpt>
        <trkpt lat="28.6283908" lon="104.581582"><ele>624.97</ele><time>2026-02-16T19:56:28.000Z</time></trkpt>
        <trkpt lat="28.6283925" lon="104.5815172"><ele>626.14</ele><time>2026-02-16T19:56:34.000Z</time></trkpt>
        <trkpt lat="28.6284027" lon="104.5814598"><ele>626.69</ele><time>2026-02-16T19:56:40.000Z</time></trkpt>
        <trkpt lat="28.6284122" lon="104.5814442"><ele>625.96</ele><time>2026-02-16T19:56:42.000Z</time></trkpt>
        <trkpt lat="28.6284454" lon="104.5814249"><ele>625.45</ele><time>2026-02-16T19:56:50.000Z</time></trkpt>
        <trkpt lat="28.6284851" lon="104.5813901"><ele>624.43</ele><time>2026-02-16T19:56:58.000Z</time></trkpt>
        <trkpt lat="28.6285299" lon="104.5813547"><ele>624.38</ele><time>2026-02-16T19:57:14.000Z</time></trkpt>
        <trkpt lat="28.6285523" lon="104.5813508"><ele>622.95</ele><time>2026-02-16T19:57:16.000Z</time></trkpt>
        <trkpt lat="28.628596" lon="104.5813442"><ele>621.73</ele><time>2026-02-16T19:57:22.000Z</time></trkpt>
        <trkpt lat="28.6286197" lon="104.5813455"><ele>620.61</ele><time>2026-02-16T19:57:30.000Z</time></trkpt>
        <trkpt lat="28.6286669" lon="104.5813637"><ele>620.71</ele><time>2026-02-16T19:57:38.000Z</time></trkpt>
        <trkpt lat="28.6287185" lon="104.5813566"><ele>619.77</ele><time>2026-02-16T19:57:44.000Z</time></trkpt>
        <trkpt lat="28.6287732" lon="104.5813423"><ele>618.79</ele><time>2026-02-16T19:58:06.000Z</time></trkpt>
        <trkpt lat="28.6288277" lon="104.5813093"><ele>618.93</ele><time>2026-02-16T19:58:12.000Z</time></trkpt>
        <trkpt lat="28.6288868" lon="104.581292"><ele>619.51</ele><time>2026-02-16T19:58:18.000Z</time></trkpt>
        <trkpt lat="28.6289488" lon="104.5812719"><ele>618.51</ele><time>2026-02-16T19:58:24.000Z</time></trkpt>
        <trkpt lat="28.6289961" lon="104.5812483"><ele>618.87</ele><time>2026-02-16T19:58:28.000Z</time></trkpt>
        <trkpt lat="28.6290413" lon="104.5812386"><ele>619.54</ele><time>2026-02-16T19:58:32.000Z</time></trkpt>
        <trkpt lat="28.6290954" lon="104.5812394"><ele>619.53</ele><time>2026-02-16T19:58:40.000Z</time></trkpt>
        <trkpt lat="28.6291401" lon="104.5812051"><ele>619.07</ele><time>2026-02-16T19:58:46.000Z</time></trkpt>
        <trkpt lat="28.6291922" lon="104.581174"><ele>619.26</ele><time>2026-02-16T19:58:50.000Z</time></trkpt>
        <trkpt lat="28.6292501" lon="104.5811556"><ele>619.19</ele><time>2026-02-16T19:58:54.000Z</time></trkpt>
        <trkpt lat="28.6293064" lon="104.5811326"><ele>618.38</ele><time>2026-02-16T19:59:00.000Z</time></trkpt>
        <trkpt lat="28.6293518" lon="104.5811026"><ele>617.3</ele><time>2026-02-16T19:59:06.000Z</time></trkpt>
        <trkpt lat="28.6293887" lon="104.5810668"><ele>616.11</ele><time>2026-02-16T19:59:12.000Z</time></trkpt>
        <trkpt lat="28.6294342" lon="104.5810465"><ele>616.31</ele><time>2026-02-16T19:59:18.000Z</time></trkpt>
        <trkpt lat="28.6294786" lon="104.5810185"><ele>615.32</ele><time>2026-02-16T19:59:26.000Z</time></trkpt>
        <trkpt lat="28.6295214" lon="104.580998"><ele>614.72</ele><time>2026-02-16T19:59:36.000Z</time></trkpt>
        <trkpt lat="28.6295727" lon="104.5809869"><ele>613.58</ele><time>2026-02-16T19:59:42.000Z</time></trkpt>
        <trkpt lat="28.6296262" lon="104.5809825"><ele>611.39</ele><time>2026-02-16T19:59:46.000Z</time></trkpt>
        <trkpt lat="28.6296821" lon="104.58097"><ele>610.92</ele><time>2026-02-16T19:59:52.000Z</time></trkpt>
        <trkpt lat="28.6297415" lon="104.5809434"><ele>608.86</ele><time>2026-02-16T19:59:58.000Z</time></trkpt>
        <trkpt lat="28.6298016" lon="104.5809157"><ele>607.71</ele><time>2026-02-16T20:00:04.000Z</time></trkpt>
        <trkpt lat="28.6298512" lon="104.5808878"><ele>606.01</ele><time>2026-02-16T20:00:08.000Z</time></trkpt>
        <trkpt lat="28.6298966" lon="104.5808734"><ele>604.9</ele><time>2026-02-16T20:00:12.000Z</time></trkpt>
        <trkpt lat="28.6299282" lon="104.5808561"><ele>604.03</ele><time>2026-02-16T20:00:18.000Z</time></trkpt>
        <trkpt lat="28.6299631" lon="104.5808764"><ele>603.95</ele><time>2026-02-16T20:00:32.000Z</time></trkpt>
        <trkpt lat="28.6299955" lon="104.5809167"><ele>602.85</ele><time>2026-02-16T20:00:36.000Z</time></trkpt>
        <trkpt lat="28.6300134" lon="104.5809215"><ele>601.94</ele><time>2026-02-16T20:00:40.000Z</time></trkpt>
        <trkpt lat="28.6300595" lon="104.5809386"><ele>600.44</ele><time>2026-02-16T20:00:52.000Z</time></trkpt>
        <trkpt lat="28.6301089" lon="104.5809607"><ele>598.76</ele><time>2026-02-16T20:01:02.000Z</time></trkpt>
        <trkpt lat="28.6301466" lon="104.5809318"><ele>596.88</ele><time>2026-02-16T20:01:08.000Z</time></trkpt>
        <trkpt lat="28.6301914" lon="104.5809476"><ele>596.35</ele><time>2026-02-16T20:01:16.000Z</time></trkpt>
        <trkpt lat="28.6302276" lon="104.580982"><ele>595.52</ele><time>2026-02-16T20:01:20.000Z</time></trkpt>
        <trkpt lat="28.630261" lon="104.5810309"><ele>594.49</ele><time>2026-02-16T20:01:26.000Z</time></trkpt>
        <trkpt lat="28.6302831" lon="104.5810479"><ele>592.51</ele><time>2026-02-16T20:01:32.000Z</time></trkpt>
        <trkpt lat="28.6303038" lon="104.5810073"><ele>591.72</ele><time>2026-02-16T20:01:42.000Z</time></trkpt>
        <trkpt lat="28.6303287" lon="104.5809513"><ele>590.52</ele><time>2026-02-16T20:01:46.000Z</time></trkpt>
        <trkpt lat="28.630341" lon="104.5808816"><ele>589.42</ele><time>2026-02-16T20:01:54.000Z</time></trkpt>
        <trkpt lat="28.6303447" lon="104.5808097"><ele>587.83</ele><time>2026-02-16T20:02:00.000Z</time></trkpt>
        <trkpt lat="28.6303647" lon="104.5807516"><ele>586.51</ele><time>2026-02-16T20:02:06.000Z</time></trkpt>
        <trkpt lat="28.6303703" lon="104.5806688"><ele>586.28</ele><time>2026-02-16T20:02:12.000Z</time></trkpt>
        <trkpt lat="28.6303713" lon="104.5805973"><ele>585.52</ele><time>2026-02-16T20:02:18.000Z</time></trkpt>
        <trkpt lat="28.630401" lon="104.5805524"><ele>584.84</ele><time>2026-02-16T20:02:34.000Z</time></trkpt>
        <trkpt lat="28.6304518" lon="104.5805357"><ele>585.12</ele><time>2026-02-16T20:02:44.000Z</time></trkpt>
        <trkpt lat="28.6305043" lon="104.5805202"><ele>585.75</ele><time>2026-02-16T20:02:50.000Z</time></trkpt>
        <trkpt lat="28.6304761" lon="104.5805"><ele>586.96</ele><time>2026-02-16T20:02:56.000Z</time></trkpt>
        <trkpt lat="28.6304417" lon="104.5804522"><ele>587.82</ele><time>2026-02-16T20:03:00.000Z</time></trkpt>
        <trkpt lat="28.6304263" lon="104.580454"><ele>588.57</ele><time>2026-02-16T20:03:04.000Z</time></trkpt>
        <trkpt lat="28.6304052" lon="104.5804124"><ele>588.12</ele><time>2026-02-16T20:03:14.000Z</time></trkpt>
        <trkpt lat="28.6304046" lon="104.5803597"><ele>588.18</ele><time>2026-02-16T20:03:18.000Z</time></trkpt>
        <trkpt lat="28.6304251" lon="104.5802854"><ele>587.19</ele><time>2026-02-16T20:03:22.000Z</time></trkpt>
        <trkpt lat="28.6304554" lon="104.5802401"><ele>585.4</ele><time>2026-02-16T20:03:26.000Z</time></trkpt>
        <trkpt lat="28.6304988" lon="104.5801861"><ele>583.99</ele><time>2026-02-16T20:03:32.000Z</time></trkpt>
        <trkpt lat="28.6305327" lon="104.5801381"><ele>583.24</ele><time>2026-02-16T20:03:36.000Z</time></trkpt>
        <trkpt lat="28.6305467" lon="104.5801041"><ele>583.1</ele><time>2026-02-16T20:03:40.000Z</time></trkpt>
        <trkpt lat="28.6305872" lon="104.5800792"><ele>582.83</ele><time>2026-02-16T20:03:48.000Z</time></trkpt>
        <trkpt lat="28.6306389" lon="104.5800547"><ele>583.03</ele><time>2026-02-16T20:03:52.000Z</time></trkpt>
        <trkpt lat="28.6306569" lon="104.5800535"><ele>584.08</ele><time>2026-02-16T20:03:54.000Z</time></trkpt>
        <trkpt lat="28.6306887" lon="104.5800291"><ele>584.5</ele><time>2026-02-16T20:04:00.000Z</time></trkpt>
        <trkpt lat="28.6307301" lon="104.5799915"><ele>585.16</ele><time>2026-02-16T20:04:04.000Z</time></trkpt>
        <trkpt lat="28.630781" lon="104.5799467"><ele>586.11</ele><time>2026-02-16T20:04:10.000Z</time></trkpt>
        <trkpt lat="28.6308447" lon="104.5799201"><ele>587.93</ele><time>2026-02-16T20:04:16.000Z</time></trkpt>
        <trkpt lat="28.6309075" lon="104.5799057"><ele>587.99</ele><time>2026-02-16T20:04:22.000Z</time></trkpt>
        <trkpt lat="28.6309647" lon="104.5798855"><ele>589.02</ele><time>2026-02-16T20:04:26.000Z</time></trkpt>
        <trkpt lat="28.6310285" lon="104.579899"><ele>590.72</ele><time>2026-02-16T20:04:30.000Z</time></trkpt>
        <trkpt lat="28.6310813" lon="104.5799078"><ele>591.49</ele><time>2026-02-16T20:04:34.000Z</time></trkpt>
        <trkpt lat="28.6311269" lon="104.579927"><ele>593.72</ele><time>2026-02-16T20:04:38.000Z</time></trkpt>
        <trkpt lat="28.6311789" lon="104.579944"><ele>594.81</ele><time>2026-02-16T20:04:42.000Z</time></trkpt>
        <trkpt lat="28.6312361" lon="104.5799542"><ele>594.73</ele><time>2026-02-16T20:04:46.000Z</time></trkpt>
        <trkpt lat="28.6312679" lon="104.5799158"><ele>593.82</ele><time>2026-02-16T20:04:52.000Z</time></trkpt>
        <trkpt lat="28.63125" lon="104.5798695"><ele>592.27</ele><time>2026-02-16T20:04:56.000Z</time></trkpt>
        <trkpt lat="28.6312836" lon="104.5798699"><ele>591.27</ele><time>2026-02-16T20:05:02.000Z</time></trkpt>
        <trkpt lat="28.6313074" lon="104.5798998"><ele>590.04</ele><time>2026-02-16T20:05:08.000Z</time></trkpt>
        <trkpt lat="28.6313504" lon="104.5798879"><ele>590.45</ele><time>2026-02-16T20:05:16.000Z</time></trkpt>
        <trkpt lat="28.6314039" lon="104.579883"><ele>591.68</ele><time>2026-02-16T20:05:22.000Z</time></trkpt>
        <trkpt lat="28.6314577" lon="104.5798772"><ele>592.82</ele><time>2026-02-16T20:05:28.000Z</time></trkpt>
        <trkpt lat="28.6315116" lon="104.5798508"><ele>594.05</ele><time>2026-02-16T20:05:34.000Z</time></trkpt>
        <trkpt lat="28.6315606" lon="104.5798138"><ele>595.21</ele><time>2026-02-16T20:05:40.000Z</time></trkpt>
        <trkpt lat="28.631605" lon="104.5797808"><ele>595.18</ele><time>2026-02-16T20:05:46.000Z</time></trkpt>
        <trkpt lat="28.6316386" lon="104.579732"><ele>594.69</ele><time>2026-02-16T20:05:52.000Z</time></trkpt>
        <trkpt lat="28.6316942" lon="104.5796944"><ele>594.95</ele><time>2026-02-16T20:05:58.000Z</time></trkpt>
        <trkpt lat="28.6317444" lon="104.5796857"><ele>594.86</ele><time>2026-02-16T20:06:02.000Z</time></trkpt>
        <trkpt lat="28.6318039" lon="104.5796963"><ele>594.66</ele><time>2026-02-16T20:06:08.000Z</time></trkpt>
        <trkpt lat="28.6318399" lon="104.5797339"><ele>594.64</ele><time>2026-02-16T20:06:12.000Z</time></trkpt>
        <trkpt lat="28.6318559" lon="104.5797969"><ele>595.02</ele><time>2026-02-16T20:06:18.000Z</time></trkpt>
        <trkpt lat="28.6318813" lon="104.5798667"><ele>596.09</ele><time>2026-02-16T20:06:28.000Z</time></trkpt>
        <trkpt lat="28.6319211" lon="104.5798605"><ele>592.93</ele><time>2026-02-16T20:06:32.000Z</time></trkpt>
        <trkpt lat="28.6319358" lon="104.5797956"><ele>589.89</ele><time>2026-02-16T20:06:36.000Z</time></trkpt>
        <trkpt lat="28.6319615" lon="104.5797362"><ele>589.54</ele><time>2026-02-16T20:06:40.000Z</time></trkpt>
        <trkpt lat="28.6320045" lon="104.5797191"><ele>590.94</ele><time>2026-02-16T20:06:46.000Z</time></trkpt>
        <trkpt lat="28.6320538" lon="104.5797398"><ele>593.43</ele><time>2026-02-16T20:07:08.000Z</time></trkpt>
        <trkpt lat="28.6320905" lon="104.5797866"><ele>596.41</ele><time>2026-02-16T20:07:20.000Z</time></trkpt>
        <trkpt lat="28.632123" lon="104.5798391"><ele>598.71</ele><time>2026-02-16T20:07:28.000Z</time></trkpt>
        <trkpt lat="28.6321607" lon="104.5798866"><ele>601.3</ele><time>2026-02-16T20:07:36.000Z</time></trkpt>
        <trkpt lat="28.6322019" lon="104.5799267"><ele>603.3</ele><time>2026-02-16T20:07:44.000Z</time></trkpt>
        <trkpt lat="28.6322426" lon="104.5799577"><ele>606.14</ele><time>2026-02-16T20:07:50.000Z</time></trkpt>
        <trkpt lat="28.6322992" lon="104.5799616"><ele>609.13</ele><time>2026-02-16T20:08:00.000Z</time></trkpt>
        <trkpt lat="28.632318" lon="104.5799602"><ele>612.07</ele><time>2026-02-16T20:08:02.000Z</time></trkpt>
        <trkpt lat="28.6323543" lon="104.5799583"><ele>613.75</ele><time>2026-02-16T20:08:14.000Z</time></trkpt>
        <trkpt lat="28.6323689" lon="104.5799553"><ele>615.77</ele><time>2026-02-16T20:08:16.000Z</time></trkpt>
        <trkpt lat="28.6324058" lon="104.5799562"><ele>617.28</ele><time>2026-02-16T20:08:24.000Z</time></trkpt>
        <trkpt lat="28.6324264" lon="104.5799346"><ele>619.8</ele><time>2026-02-16T20:08:28.000Z</time></trkpt>
        <trkpt lat="28.632465" lon="104.5799185"><ele>621.22</ele><time>2026-02-16T20:08:44.000Z</time></trkpt>
        <trkpt lat="28.6325089" lon="104.5799379"><ele>623.79</ele><time>2026-02-16T20:09:02.000Z</time></trkpt>
        <trkpt lat="28.6325604" lon="104.5799221"><ele>627.17</ele><time>2026-02-16T20:09:08.000Z</time></trkpt>
        <trkpt lat="28.6325637" lon="104.5799185"><ele>627.98</ele><time>2026-02-16T20:09:12.000Z</time></trkpt>
        <trkpt lat="28.6325912" lon="104.5799404"><ele>629.34</ele><time>2026-02-16T20:09:32.000Z</time></trkpt>
        <trkpt lat="28.6325912" lon="104.5799404"><ele>629.34</ele><time>2026-02-16T20:09:56.000Z</time></trkpt>
        <trkpt lat="28.6326125" lon="104.5799891"><ele>631.01</ele><time>2026-02-16T20:10:05.000Z</time></trkpt>
        <trkpt lat="28.6326125" lon="104.5799891"><ele>631.01</ele><time>2026-02-16T20:10:14.000Z</time></trkpt>
        <trkpt lat="28.6326523" lon="104.5799989"><ele>633.26</ele><time>2026-02-16T20:10:22.000Z</time></trkpt>
        <trkpt lat="28.632692" lon="104.5799754"><ele>635.81</ele><time>2026-02-16T20:10:40.000Z</time></trkpt>
        <trkpt lat="28.6327393" lon="104.5799672"><ele>638.86</ele><time>2026-02-16T20:10:48.000Z</time></trkpt>
        <trkpt lat="28.6327535" lon="104.5800135"><ele>640.37</ele><time>2026-02-16T20:11:10.000Z</time></trkpt>
        <trkpt lat="28.632769" lon="104.5800342"><ele>642.42</ele><time>2026-02-16T20:11:18.000Z</time></trkpt>
        <trkpt lat="28.6328067" lon="104.5800417"><ele>644.09</ele><time>2026-02-16T20:11:28.000Z</time></trkpt>
        <trkpt lat="28.6328365" lon="104.58002"><ele>645.83</ele><time>2026-02-16T20:11:32.000Z</time></trkpt>
        <trkpt lat="28.6328562" lon="104.5799665"><ele>646.39</ele><time>2026-02-16T20:12:06.000Z</time></trkpt>
        <trkpt lat="28.632891" lon="104.579923"><ele>648.63</ele><time>2026-02-16T20:12:34.000Z</time></trkpt>
        <trkpt lat="28.632944" lon="104.5798977"><ele>651.26</ele><time>2026-02-16T20:12:42.000Z</time></trkpt>
        <trkpt lat="28.633004" lon="104.5799041"><ele>653.6</ele><time>2026-02-16T20:12:50.000Z</time></trkpt>
        <trkpt lat="28.6330585" lon="104.57991"><ele>655.88</ele><time>2026-02-16T20:12:56.000Z</time></trkpt>
        <trkpt lat="28.6331063" lon="104.5799381"><ele>657.33</ele><time>2026-02-16T20:13:02.000Z</time></trkpt>
        <trkpt lat="28.6331527" lon="104.5799666"><ele>658.54</ele><time>2026-02-16T20:13:08.000Z</time></trkpt>
        <trkpt lat="28.6331527" lon="104.5799666"><ele>658.54</ele><time>2026-02-16T20:13:22.000Z</time></trkpt>
        <trkpt lat="28.633204" lon="104.5799757"><ele>660.06</ele><time>2026-02-16T20:13:25.000Z</time></trkpt>
        <trkpt lat="28.633204" lon="104.5799757"><ele>660.06</ele><time>2026-02-16T20:13:26.000Z</time></trkpt>
        <trkpt lat="28.6332009" lon="104.5799723"><ele>660.58</ele><time>2026-02-16T20:13:28.000Z</time></trkpt>
        <trkpt lat="28.6331979" lon="104.5800146"><ele>660.77</ele><time>2026-02-16T20:14:14.000Z</time></trkpt>
        <trkpt lat="28.6332384" lon="104.5800091"><ele>659.79</ele><time>2026-02-16T20:14:26.000Z</time></trkpt>
        <trkpt lat="28.6332906" lon="104.5800241"><ele>659.39</ele><time>2026-02-16T20:14:32.000Z</time></trkpt>
        <trkpt lat="28.633341" lon="104.5800303"><ele>660.54</ele><time>2026-02-16T20:14:42.000Z</time></trkpt>
        <trkpt lat="28.6333928" lon="104.5800463"><ele>661.96</ele><time>2026-02-16T20:14:52.000Z</time></trkpt>
        <trkpt lat="28.6334426" lon="104.5800667"><ele>664.32</ele><time>2026-02-16T20:15:14.000Z</time></trkpt>
        <trkpt lat="28.6334814" lon="104.5801098"><ele>666.63</ele><time>2026-02-16T20:15:22.000Z</time></trkpt>
        <trkpt lat="28.6335175" lon="104.5801601"><ele>668.45</ele><time>2026-02-16T20:15:34.000Z</time></trkpt>
        <trkpt lat="28.6335511" lon="104.580206"><ele>670.45</ele><time>2026-02-16T20:15:46.000Z</time></trkpt>
        <trkpt lat="28.633575" lon="104.580227"><ele>673.63</ele><time>2026-02-16T20:15:52.000Z</time></trkpt>
        <trkpt lat="28.6336045" lon="104.5802661"><ele>675.42</ele><time>2026-02-16T20:16:24.000Z</time></trkpt>
        <trkpt lat="28.6336367" lon="104.5803191"><ele>677.24</ele><time>2026-02-16T20:16:48.000Z</time></trkpt>
        <trkpt lat="28.6336723" lon="104.5803639"><ele>678.48</ele><time>2026-02-16T20:16:52.000Z</time></trkpt>
        <trkpt lat="28.6336807" lon="104.5803727"><ele>680.2</ele><time>2026-02-16T20:16:54.000Z</time></trkpt>
        <trkpt lat="28.6337122" lon="104.5804047"><ele>681.57</ele><time>2026-02-16T20:17:06.000Z</time></trkpt>
        <trkpt lat="28.6337477" lon="104.5804609"><ele>681.91</ele><time>2026-02-16T20:17:12.000Z</time></trkpt>
        <trkpt lat="28.6337807" lon="104.5805076"><ele>681.66</ele><time>2026-02-16T20:17:16.000Z</time></trkpt>
        <trkpt lat="28.633794" lon="104.5805207"><ele>680.63</ele><time>2026-02-16T20:17:18.000Z</time></trkpt>
        <trkpt lat="28.6338293" lon="104.5805311"><ele>680.09</ele><time>2026-02-16T20:17:36.000Z</time></trkpt>
        <trkpt lat="28.6338758" lon="104.5805333"><ele>681.01</ele><time>2026-02-16T20:17:42.000Z</time></trkpt>
        <trkpt lat="28.6339254" lon="104.5805261"><ele>682.59</ele><time>2026-02-16T20:17:50.000Z</time></trkpt>
        <trkpt lat="28.6339837" lon="104.5805179"><ele>683.48</ele><time>2026-02-16T20:17:56.000Z</time></trkpt>
        <trkpt lat="28.6340361" lon="104.580516"><ele>685.04</ele><time>2026-02-16T20:18:02.000Z</time></trkpt>
        <trkpt lat="28.6340633" lon="104.5804872"><ele>687.11</ele><time>2026-02-16T20:18:10.000Z</time></trkpt>
        <trkpt lat="28.6341062" lon="104.580481"><ele>689.52</ele><time>2026-02-16T20:18:20.000Z</time></trkpt>
        <trkpt lat="28.6341535" lon="104.5804834"><ele>691.8</ele><time>2026-02-16T20:18:26.000Z</time></trkpt>
        <trkpt lat="28.6341946" lon="104.5804624"><ele>693.54</ele><time>2026-02-16T20:18:34.000Z</time></trkpt>
        <trkpt lat="28.6342373" lon="104.5804301"><ele>695.29</ele><time>2026-02-16T20:18:40.000Z</time></trkpt>
        <trkpt lat="28.6342492" lon="104.5804324"><ele>696.62</ele><time>2026-02-16T20:18:44.000Z</time></trkpt>
        <trkpt lat="28.6342925" lon="104.5804259"><ele>699.1</ele><time>2026-02-16T20:18:52.000Z</time></trkpt>
        <trkpt lat="28.6343401" lon="104.5804273"><ele>700.51</ele><time>2026-02-16T20:18:56.000Z</time></trkpt>
        <trkpt lat="28.6343832" lon="104.5804536"><ele>701.13</ele><time>2026-02-16T20:19:00.000Z</time></trkpt>
        <trkpt lat="28.6344115" lon="104.5804703"><ele>702.58</ele><time>2026-02-16T20:19:04.000Z</time></trkpt>
        <trkpt lat="28.6344449" lon="104.5805071"><ele>703.89</ele><time>2026-02-16T20:19:24.000Z</time></trkpt>
        <trkpt lat="28.6344934" lon="104.5805383"><ele>704.24</ele><time>2026-02-16T20:19:30.000Z</time></trkpt>
        <trkpt lat="28.6345216" lon="104.5805091"><ele>703.8</ele><time>2026-02-16T20:19:56.000Z</time></trkpt>
        <trkpt lat="28.6345005" lon="104.5805216"><ele>701.91</ele><time>2026-02-16T20:20:20.000Z</time></trkpt>
        <trkpt lat="28.6345128" lon="104.580563"><ele>700.6</ele><time>2026-02-16T20:20:26.000Z</time></trkpt>
        <trkpt lat="28.634539" lon="104.5806137"><ele>699.69</ele><time>2026-02-16T20:20:32.000Z</time></trkpt>
        <trkpt lat="28.6345709" lon="104.5806634"><ele>699.4</ele><time>2026-02-16T20:20:38.000Z</time></trkpt>
        <trkpt lat="28.6345997" lon="104.5806457"><ele>699.41</ele><time>2026-02-16T20:20:48.000Z</time></trkpt>
        <trkpt lat="28.6346379" lon="104.5806054"><ele>701.71</ele><time>2026-02-16T20:21:00.000Z</time></trkpt>
        <trkpt lat="28.6346599" lon="104.5805357"><ele>703.02</ele><time>2026-02-16T20:21:12.000Z</time></trkpt>
        <trkpt lat="28.6346465" lon="104.5804613"><ele>703.68</ele><time>2026-02-16T20:21:18.000Z</time></trkpt>
        <trkpt lat="28.6346185" lon="104.580395"><ele>704.12</ele><time>2026-02-16T20:21:24.000Z</time></trkpt>
        <trkpt lat="28.6345864" lon="104.5803551"><ele>703.71</ele><time>2026-02-16T20:21:30.000Z</time></trkpt>
        <trkpt lat="28.63454" lon="104.5803254"><ele>703.64</ele><time>2026-02-16T20:21:40.000Z</time></trkpt>
        <trkpt lat="28.6345233" lon="104.5803164"><ele>702.36</ele><time>2026-02-16T20:21:42.000Z</time></trkpt>
        <trkpt lat="28.6345233" lon="104.5803164"><ele>702.36</ele><time>2026-02-16T20:21:50.000Z</time></trkpt>
        <trkpt lat="28.6345144" lon="104.5803571"><ele>701.63</ele><time>2026-02-16T20:21:53.000Z</time></trkpt>
        <trkpt lat="28.6345144" lon="104.5803571"><ele>701.63</ele><time>2026-02-16T20:22:28.000Z</time></trkpt>
        <trkpt lat="28.6344813" lon="104.580363"><ele>703.92</ele><time>2026-02-16T20:22:32.000Z</time></trkpt>
        <trkpt lat="28.6344387" lon="104.5803468"><ele>705.52</ele><time>2026-02-16T20:22:36.000Z</time></trkpt>
        <trkpt lat="28.6343956" lon="104.580318"><ele>707.4</ele><time>2026-02-16T20:22:42.000Z</time></trkpt>
        <trkpt lat="28.6343508" lon="104.5802896"><ele>709.18</ele><time>2026-02-16T20:22:56.000Z</time></trkpt>
        <trkpt lat="28.6343046" lon="104.5802607"><ele>711.97</ele><time>2026-02-16T20:23:02.000Z</time></trkpt>
        <trkpt lat="28.6342588" lon="104.5802575"><ele>712.85</ele><time>2026-02-16T20:23:08.000Z</time></trkpt>
        <trkpt lat="28.6342157" lon="104.5802427"><ele>713.4</ele><time>2026-02-16T20:23:16.000Z</time></trkpt>
        <trkpt lat="28.634169" lon="104.5802492"><ele>713.48</ele><time>2026-02-16T20:23:22.000Z</time></trkpt>
        <trkpt lat="28.6341215" lon="104.5802335"><ele>712.51</ele><time>2026-02-16T20:23:28.000Z</time></trkpt>
        <trkpt lat="28.6340704" lon="104.580229"><ele>711.98</ele><time>2026-02-16T20:23:34.000Z</time></trkpt>
        <trkpt lat="28.6340464" lon="104.5802081"><ele>711.57</ele><time>2026-02-16T20:23:40.000Z</time></trkpt>
        <trkpt lat="28.6340756" lon="104.5801674"><ele>711.43</ele><time>2026-02-16T20:23:54.000Z</time></trkpt>
        <trkpt lat="28.6341121" lon="104.5801385"><ele>709.49</ele><time>2026-02-16T20:24:00.000Z</time></trkpt>
        <trkpt lat="28.6341121" lon="104.5801385"><ele>709.49</ele><time>2026-02-16T20:24:08.000Z</time></trkpt>
        <trkpt lat="28.6341563" lon="104.5801111"><ele>707.72</ele><time>2026-02-16T20:24:11.000Z</time></trkpt>
        <trkpt lat="28.6341563" lon="104.5801111"><ele>707.72</ele><time>2026-02-16T20:24:16.000Z</time></trkpt>
        <trkpt lat="28.6342133" lon="104.5801089"><ele>706.48</ele><time>2026-02-16T20:24:32.000Z</time></trkpt>
        <trkpt lat="28.6342345" lon="104.5801101"><ele>703.81</ele><time>2026-02-16T20:24:36.000Z</time></trkpt>
        <trkpt lat="28.6342345" lon="104.5801101"><ele>703.81</ele><time>2026-02-16T20:24:46.000Z</time></trkpt>
        <trkpt lat="28.6342743" lon="104.5800897"><ele>701.99</ele><time>2026-02-16T20:24:49.000Z</time></trkpt>
        <trkpt lat="28.6342743" lon="104.5800897"><ele>701.99</ele><time>2026-02-16T20:25:02.000Z</time></trkpt>
        <trkpt lat="28.6343159" lon="104.5800585"><ele>700.04</ele><time>2026-02-16T20:25:08.000Z</time></trkpt>
        <trkpt lat="28.6343159" lon="104.5800585"><ele>700.04</ele><time>2026-02-16T20:25:22.000Z</time></trkpt>
        <trkpt lat="28.6343634" lon="104.5800349"><ele>699.45</ele><time>2026-02-16T20:25:25.000Z</time></trkpt>
        <trkpt lat="28.6343634" lon="104.5800349"><ele>699.45</ele><time>2026-02-16T20:26:37.000Z</time></trkpt>
        <trkpt lat="28.6343634" lon="104.5800349"><ele>699.45</ele><time>2026-02-16T20:28:02.000Z</time></trkpt>
        <trkpt lat="28.6343366" lon="104.5799349"><ele>700.23</ele><time>2026-02-16T20:28:03.000Z</time></trkpt>
        <trkpt lat="28.6343366" lon="104.5799349"><ele>700.23</ele><time>2026-02-16T20:28:10.000Z</time></trkpt>
        <trkpt lat="28.6343554" lon="104.5799897"><ele>703.56</ele><time>2026-02-16T20:28:14.000Z</time></trkpt>
        <trkpt lat="28.6343554" lon="104.5799897"><ele>703.56</ele><time>2026-02-16T20:28:28.000Z</time></trkpt>
        <trkpt lat="28.6343639" lon="104.5800703"><ele>704.23</ele><time>2026-02-16T20:28:29.000Z</time></trkpt>
        <trkpt lat="28.6343639" lon="104.5800703"><ele>704.23</ele><time>2026-02-16T20:28:35.000Z</time></trkpt>
        <trkpt lat="28.6343639" lon="104.5800703"><ele>704.23</ele><time>2026-02-16T20:28:58.000Z</time></trkpt>
        <trkpt lat="28.6343921" lon="104.5800633"><ele>697.81</ele><time>2026-02-16T20:28:59.000Z</time></trkpt>
        <trkpt lat="28.6343921" lon="104.5800633"><ele>697.81</ele><time>2026-02-16T20:29:03.000Z</time></trkpt>
        <trkpt lat="28.6343921" lon="104.5800633"><ele>697.81</ele><time>2026-02-16T20:29:24.000Z</time></trkpt>
        <trkpt lat="28.6343921" lon="104.5800633"><ele>697.81</ele><time>2026-02-16T20:29:41.000Z</time></trkpt>
        <trkpt lat="28.6343921" lon="104.5800633"><ele>697.81</ele><time>2026-02-16T20:30:40.000Z</time></trkpt>
        <trkpt lat="28.6344238" lon="104.5799867"><ele>698</ele><time>2026-02-16T20:30:45.000Z</time></trkpt>
        <trkpt lat="28.6344238" lon="104.5799867"><ele>698</ele><time>2026-02-16T20:32:06.000Z</time></trkpt>
        <trkpt lat="28.634466" lon="104.5799513"><ele>699.16</ele><time>2026-02-16T20:33:16.000Z</time></trkpt>
        <trkpt lat="28.6345147" lon="104.5799277"><ele>700.05</ele><time>2026-02-16T20:33:33.000Z</time></trkpt>
        <trkpt lat="28.63456" lon="104.5798989"><ele>701.19</ele><time>2026-02-16T20:33:51.000Z</time></trkpt>
        <trkpt lat="28.6346014" lon="104.5798698"><ele>703.23</ele><time>2026-02-16T20:34:11.000Z</time></trkpt>
        <trkpt lat="28.6346407" lon="104.579838"><ele>705.81</ele><time>2026-02-16T20:34:25.000Z</time></trkpt>
        <trkpt lat="28.6346528" lon="104.5798304"><ele>707.39</ele><time>2026-02-16T20:34:29.000Z</time></trkpt>
        <trkpt lat="28.634695" lon="104.5798298"><ele>707.79</ele><time>2026-02-16T20:34:49.000Z</time></trkpt>
        <trkpt lat="28.6347339" lon="104.5798299"><ele>706.6</ele><time>2026-02-16T20:34:55.000Z</time></trkpt>
        <trkpt lat="28.6347774" lon="104.5798404"><ele>706.34</ele><time>2026-02-16T20:35:21.000Z</time></trkpt>
        <trkpt lat="28.6347965" lon="104.5798829"><ele>704.83</ele><time>2026-02-16T20:35:41.000Z</time></trkpt>
        <trkpt lat="28.6347915" lon="104.5799189"><ele>701.59</ele><time>2026-02-16T20:35:47.000Z</time></trkpt>
        <trkpt lat="28.6347686" lon="104.5799794"><ele>699.52</ele><time>2026-02-16T20:35:55.000Z</time></trkpt>
        <trkpt lat="28.634747" lon="104.5800443"><ele>697.25</ele><time>2026-02-16T20:35:59.000Z</time></trkpt>
        <trkpt lat="28.6347405" lon="104.5800584"><ele>696.68</ele><time>2026-02-16T20:36:03.000Z</time></trkpt>
        <trkpt lat="28.6347108" lon="104.5800781"><ele>695.77</ele><time>2026-02-16T20:36:15.000Z</time></trkpt>
        <trkpt lat="28.6346735" lon="104.5801255"><ele>695.73</ele><time>2026-02-16T20:36:21.000Z</time></trkpt>
        <trkpt lat="28.6346499" lon="104.5801307"><ele>695.37</ele><time>2026-02-16T20:36:25.000Z</time></trkpt>
        <trkpt lat="28.6346316" lon="104.5801683"><ele>694.83</ele><time>2026-02-16T20:36:33.000Z</time></trkpt>
        <trkpt lat="28.6346138" lon="104.5802272"><ele>694.83</ele><time>2026-02-16T20:36:39.000Z</time></trkpt>
        <trkpt lat="28.6345896" lon="104.5802815"><ele>695.71</ele><time>2026-02-16T20:36:45.000Z</time></trkpt>
        <trkpt lat="28.6345874" lon="104.580349"><ele>697.35</ele><time>2026-02-16T20:37:41.000Z</time></trkpt>
        <trkpt lat="28.6346019" lon="104.5804084"><ele>697.78</ele><time>2026-02-16T20:37:47.000Z</time></trkpt>
        <trkpt lat="28.63461" lon="104.5804802"><ele>699.98</ele><time>2026-02-16T20:37:53.000Z</time></trkpt>
        <trkpt lat="28.6346111" lon="104.5804859"><ele>703.22</ele><time>2026-02-16T20:37:57.000Z</time></trkpt>
        <trkpt lat="28.6346284" lon="104.5805227"><ele>705.32</ele><time>2026-02-16T20:38:07.000Z</time></trkpt>
        <trkpt lat="28.634656" lon="104.5805518"><ele>705.86</ele><time>2026-02-16T20:38:13.000Z</time></trkpt>
        <trkpt lat="28.6346716" lon="104.5806118"><ele>706.14</ele><time>2026-02-16T20:38:19.000Z</time></trkpt>
        <trkpt lat="28.6347072" lon="104.5806774"><ele>707.04</ele><time>2026-02-16T20:38:25.000Z</time></trkpt>
        <trkpt lat="28.6347444" lon="104.5807307"><ele>707.47</ele><time>2026-02-16T20:38:29.000Z</time></trkpt>
        <trkpt lat="28.6347807" lon="104.5807816"><ele>708</ele><time>2026-02-16T20:38:33.000Z</time></trkpt>
        <trkpt lat="28.6348224" lon="104.5808274"><ele>709.07</ele><time>2026-02-16T20:38:37.000Z</time></trkpt>
        <trkpt lat="28.6348679" lon="104.58086"><ele>708.6</ele><time>2026-02-16T20:38:41.000Z</time></trkpt>
        <trkpt lat="28.6349164" lon="104.5808836"><ele>707.41</ele><time>2026-02-16T20:38:45.000Z</time></trkpt>
        <trkpt lat="28.6349697" lon="104.5808935"><ele>706.83</ele><time>2026-02-16T20:38:49.000Z</time></trkpt>
        <trkpt lat="28.635017" lon="104.5809138"><ele>707.49</ele><time>2026-02-16T20:38:53.000Z</time></trkpt>
        <trkpt lat="28.6350486" lon="104.5809706"><ele>707.82</ele><time>2026-02-16T20:38:57.000Z</time></trkpt>
        <trkpt lat="28.6350948" lon="104.5810182"><ele>708.37</ele><time>2026-02-16T20:39:01.000Z</time></trkpt>
        <trkpt lat="28.6351513" lon="104.5810703"><ele>708</ele><time>2026-02-16T20:39:07.000Z</time></trkpt>
        <trkpt lat="28.6351733" lon="104.5811407"><ele>708.17</ele><time>2026-02-16T20:39:11.000Z</time></trkpt>
        <trkpt lat="28.6351629" lon="104.58121"><ele>707.91</ele><time>2026-02-16T20:39:15.000Z</time></trkpt>
        <trkpt lat="28.6351193" lon="104.581254"><ele>707.61</ele><time>2026-02-16T20:39:19.000Z</time></trkpt>
        <trkpt lat="28.6350677" lon="104.5812837"><ele>707.31</ele><time>2026-02-16T20:39:23.000Z</time></trkpt>
        <trkpt lat="28.6350423" lon="104.5813344"><ele>706.38</ele><time>2026-02-16T20:39:29.000Z</time></trkpt>
        <trkpt lat="28.635036" lon="104.581403"><ele>707.56</ele><time>2026-02-16T20:39:35.000Z</time></trkpt>
        <trkpt lat="28.6350397" lon="104.5814653"><ele>707.77</ele><time>2026-02-16T20:39:39.000Z</time></trkpt>
        <trkpt lat="28.6350595" lon="104.5815222"><ele>707.42</ele><time>2026-02-16T20:39:43.000Z</time></trkpt>
        <trkpt lat="28.6350733" lon="104.5815756"><ele>707.26</ele><time>2026-02-16T20:39:47.000Z</time></trkpt>
        <trkpt lat="28.6350665" lon="104.5816223"><ele>707.15</ele><time>2026-02-16T20:39:55.000Z</time></trkpt>
        <trkpt lat="28.6351115" lon="104.5816475"><ele>705.99</ele><time>2026-02-16T20:40:13.000Z</time></trkpt>
        <trkpt lat="28.6351875" lon="104.5816344"><ele>705.11</ele><time>2026-02-16T20:40:17.000Z</time></trkpt>
        <trkpt lat="28.6352605" lon="104.5816344"><ele>703.96</ele><time>2026-02-16T20:40:21.000Z</time></trkpt>
        <trkpt lat="28.635324" lon="104.581642"><ele>702.63</ele><time>2026-02-16T20:40:25.000Z</time></trkpt>
        <trkpt lat="28.6353812" lon="104.5816729"><ele>702.07</ele><time>2026-02-16T20:40:29.000Z</time></trkpt>
        <trkpt lat="28.6354205" lon="104.5817165"><ele>701.97</ele><time>2026-02-16T20:40:33.000Z</time></trkpt>
        <trkpt lat="28.6354668" lon="104.5817529"><ele>700.94</ele><time>2026-02-16T20:40:37.000Z</time></trkpt>
        <trkpt lat="28.6355283" lon="104.5817661"><ele>700.02</ele><time>2026-02-16T20:40:41.000Z</time></trkpt>
        <trkpt lat="28.635588" lon="104.5817719"><ele>700.92</ele><time>2026-02-16T20:40:45.000Z</time></trkpt>
        <trkpt lat="28.6356333" lon="104.5817457"><ele>702.02</ele><time>2026-02-16T20:40:49.000Z</time></trkpt>
        <trkpt lat="28.6356746" lon="104.581701"><ele>701.79</ele><time>2026-02-16T20:40:53.000Z</time></trkpt>
        <trkpt lat="28.6357257" lon="104.5816744"><ele>703.25</ele><time>2026-02-16T20:40:57.000Z</time></trkpt>
        <trkpt lat="28.6357913" lon="104.5816594"><ele>704.15</ele><time>2026-02-16T20:41:01.000Z</time></trkpt>
        <trkpt lat="28.635844" lon="104.5816761"><ele>704.76</ele><time>2026-02-16T20:41:05.000Z</time></trkpt>
        <trkpt lat="28.6358339" lon="104.5817197"><ele>703</ele><time>2026-02-16T20:41:11.000Z</time></trkpt>
        <trkpt lat="28.6358059" lon="104.5817814"><ele>700.89</ele><time>2026-02-16T20:41:15.000Z</time></trkpt>
        <trkpt lat="28.6357752" lon="104.5818393"><ele>699.43</ele><time>2026-02-16T20:41:17.000Z</time></trkpt>
        <trkpt lat="28.6357429" lon="104.5819169"><ele>697.95</ele><time>2026-02-16T20:41:21.000Z</time></trkpt>
        <trkpt lat="28.6357229" lon="104.5820007"><ele>696.91</ele><time>2026-02-16T20:41:25.000Z</time></trkpt>
        <trkpt lat="28.6357157" lon="104.5820694"><ele>695.19</ele><time>2026-02-16T20:41:29.000Z</time></trkpt>
        <trkpt lat="28.6357241" lon="104.5821281"><ele>693.44</ele><time>2026-02-16T20:41:33.000Z</time></trkpt>
        <trkpt lat="28.6357485" lon="104.5821833"><ele>692.69</ele><time>2026-02-16T20:41:37.000Z</time></trkpt>
        <trkpt lat="28.6357705" lon="104.5822346"><ele>692.16</ele><time>2026-02-16T20:41:41.000Z</time></trkpt>
        <trkpt lat="28.6357855" lon="104.5822898"><ele>691.08</ele><time>2026-02-16T20:41:51.000Z</time></trkpt>
        <trkpt lat="28.6357906" lon="104.5823131"><ele>689.93</ele><time>2026-02-16T20:41:53.000Z</time></trkpt>
        <trkpt lat="28.6357819" lon="104.582364"><ele>689.22</ele><time>2026-02-16T20:42:16.000Z</time></trkpt>
        <trkpt lat="28.6357876" lon="104.582422"><ele>689.5</ele><time>2026-02-16T20:42:20.000Z</time></trkpt>
        <trkpt lat="28.6357829" lon="104.5824963"><ele>688.82</ele><time>2026-02-16T20:42:24.000Z</time></trkpt>
        <trkpt lat="28.6357895" lon="104.5825779"><ele>687.29</ele><time>2026-02-16T20:42:28.000Z</time></trkpt>
        <trkpt lat="28.6358294" lon="104.5826301"><ele>685.35</ele><time>2026-02-16T20:42:32.000Z</time></trkpt>
        <trkpt lat="28.6358628" lon="104.5826849"><ele>683.56</ele><time>2026-02-16T20:42:36.000Z</time></trkpt>
        <trkpt lat="28.6358951" lon="104.5827452"><ele>682.6</ele><time>2026-02-16T20:42:40.000Z</time></trkpt>
        <trkpt lat="28.6359092" lon="104.5828094"><ele>681.75</ele><time>2026-02-16T20:42:44.000Z</time></trkpt>
        <trkpt lat="28.6359503" lon="104.5828098"><ele>680.51</ele><time>2026-02-16T20:42:48.000Z</time></trkpt>
        <trkpt lat="28.6359578" lon="104.5827995"><ele>680.54</ele><time>2026-02-16T20:42:50.000Z</time></trkpt>
        <trkpt lat="28.6359578" lon="104.5827995"><ele>680.54</ele><time>2026-02-16T20:42:58.000Z</time></trkpt>
        <trkpt lat="28.6360028" lon="104.5828257"><ele>680.42</ele><time>2026-02-16T20:42:59.000Z</time></trkpt>
        <trkpt lat="28.6360028" lon="104.5828257"><ele>680.42</ele><time>2026-02-16T20:43:04.000Z</time></trkpt>
        <trkpt lat="28.6360579" lon="104.5828591"><ele>680.62</ele><time>2026-02-16T20:43:08.000Z</time></trkpt>
        <trkpt lat="28.6361191" lon="104.5828955"><ele>680.54</ele><time>2026-02-16T20:43:12.000Z</time></trkpt>
        <trkpt lat="28.6361798" lon="104.5829286"><ele>680.42</ele><time>2026-02-16T20:43:16.000Z</time></trkpt>
        <trkpt lat="28.6362336" lon="104.5829606"><ele>679.7</ele><time>2026-02-16T20:43:20.000Z</time></trkpt>
        <trkpt lat="28.6362846" lon="104.5829929"><ele>679.96</ele><time>2026-02-16T20:43:24.000Z</time></trkpt>
        <trkpt lat="28.6363379" lon="104.583012"><ele>681.42</ele><time>2026-02-16T20:43:28.000Z</time></trkpt>
        <trkpt lat="28.6363916" lon="104.5829955"><ele>683.51</ele><time>2026-02-16T20:43:32.000Z</time></trkpt>
        <trkpt lat="28.6364486" lon="104.5829612"><ele>685.96</ele><time>2026-02-16T20:43:36.000Z</time></trkpt>
        <trkpt lat="28.6365076" lon="104.5829302"><ele>687.2</ele><time>2026-02-16T20:43:40.000Z</time></trkpt>
        <trkpt lat="28.6365715" lon="104.5829232"><ele>688.25</ele><time>2026-02-16T20:43:44.000Z</time></trkpt>
        <trkpt lat="28.6366387" lon="104.5829446"><ele>689.03</ele><time>2026-02-16T20:43:48.000Z</time></trkpt>
        <trkpt lat="28.636667" lon="104.5829722"><ele>688.44</ele><time>2026-02-16T20:43:52.000Z</time></trkpt>
        <trkpt lat="28.6366952" lon="104.5830146"><ele>688.31</ele><time>2026-02-16T20:44:00.000Z</time></trkpt>
        <trkpt lat="28.6367004" lon="104.583076"><ele>687.27</ele><time>2026-02-16T20:44:04.000Z</time></trkpt>
        <trkpt lat="28.6366994" lon="104.5831466"><ele>685.82</ele><time>2026-02-16T20:44:08.000Z</time></trkpt>
        <trkpt lat="28.6367011" lon="104.583222"><ele>684.83</ele><time>2026-02-16T20:44:12.000Z</time></trkpt>
        <trkpt lat="28.6367074" lon="104.5832883"><ele>685.22</ele><time>2026-02-16T20:44:16.000Z</time></trkpt>
        <trkpt lat="28.6367306" lon="104.5833454"><ele>685.14</ele><time>2026-02-16T20:44:20.000Z</time></trkpt>
        <trkpt lat="28.6367776" lon="104.5833843"><ele>685.92</ele><time>2026-02-16T20:44:24.000Z</time></trkpt>
        <trkpt lat="28.6368335" lon="104.5833992"><ele>686.53</ele><time>2026-02-16T20:44:28.000Z</time></trkpt>
        <trkpt lat="28.6368913" lon="104.5834039"><ele>686.93</ele><time>2026-02-16T20:44:32.000Z</time></trkpt>
        <trkpt lat="28.6369456" lon="104.5834101"><ele>687.14</ele><time>2026-02-16T20:44:36.000Z</time></trkpt>
        <trkpt lat="28.6369972" lon="104.5834245"><ele>687.01</ele><time>2026-02-16T20:44:40.000Z</time></trkpt>
        <trkpt lat="28.6370488" lon="104.5834495"><ele>687.33</ele><time>2026-02-16T20:44:44.000Z</time></trkpt>
        <trkpt lat="28.6370956" lon="104.5834853"><ele>687.52</ele><time>2026-02-16T20:44:48.000Z</time></trkpt>
        <trkpt lat="28.6371378" lon="104.5835328"><ele>687.61</ele><time>2026-02-16T20:44:52.000Z</time></trkpt>
        <trkpt lat="28.6371752" lon="104.5835815"><ele>687.7</ele><time>2026-02-16T20:44:56.000Z</time></trkpt>
        <trkpt lat="28.6372052" lon="104.5836354"><ele>687.85</ele><time>2026-02-16T20:45:00.000Z</time></trkpt>
        <trkpt lat="28.6372321" lon="104.5836919"><ele>688.23</ele><time>2026-02-16T20:45:04.000Z</time></trkpt>
        <trkpt lat="28.637259" lon="104.5837488"><ele>688.59</ele><time>2026-02-16T20:45:08.000Z</time></trkpt>
        <trkpt lat="28.6372797" lon="104.5838059"><ele>688.77</ele><time>2026-02-16T20:45:12.000Z</time></trkpt>
        <trkpt lat="28.6372968" lon="104.5838337"><ele>689.41</ele><time>2026-02-16T20:45:16.000Z</time></trkpt>
        <trkpt lat="28.6373379" lon="104.5837915"><ele>689.64</ele><time>2026-02-16T20:45:34.000Z</time></trkpt>
        <trkpt lat="28.6373785" lon="104.5837432"><ele>689.18</ele><time>2026-02-16T20:45:38.000Z</time></trkpt>
        <trkpt lat="28.6374218" lon="104.5836889"><ele>689.21</ele><time>2026-02-16T20:45:42.000Z</time></trkpt>
        <trkpt lat="28.6374432" lon="104.5836142"><ele>689.52</ele><time>2026-02-16T20:45:46.000Z</time></trkpt>
        <trkpt lat="28.6374406" lon="104.5835461"><ele>690</ele><time>2026-02-16T20:45:50.000Z</time></trkpt>
        <trkpt lat="28.6374388" lon="104.583519"><ele>689.2</ele><time>2026-02-16T20:45:52.000Z</time></trkpt>
        <trkpt lat="28.6374309" lon="104.5835739"><ele>687.9</ele><time>2026-02-16T20:46:06.000Z</time></trkpt>
        <trkpt lat="28.6374236" lon="104.5836496"><ele>686.46</ele><time>2026-02-16T20:46:10.000Z</time></trkpt>
        <trkpt lat="28.6373987" lon="104.583719"><ele>685.77</ele><time>2026-02-16T20:46:14.000Z</time></trkpt>
        <trkpt lat="28.6373595" lon="104.5837641"><ele>686.45</ele><time>2026-02-16T20:46:18.000Z</time></trkpt>
        <trkpt lat="28.6373141" lon="104.5837942"><ele>686.95</ele><time>2026-02-16T20:46:22.000Z</time></trkpt>
        <trkpt lat="28.6372661" lon="104.5838188"><ele>687.22</ele><time>2026-02-16T20:46:26.000Z</time></trkpt>
        <trkpt lat="28.6372316" lon="104.5838649"><ele>687.66</ele><time>2026-02-16T20:46:30.000Z</time></trkpt>
        <trkpt lat="28.6372021" lon="104.5839178"><ele>688.25</ele><time>2026-02-16T20:46:34.000Z</time></trkpt>
        <trkpt lat="28.6371668" lon="104.5839716"><ele>687.4</ele><time>2026-02-16T20:46:38.000Z</time></trkpt>
        <trkpt lat="28.6371337" lon="104.584024"><ele>686.19</ele><time>2026-02-16T20:46:42.000Z</time></trkpt>
        <trkpt lat="28.637107" lon="104.5840763"><ele>684.97</ele><time>2026-02-16T20:46:46.000Z</time></trkpt>
        <trkpt lat="28.637087" lon="104.5841338"><ele>684.85</ele><time>2026-02-16T20:46:50.000Z</time></trkpt>
        <trkpt lat="28.6370787" lon="104.5842008"><ele>684.78</ele><time>2026-02-16T20:46:54.000Z</time></trkpt>
        <trkpt lat="28.637085" lon="104.5842748"><ele>683.92</ele><time>2026-02-16T20:46:58.000Z</time></trkpt>
        <trkpt lat="28.6371143" lon="104.5843391"><ele>683.3</ele><time>2026-02-16T20:47:02.000Z</time></trkpt>
        <trkpt lat="28.6371591" lon="104.5843863"><ele>682.67</ele><time>2026-02-16T20:47:06.000Z</time></trkpt>
        <trkpt lat="28.6372096" lon="104.584429"><ele>682.52</ele><time>2026-02-16T20:47:10.000Z</time></trkpt>
        <trkpt lat="28.6372493" lon="104.5844823"><ele>683.01</ele><time>2026-02-16T20:47:14.000Z</time></trkpt>
        <trkpt lat="28.6372866" lon="104.5845347"><ele>682.06</ele><time>2026-02-16T20:47:18.000Z</time></trkpt>
        <trkpt lat="28.637326" lon="104.584585"><ele>681.06</ele><time>2026-02-16T20:47:22.000Z</time></trkpt>
        <trkpt lat="28.6373663" lon="104.5846241"><ele>679.68</ele><time>2026-02-16T20:47:26.000Z</time></trkpt>
        <trkpt lat="28.6374048" lon="104.5846659"><ele>678.26</ele><time>2026-02-16T20:47:30.000Z</time></trkpt>
        <trkpt lat="28.6374433" lon="104.5846959"><ele>677.98</ele><time>2026-02-16T20:47:34.000Z</time></trkpt>
        <trkpt lat="28.6374607" lon="104.5847086"><ele>677.66</ele><time>2026-02-16T20:47:38.000Z</time></trkpt>
        <trkpt lat="28.6374773" lon="104.5847581"><ele>677.22</ele><time>2026-02-16T20:47:50.000Z</time></trkpt>
        <trkpt lat="28.6374853" lon="104.5848155"><ele>676.5</ele><time>2026-02-16T20:47:54.000Z</time></trkpt>
        <trkpt lat="28.6374976" lon="104.5848748"><ele>676.03</ele><time>2026-02-16T20:47:58.000Z</time></trkpt>
        <trkpt lat="28.6375213" lon="104.5849242"><ele>675.64</ele><time>2026-02-16T20:48:02.000Z</time></trkpt>
        <trkpt lat="28.637556" lon="104.5849617"><ele>675.28</ele><time>2026-02-16T20:48:06.000Z</time></trkpt>
        <trkpt lat="28.6375975" lon="104.5849881"><ele>674.87</ele><time>2026-02-16T20:48:10.000Z</time></trkpt>
        <trkpt lat="28.6376355" lon="104.5850182"><ele>674.35</ele><time>2026-02-16T20:48:14.000Z</time></trkpt>
        <trkpt lat="28.6376704" lon="104.5850567"><ele>673.89</ele><time>2026-02-16T20:48:18.000Z</time></trkpt>
        <trkpt lat="28.6377018" lon="104.585104"><ele>673.69</ele><time>2026-02-16T20:48:22.000Z</time></trkpt>
        <trkpt lat="28.6377348" lon="104.5851512"><ele>673.88</ele><time>2026-02-16T20:48:26.000Z</time></trkpt>
        <trkpt lat="28.6377649" lon="104.585201"><ele>674.38</ele><time>2026-02-16T20:48:30.000Z</time></trkpt>
        <trkpt lat="28.6377851" lon="104.5852515"><ele>675.15</ele><time>2026-02-16T20:48:34.000Z</time></trkpt>
        <trkpt lat="28.637808" lon="104.5853002"><ele>675.97</ele><time>2026-02-16T20:48:38.000Z</time></trkpt>
        <trkpt lat="28.637824" lon="104.5853514"><ele>675.7</ele><time>2026-02-16T20:48:42.000Z</time></trkpt>
        <trkpt lat="28.6378385" lon="104.5854079"><ele>674.89</ele><time>2026-02-16T20:48:46.000Z</time></trkpt>
        <trkpt lat="28.6378557" lon="104.585465"><ele>675.9</ele><time>2026-02-16T20:48:50.000Z</time></trkpt>
        <trkpt lat="28.6378767" lon="104.5855203"><ele>677.96</ele><time>2026-02-16T20:48:54.000Z</time></trkpt>
        <trkpt lat="28.6378848" lon="104.5855813"><ele>679.35</ele><time>2026-02-16T20:48:58.000Z</time></trkpt>
        <trkpt lat="28.6378797" lon="104.5856549"><ele>681.77</ele><time>2026-02-16T20:49:02.000Z</time></trkpt>
        <trkpt lat="28.6378696" lon="104.5857317"><ele>683.36</ele><time>2026-02-16T20:49:08.000Z</time></trkpt>
        <trkpt lat="28.637846" lon="104.5857876"><ele>685.49</ele><time>2026-02-16T20:49:12.000Z</time></trkpt>
        <trkpt lat="28.6378169" lon="104.5858334"><ele>687.41</ele><time>2026-02-16T20:49:16.000Z</time></trkpt>
        <trkpt lat="28.6377813" lon="104.5858797"><ele>690.34</ele><time>2026-02-16T20:49:20.000Z</time></trkpt>
        <trkpt lat="28.6377479" lon="104.5859305"><ele>691.7</ele><time>2026-02-16T20:49:24.000Z</time></trkpt>
        <trkpt lat="28.6377219" lon="104.5859907"><ele>692.6</ele><time>2026-02-16T20:49:28.000Z</time></trkpt>
        <trkpt lat="28.6377228" lon="104.5860554"><ele>692.98</ele><time>2026-02-16T20:49:32.000Z</time></trkpt>
        <trkpt lat="28.6377332" lon="104.5861319"><ele>691.96</ele><time>2026-02-16T20:49:38.000Z</time></trkpt>
        <trkpt lat="28.6377501" lon="104.5862007"><ele>691.34</ele><time>2026-02-16T20:49:42.000Z</time></trkpt>
        <trkpt lat="28.6377598" lon="104.5862618"><ele>691.69</ele><time>2026-02-16T20:49:46.000Z</time></trkpt>
        <trkpt lat="28.6377546" lon="104.586335"><ele>693.22</ele><time>2026-02-16T20:49:50.000Z</time></trkpt>
        <trkpt lat="28.6377569" lon="104.5864123"><ele>693.95</ele><time>2026-02-16T20:49:54.000Z</time></trkpt>
        <trkpt lat="28.6377628" lon="104.5864868"><ele>694.56</ele><time>2026-02-16T20:49:58.000Z</time></trkpt>
        <trkpt lat="28.6377709" lon="104.586559"><ele>694.49</ele><time>2026-02-16T20:50:02.000Z</time></trkpt>
        <trkpt lat="28.6377747" lon="104.5866347"><ele>695.03</ele><time>2026-02-16T20:50:06.000Z</time></trkpt>
        <trkpt lat="28.6377908" lon="104.5867069"><ele>695.28</ele><time>2026-02-16T20:50:10.000Z</time></trkpt>
        <trkpt lat="28.6378123" lon="104.5867739"><ele>694.57</ele><time>2026-02-16T20:50:14.000Z</time></trkpt>
        <trkpt lat="28.6378442" lon="104.5868354"><ele>694.21</ele><time>2026-02-16T20:50:18.000Z</time></trkpt>
        <trkpt lat="28.6378894" lon="104.5868862"><ele>693.46</ele><time>2026-02-16T20:50:22.000Z</time></trkpt>
        <trkpt lat="28.6379314" lon="104.5869393"><ele>691.45</ele><time>2026-02-16T20:50:26.000Z</time></trkpt>
        <trkpt lat="28.6379717" lon="104.586994"><ele>688.92</ele><time>2026-02-16T20:50:30.000Z</time></trkpt>
        <trkpt lat="28.6380297" lon="104.5870063"><ele>687.48</ele><time>2026-02-16T20:50:34.000Z</time></trkpt>
        <trkpt lat="28.6381006" lon="104.5869961"><ele>685.05</ele><time>2026-02-16T20:50:38.000Z</time></trkpt>
        <trkpt lat="28.6381507" lon="104.5870202"><ele>684.43</ele><time>2026-02-16T20:50:42.000Z</time></trkpt>
        <trkpt lat="28.6381978" lon="104.5870604"><ele>686.79</ele><time>2026-02-16T20:50:46.000Z</time></trkpt>
        <trkpt lat="28.6382403" lon="104.5870578"><ele>689.19</ele><time>2026-02-16T20:50:50.000Z</time></trkpt>
        <trkpt lat="28.6382687" lon="104.5870127"><ele>691.61</ele><time>2026-02-16T20:50:54.000Z</time></trkpt>
        <trkpt lat="28.6383116" lon="104.5869592"><ele>694.53</ele><time>2026-02-16T20:51:00.000Z</time></trkpt>
        <trkpt lat="28.6383655" lon="104.5869087"><ele>697.14</ele><time>2026-02-16T20:51:10.000Z</time></trkpt>
        <trkpt lat="28.6384217" lon="104.5868896"><ele>699.17</ele><time>2026-02-16T20:51:16.000Z</time></trkpt>
        <trkpt lat="28.6384634" lon="104.5868547"><ele>699.8</ele><time>2026-02-16T20:51:22.000Z</time></trkpt>
        <trkpt lat="28.638499" lon="104.5868035"><ele>698.83</ele><time>2026-02-16T20:51:28.000Z</time></trkpt>
        <trkpt lat="28.6385331" lon="104.5867644"><ele>697.55</ele><time>2026-02-16T20:51:32.000Z</time></trkpt>
        <trkpt lat="28.6385791" lon="104.5867355"><ele>696.21</ele><time>2026-02-16T20:51:40.000Z</time></trkpt>
        <trkpt lat="28.6386261" lon="104.5867062"><ele>696.02</ele><time>2026-02-16T20:51:44.000Z</time></trkpt>
        <trkpt lat="28.6386738" lon="104.586676"><ele>696.81</ele><time>2026-02-16T20:51:48.000Z</time></trkpt>
        <trkpt lat="28.6387071" lon="104.5866306"><ele>697.54</ele><time>2026-02-16T20:51:52.000Z</time></trkpt>
        <trkpt lat="28.6387067" lon="104.5866028"><ele>697.26</ele><time>2026-02-16T20:51:56.000Z</time></trkpt>
        <trkpt lat="28.6387067" lon="104.5866028"><ele>697.26</ele><time>2026-02-16T20:52:06.000Z</time></trkpt>
        <trkpt lat="28.6386756" lon="104.5866258"><ele>696.69</ele><time>2026-02-16T20:52:11.000Z</time></trkpt>
        <trkpt lat="28.6386756" lon="104.5866258"><ele>696.69</ele><time>2026-02-16T20:52:14.000Z</time></trkpt>
        <trkpt lat="28.638641" lon="104.5866712"><ele>698.01</ele><time>2026-02-16T20:52:16.000Z</time></trkpt>
        <trkpt lat="28.6386102" lon="104.586724"><ele>698.42</ele><time>2026-02-16T20:52:20.000Z</time></trkpt>
        <trkpt lat="28.6385714" lon="104.5867728"><ele>697.73</ele><time>2026-02-16T20:52:24.000Z</time></trkpt>
        <trkpt lat="28.6385229" lon="104.5868298"><ele>696.11</ele><time>2026-02-16T20:52:28.000Z</time></trkpt>
        <trkpt lat="28.6384786" lon="104.5868739"><ele>695.22</ele><time>2026-02-16T20:52:32.000Z</time></trkpt>
        <trkpt lat="28.6384471" lon="104.5869176"><ele>694.06</ele><time>2026-02-16T20:52:36.000Z</time></trkpt>
        <trkpt lat="28.6384291" lon="104.5869789"><ele>693.92</ele><time>2026-02-16T20:52:40.000Z</time></trkpt>
        <trkpt lat="28.6384062" lon="104.5870359"><ele>694.4</ele><time>2026-02-16T20:52:44.000Z</time></trkpt>
        <trkpt lat="28.6383872" lon="104.5870945"><ele>695.21</ele><time>2026-02-16T20:52:50.000Z</time></trkpt>
        <trkpt lat="28.6383549" lon="104.5871484"><ele>695.44</ele><time>2026-02-16T20:52:56.000Z</time></trkpt>
        <trkpt lat="28.6383749" lon="104.5871823"><ele>695.74</ele><time>2026-02-16T20:53:04.000Z</time></trkpt>
        <trkpt lat="28.6383749" lon="104.5871516"><ele>696.92</ele><time>2026-02-16T20:53:34.000Z</time></trkpt>
        <trkpt lat="28.6383929" lon="104.5871015"><ele>698.65</ele><time>2026-02-16T20:54:20.000Z</time></trkpt>
        <trkpt lat="28.6384167" lon="104.5870452"><ele>698.99</ele><time>2026-02-16T20:54:24.000Z</time></trkpt>
        <trkpt lat="28.6384352" lon="104.5869754"><ele>699.02</ele><time>2026-02-16T20:54:30.000Z</time></trkpt>
        <trkpt lat="28.6384495" lon="104.5869167"><ele>698.79</ele><time>2026-02-16T20:54:34.000Z</time></trkpt>
        <trkpt lat="28.6383873" lon="104.5869107"><ele>698.25</ele><time>2026-02-16T20:54:42.000Z</time></trkpt>
        <trkpt lat="28.638328" lon="104.5869357"><ele>697.5</ele><time>2026-02-16T20:54:44.000Z</time></trkpt>
        <trkpt lat="28.6382847" lon="104.5869764"><ele>696.7</ele><time>2026-02-16T20:54:46.000Z</time></trkpt>
        <trkpt lat="28.638245" lon="104.5870284"><ele>695.92</ele><time>2026-02-16T20:54:48.000Z</time></trkpt>
        <trkpt lat="28.6381972" lon="104.587036"><ele>694.89</ele><time>2026-02-16T20:54:52.000Z</time></trkpt>
        <trkpt lat="28.6381332" lon="104.5869899"><ele>693.7</ele><time>2026-02-16T20:54:56.000Z</time></trkpt>
        <trkpt lat="28.6380596" lon="104.5869742"><ele>692.02</ele><time>2026-02-16T20:54:58.000Z</time></trkpt>
        <trkpt lat="28.6379885" lon="104.5869795"><ele>690.11</ele><time>2026-02-16T20:55:00.000Z</time></trkpt>
        <trkpt lat="28.6379349" lon="104.5869552"><ele>689.66</ele><time>2026-02-16T20:55:04.000Z</time></trkpt>
        <trkpt lat="28.6378932" lon="104.5869119"><ele>688.9</ele><time>2026-02-16T20:55:08.000Z</time></trkpt>
        <trkpt lat="28.6378631" lon="104.5868528"><ele>688.95</ele><time>2026-02-16T20:55:12.000Z</time></trkpt>
        <trkpt lat="28.6378393" lon="104.5867801"><ele>687.05</ele><time>2026-02-16T20:55:16.000Z</time></trkpt>
        <trkpt lat="28.6378225" lon="104.5867067"><ele>686.14</ele><time>2026-02-16T20:55:20.000Z</time></trkpt>
        <trkpt lat="28.6378148" lon="104.5866402"><ele>686.38</ele><time>2026-02-16T20:55:24.000Z</time></trkpt>
        <trkpt lat="28.6378102" lon="104.5865694"><ele>687.03</ele><time>2026-02-16T20:55:28.000Z</time></trkpt>
        <trkpt lat="28.637814" lon="104.5865008"><ele>688.25</ele><time>2026-02-16T20:55:32.000Z</time></trkpt>
        <trkpt lat="28.6378206" lon="104.5864364"><ele>690.1</ele><time>2026-02-16T20:55:36.000Z</time></trkpt>
        <trkpt lat="28.637817" lon="104.5863687"><ele>690.13</ele><time>2026-02-16T20:55:40.000Z</time></trkpt>
        <trkpt lat="28.637812" lon="104.5863021"><ele>689.59</ele><time>2026-02-16T20:55:44.000Z</time></trkpt>
        <trkpt lat="28.6377981" lon="104.5862356"><ele>689.88</ele><time>2026-02-16T20:55:48.000Z</time></trkpt>
        <trkpt lat="28.6377774" lon="104.5861672"><ele>690.24</ele><time>2026-02-16T20:55:52.000Z</time></trkpt>
        <trkpt lat="28.6377491" lon="104.5860952"><ele>689.96</ele><time>2026-02-16T20:55:56.000Z</time></trkpt>
        <trkpt lat="28.6377586" lon="104.5860074"><ele>688.68</ele><time>2026-02-16T20:56:00.000Z</time></trkpt>
        <trkpt lat="28.6377889" lon="104.5859409"><ele>685.12</ele><time>2026-02-16T20:56:02.000Z</time></trkpt>
        <trkpt lat="28.637828" lon="104.5858844"><ele>682.92</ele><time>2026-02-16T20:56:04.000Z</time></trkpt>
        <trkpt lat="28.6378645" lon="104.5858256"><ele>681.75</ele><time>2026-02-16T20:56:06.000Z</time></trkpt>
        <trkpt lat="28.6378934" lon="104.5857715"><ele>681.41</ele><time>2026-02-16T20:56:08.000Z</time></trkpt>
        <trkpt lat="28.6379084" lon="104.5857155"><ele>680.96</ele><time>2026-02-16T20:56:10.000Z</time></trkpt>
        <trkpt lat="28.6378987" lon="104.585638"><ele>680.86</ele><time>2026-02-16T20:56:14.000Z</time></trkpt>
        <trkpt lat="28.6378808" lon="104.5855606"><ele>680.76</ele><time>2026-02-16T20:56:18.000Z</time></trkpt>
        <trkpt lat="28.6378494" lon="104.5855026"><ele>681.55</ele><time>2026-02-16T20:56:22.000Z</time></trkpt>
        <trkpt lat="28.6378178" lon="104.5854417"><ele>681.81</ele><time>2026-02-16T20:56:26.000Z</time></trkpt>
        <trkpt lat="28.6377895" lon="104.5853718"><ele>682.41</ele><time>2026-02-16T20:56:30.000Z</time></trkpt>
        <trkpt lat="28.6377679" lon="104.5853002"><ele>683.07</ele><time>2026-02-16T20:56:34.000Z</time></trkpt>
        <trkpt lat="28.6377562" lon="104.5852243"><ele>683.42</ele><time>2026-02-16T20:56:38.000Z</time></trkpt>
        <trkpt lat="28.6377416" lon="104.5851387"><ele>682.29</ele><time>2026-02-16T20:56:42.000Z</time></trkpt>
        <trkpt lat="28.6377458" lon="104.585064"><ele>681.4</ele><time>2026-02-16T20:56:46.000Z</time></trkpt>
        <trkpt lat="28.6377633" lon="104.5849971"><ele>679.38</ele><time>2026-02-16T20:56:50.000Z</time></trkpt>
        <trkpt lat="28.6377864" lon="104.584935"><ele>677.4</ele><time>2026-02-16T20:56:52.000Z</time></trkpt>
        <trkpt lat="28.6378262" lon="104.5848863"><ele>675.5</ele><time>2026-02-16T20:56:54.000Z</time></trkpt>
        <trkpt lat="28.6378754" lon="104.584847"><ele>673.81</ele><time>2026-02-16T20:56:56.000Z</time></trkpt>
        <trkpt lat="28.6379154" lon="104.5848068"><ele>672.63</ele><time>2026-02-16T20:56:58.000Z</time></trkpt>
        <trkpt lat="28.6379332" lon="104.5847384"><ele>671.5</ele><time>2026-02-16T20:57:02.000Z</time></trkpt>
        <trkpt lat="28.6379098" lon="104.5846682"><ele>670.8</ele><time>2026-02-16T20:57:06.000Z</time></trkpt>
        <trkpt lat="28.6378814" lon="104.5846017"><ele>671.03</ele><time>2026-02-16T20:57:10.000Z</time></trkpt>
        <trkpt lat="28.6379075" lon="104.5845461"><ele>670.89</ele><time>2026-02-16T20:57:14.000Z</time></trkpt>
        <trkpt lat="28.6379614" lon="104.5844992"><ele>670.48</ele><time>2026-02-16T20:57:18.000Z</time></trkpt>
        <trkpt lat="28.6380316" lon="104.5844898"><ele>669.44</ele><time>2026-02-16T20:57:22.000Z</time></trkpt>
        <trkpt lat="28.6381031" lon="104.5844851"><ele>669.54</ele><time>2026-02-16T20:57:26.000Z</time></trkpt>
        <trkpt lat="28.6381735" lon="104.5844876"><ele>670.07</ele><time>2026-02-16T20:57:30.000Z</time></trkpt>
        <trkpt lat="28.6382427" lon="104.5845285"><ele>670.03</ele><time>2026-02-16T20:57:34.000Z</time></trkpt>
        <trkpt lat="28.638291" lon="104.5845766"><ele>669.29</ele><time>2026-02-16T20:57:38.000Z</time></trkpt>
        <trkpt lat="28.6383431" lon="104.5846148"><ele>668.18</ele><time>2026-02-16T20:57:42.000Z</time></trkpt>
        <trkpt lat="28.6383986" lon="104.5846393"><ele>666.48</ele><time>2026-02-16T20:57:46.000Z</time></trkpt>
        <trkpt lat="28.6383752" lon="104.5846192"><ele>664.71</ele><time>2026-02-16T20:58:02.000Z</time></trkpt>
        <trkpt lat="28.6383208" lon="104.5845857"><ele>665.74</ele><time>2026-02-16T20:58:08.000Z</time></trkpt>
        <trkpt lat="28.6382647" lon="104.58454"><ele>666.17</ele><time>2026-02-16T20:58:14.000Z</time></trkpt>
        <trkpt lat="28.6382146" lon="104.5845044"><ele>668.42</ele><time>2026-02-16T20:58:18.000Z</time></trkpt>
        <trkpt lat="28.6381712" lon="104.5844688"><ele>669.73</ele><time>2026-02-16T20:58:22.000Z</time></trkpt>
        <trkpt lat="28.6381253" lon="104.584425"><ele>670.31</ele><time>2026-02-16T20:58:28.000Z</time></trkpt>
        <trkpt lat="28.6380838" lon="104.5843733"><ele>671.86</ele><time>2026-02-16T20:58:34.000Z</time></trkpt>
        <trkpt lat="28.6380529" lon="104.5843467"><ele>673.67</ele><time>2026-02-16T20:58:38.000Z</time></trkpt>
        <trkpt lat="28.6380112" lon="104.5843291"><ele>675.08</ele><time>2026-02-16T20:58:54.000Z</time></trkpt>
        <trkpt lat="28.6380104" lon="104.5842837"><ele>675.59</ele><time>2026-02-16T20:59:04.000Z</time></trkpt>
        <trkpt lat="28.6380478" lon="104.5842492"><ele>675.59</ele><time>2026-02-16T20:59:10.000Z</time></trkpt>
        <trkpt lat="28.638095" lon="104.5842238"><ele>675.76</ele><time>2026-02-16T20:59:14.000Z</time></trkpt>
        <trkpt lat="28.6381463" lon="104.5841907"><ele>675.84</ele><time>2026-02-16T20:59:18.000Z</time></trkpt>
        <trkpt lat="28.6381814" lon="104.5841341"><ele>676.08</ele><time>2026-02-16T20:59:22.000Z</time></trkpt>
        <trkpt lat="28.6381802" lon="104.5840728"><ele>676.68</ele><time>2026-02-16T20:59:26.000Z</time></trkpt>
        <trkpt lat="28.6381664" lon="104.5840155"><ele>676.94</ele><time>2026-02-16T20:59:30.000Z</time></trkpt>
        <trkpt lat="28.6381647" lon="104.5839563"><ele>677.83</ele><time>2026-02-16T20:59:34.000Z</time></trkpt>
        <trkpt lat="28.6381824" lon="104.5838948"><ele>678.01</ele><time>2026-02-16T20:59:38.000Z</time></trkpt>
        <trkpt lat="28.638215" lon="104.5838427"><ele>678.74</ele><time>2026-02-16T20:59:42.000Z</time></trkpt>
        <trkpt lat="28.638256" lon="104.5837947"><ele>680.04</ele><time>2026-02-16T20:59:46.000Z</time></trkpt>
        <trkpt lat="28.6382913" lon="104.5837435"><ele>680.99</ele><time>2026-02-16T20:59:50.000Z</time></trkpt>
        <trkpt lat="28.6383133" lon="104.5836865"><ele>680.85</ele><time>2026-02-16T20:59:54.000Z</time></trkpt>
        <trkpt lat="28.6383499" lon="104.5836522"><ele>679.3</ele><time>2026-02-16T21:00:02.000Z</time></trkpt>
        <trkpt lat="28.638382" lon="104.5835942"><ele>679.18</ele><time>2026-02-16T21:00:16.000Z</time></trkpt>
        <trkpt lat="28.6384159" lon="104.5835408"><ele>678.56</ele><time>2026-02-16T21:00:20.000Z</time></trkpt>
        <trkpt lat="28.6384609" lon="104.5835071"><ele>677.94</ele><time>2026-02-16T21:00:24.000Z</time></trkpt>
        <trkpt lat="28.6385145" lon="104.5834864"><ele>677.19</ele><time>2026-02-16T21:00:28.000Z</time></trkpt>
        <trkpt lat="28.6385792" lon="104.5834569"><ele>676.38</ele><time>2026-02-16T21:00:32.000Z</time></trkpt>
        <trkpt lat="28.6386388" lon="104.5834382"><ele>673.9</ele><time>2026-02-16T21:00:34.000Z</time></trkpt>
        <trkpt lat="28.6387" lon="104.5834211"><ele>671.75</ele><time>2026-02-16T21:00:36.000Z</time></trkpt>
        <trkpt lat="28.6387621" lon="104.583381"><ele>669.87</ele><time>2026-02-16T21:00:38.000Z</time></trkpt>
        <trkpt lat="28.6387826" lon="104.5833222"><ele>668.35</ele><time>2026-02-16T21:00:40.000Z</time></trkpt>
        <trkpt lat="28.6387508" lon="104.5832652"><ele>667.64</ele><time>2026-02-16T21:00:44.000Z</time></trkpt>
        <trkpt lat="28.6386943" lon="104.5832235"><ele>667.25</ele><time>2026-02-16T21:00:48.000Z</time></trkpt>
        <trkpt lat="28.638649" lon="104.5831866"><ele>666.8</ele><time>2026-02-16T21:00:52.000Z</time></trkpt>
        <trkpt lat="28.638676" lon="104.5831533"><ele>666.16</ele><time>2026-02-16T21:00:56.000Z</time></trkpt>
        <trkpt lat="28.6387277" lon="104.5831289"><ele>665.63</ele><time>2026-02-16T21:01:00.000Z</time></trkpt>
        <trkpt lat="28.6387827" lon="104.583107"><ele>665.12</ele><time>2026-02-16T21:01:04.000Z</time></trkpt>
        <trkpt lat="28.6388378" lon="104.5830849"><ele>664.71</ele><time>2026-02-16T21:01:08.000Z</time></trkpt>
        <trkpt lat="28.6388986" lon="104.5830603"><ele>663.79</ele><time>2026-02-16T21:01:12.000Z</time></trkpt>
        <trkpt lat="28.6389556" lon="104.5830377"><ele>662.76</ele><time>2026-02-16T21:01:16.000Z</time></trkpt>
        <trkpt lat="28.6390081" lon="104.5830151"><ele>661.85</ele><time>2026-02-16T21:01:20.000Z</time></trkpt>
        <trkpt lat="28.6390646" lon="104.5829911"><ele>661.33</ele><time>2026-02-16T21:01:24.000Z</time></trkpt>
        <trkpt lat="28.6391262" lon="104.5829606"><ele>659.74</ele><time>2026-02-16T21:01:28.000Z</time></trkpt>
        <trkpt lat="28.6391886" lon="104.5829392"><ele>657.68</ele><time>2026-02-16T21:01:32.000Z</time></trkpt>
        <trkpt lat="28.6392581" lon="104.5829193"><ele>656.21</ele><time>2026-02-16T21:01:36.000Z</time></trkpt>
        <trkpt lat="28.6393296" lon="104.5829075"><ele>655.76</ele><time>2026-02-16T21:01:40.000Z</time></trkpt>
        <trkpt lat="28.6393926" lon="104.5829168"><ele>655.36</ele><time>2026-02-16T21:01:44.000Z</time></trkpt>
        <trkpt lat="28.639451" lon="104.5829319"><ele>653.33</ele><time>2026-02-16T21:01:48.000Z</time></trkpt>
        <trkpt lat="28.6395166" lon="104.5829598"><ele>650.86</ele><time>2026-02-16T21:01:52.000Z</time></trkpt>
        <trkpt lat="28.6395665" lon="104.5829936"><ele>650.14</ele><time>2026-02-16T21:01:56.000Z</time></trkpt>
        <trkpt lat="28.6395945" lon="104.5830233"><ele>649.92</ele><time>2026-02-16T21:02:00.000Z</time></trkpt>
        <trkpt lat="28.6396357" lon="104.5830073"><ele>649.8</ele><time>2026-02-16T21:02:32.000Z</time></trkpt>
        <trkpt lat="28.6396846" lon="104.5829777"><ele>648.92</ele><time>2026-02-16T21:02:38.000Z</time></trkpt>
        <trkpt lat="28.6397336" lon="104.5829577"><ele>647.63</ele><time>2026-02-16T21:02:44.000Z</time></trkpt>
        <trkpt lat="28.6397896" lon="104.5829524"><ele>645.09</ele><time>2026-02-16T21:02:50.000Z</time></trkpt>
        <trkpt lat="28.6398364" lon="104.5829872"><ele>642.85</ele><time>2026-02-16T21:03:08.000Z</time></trkpt>
        <trkpt lat="28.6398065" lon="104.5830104"><ele>641.29</ele><time>2026-02-16T21:03:18.000Z</time></trkpt>
        <trkpt lat="28.6397732" lon="104.5830519"><ele>639.4</ele><time>2026-02-16T21:03:28.000Z</time></trkpt>
        <trkpt lat="28.6397392" lon="104.5830963"><ele>637.74</ele><time>2026-02-16T21:03:40.000Z</time></trkpt>
        <trkpt lat="28.6397002" lon="104.5831382"><ele>636.87</ele><time>2026-02-16T21:03:46.000Z</time></trkpt>
        <trkpt lat="28.6396888" lon="104.5831651"><ele>636.26</ele><time>2026-02-16T21:03:52.000Z</time></trkpt>
        <trkpt lat="28.6396888" lon="104.5831651"><ele>636.26</ele><time>2026-02-16T21:04:42.000Z</time></trkpt>
        <trkpt lat="28.639736" lon="104.5831175"><ele>635.91</ele><time>2026-02-16T21:04:51.000Z</time></trkpt>
        <trkpt lat="28.639736" lon="104.5831175"><ele>635.91</ele><time>2026-02-16T21:04:54.000Z</time></trkpt>
        <trkpt lat="28.6397501" lon="104.5831697"><ele>638.55</ele><time>2026-02-16T21:05:28.000Z</time></trkpt>
        <trkpt lat="28.6397431" lon="104.5831346"><ele>637.88</ele><time>2026-02-16T21:05:48.000Z</time></trkpt>
        <trkpt lat="28.639764" lon="104.5831586"><ele>636.44</ele><time>2026-02-16T21:06:04.000Z</time></trkpt>
        <trkpt lat="28.6397865" lon="104.583201"><ele>636</ele><time>2026-02-16T21:06:36.000Z</time></trkpt>
        <trkpt lat="28.6398281" lon="104.5831971"><ele>637.02</ele><time>2026-02-16T21:07:10.000Z</time></trkpt>
        <trkpt lat="28.6398042" lon="104.5832252"><ele>636.43</ele><time>2026-02-16T21:08:22.000Z</time></trkpt>
        <trkpt lat="28.6398036" lon="104.5832777"><ele>634.65</ele><time>2026-02-16T21:09:00.000Z</time></trkpt>
        <trkpt lat="28.6398416" lon="104.5832918"><ele>633.69</ele><time>2026-02-16T21:09:20.000Z</time></trkpt>
        <trkpt lat="28.6398988" lon="104.583293"><ele>633.71</ele><time>2026-02-16T21:09:28.000Z</time></trkpt>
        <trkpt lat="28.6399377" lon="104.5832949"><ele>634.53</ele><time>2026-02-16T21:09:32.000Z</time></trkpt>
        <trkpt lat="28.6399167" lon="104.5833144"><ele>635.15</ele><time>2026-02-16T21:09:40.000Z</time></trkpt>
        <trkpt lat="28.6399021" lon="104.5833262"><ele>634.87</ele><time>2026-02-16T21:09:42.000Z</time></trkpt>
        <trkpt lat="28.6398729" lon="104.5833634"><ele>634.73</ele><time>2026-02-16T21:09:56.000Z</time></trkpt>
        <trkpt lat="28.639906" lon="104.5833849"><ele>635.34</ele><time>2026-02-16T21:10:02.000Z</time></trkpt>
        <trkpt lat="28.6399625" lon="104.5833946"><ele>635.44</ele><time>2026-02-16T21:10:08.000Z</time></trkpt>
        <trkpt lat="28.6400153" lon="104.5834221"><ele>635.84</ele><time>2026-02-16T21:10:16.000Z</time></trkpt>
        <trkpt lat="28.6400483" lon="104.5833897"><ele>637.15</ele><time>2026-02-16T21:10:20.000Z</time></trkpt>
        <trkpt lat="28.640083" lon="104.5833582"><ele>638.88</ele><time>2026-02-16T21:10:26.000Z</time></trkpt>
        <trkpt lat="28.6401462" lon="104.5833516"><ele>640</ele><time>2026-02-16T21:10:36.000Z</time></trkpt>
        <trkpt lat="28.6402149" lon="104.5833475"><ele>638.97</ele><time>2026-02-16T21:10:40.000Z</time></trkpt>
        <trkpt lat="28.6402744" lon="104.5833419"><ele>637.67</ele><time>2026-02-16T21:10:44.000Z</time></trkpt>
        <trkpt lat="28.6403342" lon="104.5833184"><ele>636.51</ele><time>2026-02-16T21:10:50.000Z</time></trkpt>
        <trkpt lat="28.6403907" lon="104.5832899"><ele>634.65</ele><time>2026-02-16T21:10:54.000Z</time></trkpt>
        <trkpt lat="28.640435" lon="104.5832632"><ele>633.29</ele><time>2026-02-16T21:10:58.000Z</time></trkpt>
        <trkpt lat="28.6404462" lon="104.5832167"><ele>631.99</ele><time>2026-02-16T21:11:02.000Z</time></trkpt>
        <trkpt lat="28.6404201" lon="104.5831904"><ele>630.56</ele><time>2026-02-16T21:11:06.000Z</time></trkpt>
        <trkpt lat="28.6404201" lon="104.5831904"><ele>630.56</ele><time>2026-02-16T21:11:30.000Z</time></trkpt>
        <trkpt lat="28.6403725" lon="104.5831582"><ele>629.2</ele><time>2026-02-16T21:11:31.000Z</time></trkpt>
        <trkpt lat="28.6403725" lon="104.5831582"><ele>629.2</ele><time>2026-02-16T21:11:44.000Z</time></trkpt>
        <trkpt lat="28.6403125" lon="104.5831509"><ele>628.26</ele><time>2026-02-16T21:11:48.000Z</time></trkpt>
        <trkpt lat="28.6402596" lon="104.5831274"><ele>627.54</ele><time>2026-02-16T21:11:52.000Z</time></trkpt>
        <trkpt lat="28.6402509" lon="104.5830663"><ele>627.42</ele><time>2026-02-16T21:11:58.000Z</time></trkpt>
        <trkpt lat="28.6402796" lon="104.5829978"><ele>627.37</ele><time>2026-02-16T21:12:04.000Z</time></trkpt>
        <trkpt lat="28.6403091" lon="104.5829483"><ele>627.35</ele><time>2026-02-16T21:12:10.000Z</time></trkpt>
        <trkpt lat="28.6403316" lon="104.5828928"><ele>626.93</ele><time>2026-02-16T21:12:16.000Z</time></trkpt>
        <trkpt lat="28.6403332" lon="104.5828271"><ele>625.98</ele><time>2026-02-16T21:12:22.000Z</time></trkpt>
        <trkpt lat="28.6403401" lon="104.5827677"><ele>623.98</ele><time>2026-02-16T21:12:28.000Z</time></trkpt>
        <trkpt lat="28.6403787" lon="104.5827302"><ele>621.75</ele><time>2026-02-16T21:12:32.000Z</time></trkpt>
        <trkpt lat="28.6404248" lon="104.5826941"><ele>621.1</ele><time>2026-02-16T21:12:36.000Z</time></trkpt>
        <trkpt lat="28.6404538" lon="104.5826494"><ele>621.18</ele><time>2026-02-16T21:12:42.000Z</time></trkpt>
        <trkpt lat="28.6404782" lon="104.5825981"><ele>621.04</ele><time>2026-02-16T21:12:48.000Z</time></trkpt>
        <trkpt lat="28.6405249" lon="104.5825705"><ele>620.91</ele><time>2026-02-16T21:12:52.000Z</time></trkpt>
        <trkpt lat="28.6405793" lon="104.5825401"><ele>621.01</ele><time>2026-02-16T21:12:56.000Z</time></trkpt>
        <trkpt lat="28.6406478" lon="104.5825087"><ele>619.83</ele><time>2026-02-16T21:13:00.000Z</time></trkpt>
        <trkpt lat="28.6406945" lon="104.5824662"><ele>619.67</ele><time>2026-02-16T21:13:06.000Z</time></trkpt>
        <trkpt lat="28.6407322" lon="104.5824295"><ele>619.94</ele><time>2026-02-16T21:13:10.000Z</time></trkpt>
        <trkpt lat="28.6407372" lon="104.5823669"><ele>620.15</ele><time>2026-02-16T21:13:14.000Z</time></trkpt>
        <trkpt lat="28.640706" lon="104.5823036"><ele>619.64</ele><time>2026-02-16T21:13:18.000Z</time></trkpt>
        <trkpt lat="28.6406711" lon="104.5822496"><ele>619</ele><time>2026-02-16T21:13:22.000Z</time></trkpt>
        <trkpt lat="28.6406474" lon="104.5821802"><ele>617.86</ele><time>2026-02-16T21:13:26.000Z</time></trkpt>
        <trkpt lat="28.6406263" lon="104.5821092"><ele>617.74</ele><time>2026-02-16T21:13:30.000Z</time></trkpt>
        <trkpt lat="28.6405921" lon="104.5820489"><ele>617.38</ele><time>2026-02-16T21:13:34.000Z</time></trkpt>
        <trkpt lat="28.6405424" lon="104.5820172"><ele>617.03</ele><time>2026-02-16T21:13:38.000Z</time></trkpt>
        <trkpt lat="28.6404878" lon="104.5819992"><ele>615.09</ele><time>2026-02-16T21:13:42.000Z</time></trkpt>
        <trkpt lat="28.6404337" lon="104.5819889"><ele>614.23</ele><time>2026-02-16T21:13:46.000Z</time></trkpt>
        <trkpt lat="28.6403801" lon="104.5819785"><ele>613.94</ele><time>2026-02-16T21:13:50.000Z</time></trkpt>
        <trkpt lat="28.640332" lon="104.5819845"><ele>614.09</ele><time>2026-02-16T21:13:54.000Z</time></trkpt>
        <trkpt lat="28.6402853" lon="104.5819979"><ele>612.62</ele><time>2026-02-16T21:14:00.000Z</time></trkpt>
        <trkpt lat="28.640255" lon="104.5819655"><ele>610.65</ele><time>2026-02-16T21:14:04.000Z</time></trkpt>
        <trkpt lat="28.6402226" lon="104.5819171"><ele>613.35</ele><time>2026-02-16T21:14:10.000Z</time></trkpt>
        <trkpt lat="28.6401957" lon="104.5818688"><ele>615.04</ele><time>2026-02-16T21:14:14.000Z</time></trkpt>
        <trkpt lat="28.6401625" lon="104.5818191"><ele>615.12</ele><time>2026-02-16T21:14:20.000Z</time></trkpt>
        <trkpt lat="28.6401284" lon="104.5817608"><ele>613.86</ele><time>2026-02-16T21:14:26.000Z</time></trkpt>
        <trkpt lat="28.6401013" lon="104.5817026"><ele>610.97</ele><time>2026-02-16T21:14:30.000Z</time></trkpt>
        <trkpt lat="28.6400656" lon="104.58165"><ele>610.18</ele><time>2026-02-16T21:14:34.000Z</time></trkpt>
        <trkpt lat="28.6400164" lon="104.5816244"><ele>610</ele><time>2026-02-16T21:14:38.000Z</time></trkpt>
        <trkpt lat="28.6399818" lon="104.5816014"><ele>609.35</ele><time>2026-02-16T21:14:42.000Z</time></trkpt>
        <trkpt lat="28.6399342" lon="104.5815799"><ele>608.4</ele><time>2026-02-16T21:14:53.000Z</time></trkpt>
        <trkpt lat="28.639899" lon="104.5815364"><ele>606.23</ele><time>2026-02-16T21:14:57.000Z</time></trkpt>
        <trkpt lat="28.6398418" lon="104.581518"><ele>605.14</ele><time>2026-02-16T21:15:01.000Z</time></trkpt>
        <trkpt lat="28.6397661" lon="104.5815114"><ele>603.18</ele><time>2026-02-16T21:15:05.000Z</time></trkpt>
        <trkpt lat="28.6396918" lon="104.5814932"><ele>600.11</ele><time>2026-02-16T21:15:09.000Z</time></trkpt>
        <trkpt lat="28.639631" lon="104.5814755"><ele>595.92</ele><time>2026-02-16T21:15:13.000Z</time></trkpt>
        <trkpt lat="28.639568" lon="104.5814636"><ele>592.22</ele><time>2026-02-16T21:15:18.000Z</time></trkpt>
        <trkpt lat="28.6395051" lon="104.5814461"><ele>589.68</ele><time>2026-02-16T21:15:22.000Z</time></trkpt>
        <trkpt lat="28.6394437" lon="104.5813983"><ele>588.08</ele><time>2026-02-16T21:15:26.000Z</time></trkpt>
        <trkpt lat="28.6393737" lon="104.5813687"><ele>587.59</ele><time>2026-02-16T21:15:30.000Z</time></trkpt>
        <trkpt lat="28.6393111" lon="104.5813429"><ele>585.77</ele><time>2026-02-16T21:15:34.000Z</time></trkpt>
        <trkpt lat="28.6392557" lon="104.5813091"><ele>585.16</ele><time>2026-02-16T21:15:38.000Z</time></trkpt>
        <trkpt lat="28.6391841" lon="104.5812859"><ele>585.03</ele><time>2026-02-16T21:15:42.000Z</time></trkpt>
        <trkpt lat="28.6391097" lon="104.5812527"><ele>584.69</ele><time>2026-02-16T21:15:46.000Z</time></trkpt>
        <trkpt lat="28.639027" lon="104.581236"><ele>584.36</ele><time>2026-02-16T21:15:50.000Z</time></trkpt>
        <trkpt lat="28.6389459" lon="104.5812439"><ele>583.74</ele><time>2026-02-16T21:15:54.000Z</time></trkpt>
        <trkpt lat="28.6388807" lon="104.5812455"><ele>582.87</ele><time>2026-02-16T21:15:58.000Z</time></trkpt>
        <trkpt lat="28.6388209" lon="104.5812377"><ele>583.22</ele><time>2026-02-16T21:16:02.000Z</time></trkpt>
        <trkpt lat="28.6387619" lon="104.5812225"><ele>582.33</ele><time>2026-02-16T21:16:06.000Z</time></trkpt>
        <trkpt lat="28.6387044" lon="104.5812103"><ele>580.7</ele><time>2026-02-16T21:16:10.000Z</time></trkpt>
        <trkpt lat="28.6386521" lon="104.5811949"><ele>578.75</ele><time>2026-02-16T21:16:14.000Z</time></trkpt>
        <trkpt lat="28.6386006" lon="104.5811705"><ele>577.91</ele><time>2026-02-16T21:16:18.000Z</time></trkpt>
        <trkpt lat="28.6385462" lon="104.581145"><ele>578.28</ele><time>2026-02-16T21:16:22.000Z</time></trkpt>
        <trkpt lat="28.6384928" lon="104.5811228"><ele>578.32</ele><time>2026-02-16T21:16:26.000Z</time></trkpt>
        <trkpt lat="28.6384441" lon="104.5811174"><ele>578.62</ele><time>2026-02-16T21:16:29.000Z</time></trkpt>
        <trkpt lat="28.6383985" lon="104.5811476"><ele>577.24</ele><time>2026-02-16T21:16:32.000Z</time></trkpt>
        <trkpt lat="28.6383576" lon="104.581185"><ele>576.31</ele><time>2026-02-16T21:16:35.000Z</time></trkpt>
        <trkpt lat="28.6383064" lon="104.5812"><ele>575.08</ele><time>2026-02-16T21:16:39.000Z</time></trkpt>
        <trkpt lat="28.6382701" lon="104.5811566"><ele>574.91</ele><time>2026-02-16T21:16:45.000Z</time></trkpt>
        <trkpt lat="28.6382526" lon="104.581097"><ele>573.75</ele><time>2026-02-16T21:16:49.000Z</time></trkpt>
        <trkpt lat="28.6382232" lon="104.5810459"><ele>573.36</ele><time>2026-02-16T21:16:53.000Z</time></trkpt>
        <trkpt lat="28.638182" lon="104.5810054"><ele>572.46</ele><time>2026-02-16T21:16:57.000Z</time></trkpt>
        <trkpt lat="28.6381342" lon="104.5809383"><ele>571.74</ele><time>2026-02-16T21:17:03.000Z</time></trkpt>
        <trkpt lat="28.6380992" lon="104.5808801"><ele>571.43</ele><time>2026-02-16T21:17:07.000Z</time></trkpt>
        <trkpt lat="28.6380815" lon="104.5808279"><ele>571.13</ele><time>2026-02-16T21:17:11.000Z</time></trkpt>
        <trkpt lat="28.6380709" lon="104.5807669"><ele>571.24</ele><time>2026-02-16T21:17:17.000Z</time></trkpt>
        <trkpt lat="28.638062" lon="104.5807013"><ele>571.01</ele><time>2026-02-16T21:17:23.000Z</time></trkpt>
        <trkpt lat="28.6380632" lon="104.5806262"><ele>570.48</ele><time>2026-02-16T21:17:29.000Z</time></trkpt>
        <trkpt lat="28.6380718" lon="104.580563"><ele>569.74</ele><time>2026-02-16T21:17:33.000Z</time></trkpt>
        <trkpt lat="28.6380894" lon="104.5805062"><ele>569.1</ele><time>2026-02-16T21:17:37.000Z</time></trkpt>
        <trkpt lat="28.6381139" lon="104.5804494"><ele>568.53</ele><time>2026-02-16T21:17:41.000Z</time></trkpt>
        <trkpt lat="28.6381385" lon="104.5803825"><ele>567.55</ele><time>2026-02-16T21:17:45.000Z</time></trkpt>
        <trkpt lat="28.6381501" lon="104.5803182"><ele>567.55</ele><time>2026-02-16T21:17:49.000Z</time></trkpt>
        <trkpt lat="28.6381466" lon="104.5802574"><ele>566.95</ele><time>2026-02-16T21:17:53.000Z</time></trkpt>
        <trkpt lat="28.6381374" lon="104.5801969"><ele>566.84</ele><time>2026-02-16T21:17:57.000Z</time></trkpt>
        <trkpt lat="28.6381173" lon="104.580138"><ele>566.82</ele><time>2026-02-16T21:18:01.000Z</time></trkpt>
        <trkpt lat="28.638095" lon="104.5800814"><ele>567.79</ele><time>2026-02-16T21:18:05.000Z</time></trkpt>
        <trkpt lat="28.6380683" lon="104.5800215"><ele>568.64</ele><time>2026-02-16T21:18:09.000Z</time></trkpt>
        <trkpt lat="28.6380342" lon="104.5799732"><ele>568.19</ele><time>2026-02-16T21:18:13.000Z</time></trkpt>
        <trkpt lat="28.6379985" lon="104.5799252"><ele>567.51</ele><time>2026-02-16T21:18:17.000Z</time></trkpt>
        <trkpt lat="28.6379502" lon="104.5798945"><ele>567.05</ele><time>2026-02-16T21:18:21.000Z</time></trkpt>
        <trkpt lat="28.6379074" lon="104.5798597"><ele>566.67</ele><time>2026-02-16T21:18:25.000Z</time></trkpt>
        <trkpt lat="28.6378638" lon="104.5798193"><ele>567.34</ele><time>2026-02-16T21:18:29.000Z</time></trkpt>
        <trkpt lat="28.6378285" lon="104.5797736"><ele>568.47</ele><time>2026-02-16T21:18:33.000Z</time></trkpt>
        <trkpt lat="28.6377893" lon="104.5797376"><ele>569.79</ele><time>2026-02-16T21:18:37.000Z</time></trkpt>
        <trkpt lat="28.6377285" lon="104.5797264"><ele>570.17</ele><time>2026-02-16T21:18:43.000Z</time></trkpt>
        <trkpt lat="28.6376711" lon="104.5797419"><ele>569.88</ele><time>2026-02-16T21:18:47.000Z</time></trkpt>
        <trkpt lat="28.6376169" lon="104.5797588"><ele>569.44</ele><time>2026-02-16T21:18:51.000Z</time></trkpt>
        <trkpt lat="28.6375633" lon="104.5797699"><ele>569.95</ele><time>2026-02-16T21:18:55.000Z</time></trkpt>
        <trkpt lat="28.6375102" lon="104.5797865"><ele>570.62</ele><time>2026-02-16T21:18:59.000Z</time></trkpt>
        <trkpt lat="28.6374663" lon="104.5798127"><ele>571.06</ele><time>2026-02-16T21:19:03.000Z</time></trkpt>
        <trkpt lat="28.6374209" lon="104.5798355"><ele>571.04</ele><time>2026-02-16T21:19:07.000Z</time></trkpt>
        <trkpt lat="28.6373654" lon="104.5798458"><ele>571.15</ele><time>2026-02-16T21:19:11.000Z</time></trkpt>
        <trkpt lat="28.6373039" lon="104.5798542"><ele>571.52</ele><time>2026-02-16T21:19:15.000Z</time></trkpt>
        <trkpt lat="28.6372441" lon="104.5798715"><ele>572.76</ele><time>2026-02-16T21:19:19.000Z</time></trkpt>
        <trkpt lat="28.6372053" lon="104.5799169"><ele>574.42</ele><time>2026-02-16T21:19:23.000Z</time></trkpt>
        <trkpt lat="28.6371691" lon="104.5799797"><ele>574.2</ele><time>2026-02-16T21:19:29.000Z</time></trkpt>
        <trkpt lat="28.6371239" lon="104.5800228"><ele>572.49</ele><time>2026-02-16T21:19:33.000Z</time></trkpt>
        <trkpt lat="28.637071" lon="104.5800464"><ele>571.19</ele><time>2026-02-16T21:19:37.000Z</time></trkpt>
        <trkpt lat="28.6370152" lon="104.5800545"><ele>571.1</ele><time>2026-02-16T21:19:41.000Z</time></trkpt>
        <trkpt lat="28.6369564" lon="104.580047"><ele>571.82</ele><time>2026-02-16T21:19:45.000Z</time></trkpt>
        <trkpt lat="28.6369012" lon="104.5800152"><ele>572.88</ele><time>2026-02-16T21:19:49.000Z</time></trkpt>
        <trkpt lat="28.6368654" lon="104.5799592"><ele>573.8</ele><time>2026-02-16T21:19:53.000Z</time></trkpt>
        <trkpt lat="28.636849" lon="104.5798848"><ele>574.4</ele><time>2026-02-16T21:19:57.000Z</time></trkpt>
        <trkpt lat="28.6368393" lon="104.579809"><ele>574.56</ele><time>2026-02-16T21:20:01.000Z</time></trkpt>
        <trkpt lat="28.6368267" lon="104.5797383"><ele>574.03</ele><time>2026-02-16T21:20:05.000Z</time></trkpt>
        <trkpt lat="28.6368039" lon="104.579671"><ele>573.08</ele><time>2026-02-16T21:20:09.000Z</time></trkpt>
        <trkpt lat="28.636766" lon="104.5796041"><ele>573.27</ele><time>2026-02-16T21:20:13.000Z</time></trkpt>
        <trkpt lat="28.6367103" lon="104.5795516"><ele>573.58</ele><time>2026-02-16T21:20:17.000Z</time></trkpt>
        <trkpt lat="28.6366537" lon="104.5795027"><ele>574.46</ele><time>2026-02-16T21:20:21.000Z</time></trkpt>
        <trkpt lat="28.6366076" lon="104.579443"><ele>575.55</ele><time>2026-02-16T21:20:25.000Z</time></trkpt>
        <trkpt lat="28.6365776" lon="104.5793726"><ele>576.01</ele><time>2026-02-16T21:20:29.000Z</time></trkpt>
        <trkpt lat="28.6365601" lon="104.5793"><ele>575.81</ele><time>2026-02-16T21:20:33.000Z</time></trkpt>
        <trkpt lat="28.636552" lon="104.5792279"><ele>575.38</ele><time>2026-02-16T21:20:37.000Z</time></trkpt>
        <trkpt lat="28.6365428" lon="104.5791611"><ele>574.22</ele><time>2026-02-16T21:20:41.000Z</time></trkpt>
        <trkpt lat="28.636545" lon="104.5790921"><ele>573.61</ele><time>2026-02-16T21:20:45.000Z</time></trkpt>
        <trkpt lat="28.6365675" lon="104.5790258"><ele>573.09</ele><time>2026-02-16T21:20:49.000Z</time></trkpt>
        <trkpt lat="28.6366043" lon="104.5789683"><ele>572.48</ele><time>2026-02-16T21:20:53.000Z</time></trkpt>
        <trkpt lat="28.6366509" lon="104.5789251"><ele>571.59</ele><time>2026-02-16T21:20:57.000Z</time></trkpt>
        <trkpt lat="28.6366931" lon="104.5788808"><ele>570.65</ele><time>2026-02-16T21:21:01.000Z</time></trkpt>
        <trkpt lat="28.6367322" lon="104.5788329"><ele>569.99</ele><time>2026-02-16T21:21:05.000Z</time></trkpt>
        <trkpt lat="28.6367687" lon="104.5787856"><ele>569.79</ele><time>2026-02-16T21:21:09.000Z</time></trkpt>
        <trkpt lat="28.6368011" lon="104.5787279"><ele>569.15</ele><time>2026-02-16T21:21:13.000Z</time></trkpt>
        <trkpt lat="28.6368261" lon="104.5786646"><ele>568.96</ele><time>2026-02-16T21:21:17.000Z</time></trkpt>
        <trkpt lat="28.6368397" lon="104.5786013"><ele>568.89</ele><time>2026-02-16T21:21:21.000Z</time></trkpt>
        <trkpt lat="28.6368431" lon="104.5785379"><ele>569.05</ele><time>2026-02-16T21:21:25.000Z</time></trkpt>
        <trkpt lat="28.6368416" lon="104.5784762"><ele>569.34</ele><time>2026-02-16T21:21:29.000Z</time></trkpt>
        <trkpt lat="28.6368345" lon="104.5784182"><ele>569.29</ele><time>2026-02-16T21:21:33.000Z</time></trkpt>
        <trkpt lat="28.6368112" lon="104.5783618"><ele>569.15</ele><time>2026-02-16T21:21:37.000Z</time></trkpt>
        <trkpt lat="28.6367618" lon="104.5783201"><ele>569.35</ele><time>2026-02-16T21:21:41.000Z</time></trkpt>
        <trkpt lat="28.6366924" lon="104.5783138"><ele>569.58</ele><time>2026-02-16T21:21:45.000Z</time></trkpt>
        <trkpt lat="28.6366123" lon="104.5783127"><ele>569.53</ele><time>2026-02-16T21:21:49.000Z</time></trkpt>
        <trkpt lat="28.6365372" lon="104.5782932"><ele>569.45</ele><time>2026-02-16T21:21:53.000Z</time></trkpt>
        <trkpt lat="28.6365155" lon="104.5782445"><ele>568.91</ele><time>2026-02-16T21:21:55.000Z</time></trkpt>
        <trkpt lat="28.6365176" lon="104.5781737"><ele>569.06</ele><time>2026-02-16T21:21:57.000Z</time></trkpt>
        <trkpt lat="28.6365444" lon="104.5781038"><ele>569.25</ele><time>2026-02-16T21:21:59.000Z</time></trkpt>
        <trkpt lat="28.6365898" lon="104.5780356"><ele>569.45</ele><time>2026-02-16T21:22:01.000Z</time></trkpt>
        <trkpt lat="28.6366366" lon="104.5779649"><ele>568.64</ele><time>2026-02-16T21:22:03.000Z</time></trkpt>
        <trkpt lat="28.6366701" lon="104.5778955"><ele>567.38</ele><time>2026-02-16T21:22:05.000Z</time></trkpt>
        <trkpt lat="28.6367071" lon="104.5778379"><ele>565.73</ele><time>2026-02-16T21:22:07.000Z</time></trkpt>
        <trkpt lat="28.6367489" lon="104.5777799"><ele>564.64</ele><time>2026-02-16T21:22:09.000Z</time></trkpt>
        <trkpt lat="28.6367803" lon="104.5777187"><ele>563.82</ele><time>2026-02-16T21:22:11.000Z</time></trkpt>
        <trkpt lat="28.6367939" lon="104.5776562"><ele>562.8</ele><time>2026-02-16T21:22:13.000Z</time></trkpt>
        <trkpt lat="28.636788" lon="104.5775994"><ele>562.43</ele><time>2026-02-16T21:22:15.000Z</time></trkpt>
        <trkpt lat="28.6367702" lon="104.5775254"><ele>562.57</ele><time>2026-02-16T21:22:19.000Z</time></trkpt>
        <trkpt lat="28.6367855" lon="104.5774771"><ele>562.45</ele><time>2026-02-16T21:22:25.000Z</time></trkpt>
        <trkpt lat="28.6367855" lon="104.5774771"><ele>562.45</ele><time>2026-02-16T21:22:54.000Z</time></trkpt>
        <trkpt lat="28.6367861" lon="104.5774265"><ele>562.44</ele><time>2026-02-16T21:22:57.000Z</time></trkpt>
        <trkpt lat="28.6367861" lon="104.5774265"><ele>562.44</ele><time>2026-02-16T21:23:04.000Z</time></trkpt>
        <trkpt lat="28.6367775" lon="104.5773371"><ele>563.39</ele><time>2026-02-16T21:23:08.000Z</time></trkpt>
        <trkpt lat="28.6367428" lon="104.5772652"><ele>562.42</ele><time>2026-02-16T21:23:10.000Z</time></trkpt>
        <trkpt lat="28.636688" lon="104.5772193"><ele>561.05</ele><time>2026-02-16T21:23:12.000Z</time></trkpt>
        <trkpt lat="28.636624" lon="104.5771909"><ele>559.05</ele><time>2026-02-16T21:23:14.000Z</time></trkpt>
        <trkpt lat="28.636563" lon="104.5771781"><ele>557.27</ele><time>2026-02-16T21:23:16.000Z</time></trkpt>
        <trkpt lat="28.6365069" lon="104.5771808"><ele>555.44</ele><time>2026-02-16T21:23:18.000Z</time></trkpt>
        <trkpt lat="28.6364445" lon="104.5771871"><ele>554.42</ele><time>2026-02-16T21:23:20.000Z</time></trkpt>
        <trkpt lat="28.6363699" lon="104.5771818"><ele>553.95</ele><time>2026-02-16T21:23:22.000Z</time></trkpt>
        <trkpt lat="28.636292" lon="104.577194"><ele>554.15</ele><time>2026-02-16T21:23:24.000Z</time></trkpt>
        <trkpt lat="28.6362133" lon="104.5772176"><ele>553.57</ele><time>2026-02-16T21:23:26.000Z</time></trkpt>
        <trkpt lat="28.6361346" lon="104.5772166"><ele>552.72</ele><time>2026-02-16T21:23:28.000Z</time></trkpt>
        <trkpt lat="28.6360683" lon="104.5771772"><ele>551.52</ele><time>2026-02-16T21:23:30.000Z</time></trkpt>
        <trkpt lat="28.6360478" lon="104.5771019"><ele>550.19</ele><time>2026-02-16T21:23:32.000Z</time></trkpt>
        <trkpt lat="28.6360642" lon="104.5770313"><ele>549.11</ele><time>2026-02-16T21:23:34.000Z</time></trkpt>
        <trkpt lat="28.6361024" lon="104.5769582"><ele>548.37</ele><time>2026-02-16T21:23:38.000Z</time></trkpt>
        <trkpt lat="28.6361517" lon="104.576909"><ele>547.24</ele><time>2026-02-16T21:23:42.000Z</time></trkpt>
        <trkpt lat="28.6362072" lon="104.5768827"><ele>546.78</ele><time>2026-02-16T21:23:46.000Z</time></trkpt>
        <trkpt lat="28.6362618" lon="104.5768522"><ele>546.21</ele><time>2026-02-16T21:23:50.000Z</time></trkpt>
        <trkpt lat="28.6363046" lon="104.5768086"><ele>545.75</ele><time>2026-02-16T21:23:54.000Z</time></trkpt>
        <trkpt lat="28.6363444" lon="104.5767529"><ele>543.85</ele><time>2026-02-16T21:23:58.000Z</time></trkpt>
        <trkpt lat="28.6363886" lon="104.5767005"><ele>542.41</ele><time>2026-02-16T21:24:02.000Z</time></trkpt>
        <trkpt lat="28.6364352" lon="104.5766333"><ele>542.23</ele><time>2026-02-16T21:24:06.000Z</time></trkpt>
        <trkpt lat="28.6364695" lon="104.5765541"><ele>542.65</ele><time>2026-02-16T21:24:10.000Z</time></trkpt>
        <trkpt lat="28.6364976" lon="104.5764723"><ele>543.12</ele><time>2026-02-16T21:24:14.000Z</time></trkpt>
        <trkpt lat="28.6365261" lon="104.5763995"><ele>543.42</ele><time>2026-02-16T21:24:18.000Z</time></trkpt>
        <trkpt lat="28.6365557" lon="104.5763399"><ele>544.21</ele><time>2026-02-16T21:24:22.000Z</time></trkpt>
        <trkpt lat="28.6365724" lon="104.5762796"><ele>545.19</ele><time>2026-02-16T21:24:26.000Z</time></trkpt>
        <trkpt lat="28.6365781" lon="104.5762166"><ele>545.49</ele><time>2026-02-16T21:24:30.000Z</time></trkpt>
        <trkpt lat="28.6365732" lon="104.57615"><ele>545.54</ele><time>2026-02-16T21:24:34.000Z</time></trkpt>
        <trkpt lat="28.6365443" lon="104.5760877"><ele>545.79</ele><time>2026-02-16T21:24:38.000Z</time></trkpt>
        <trkpt lat="28.6364915" lon="104.576043"><ele>546.1</ele><time>2026-02-16T21:24:42.000Z</time></trkpt>
        <trkpt lat="28.6364295" lon="104.5760069"><ele>546.21</ele><time>2026-02-16T21:24:46.000Z</time></trkpt>
        <trkpt lat="28.6363661" lon="104.5759894"><ele>546.13</ele><time>2026-02-16T21:24:48.000Z</time></trkpt>
        <trkpt lat="28.6363069" lon="104.5759295"><ele>545.72</ele><time>2026-02-16T21:24:50.000Z</time></trkpt>
        <trkpt lat="28.6362757" lon="104.5758647"><ele>545.3</ele><time>2026-02-16T21:24:52.000Z</time></trkpt>
        <trkpt lat="28.6362339" lon="104.5758096"><ele>543.6</ele><time>2026-02-16T21:24:54.000Z</time></trkpt>
        <trkpt lat="28.6361643" lon="104.5757453"><ele>541.18</ele><time>2026-02-16T21:24:56.000Z</time></trkpt>
        <trkpt lat="28.6360731" lon="104.5756809"><ele>538.9</ele><time>2026-02-16T21:24:58.000Z</time></trkpt>
        <trkpt lat="28.6360099" lon="104.5756153"><ele>537.19</ele><time>2026-02-16T21:25:00.000Z</time></trkpt>
        <trkpt lat="28.6359638" lon="104.5755588"><ele>536.19</ele><time>2026-02-16T21:25:02.000Z</time></trkpt>
        <trkpt lat="28.6359044" lon="104.5754989"><ele>535.67</ele><time>2026-02-16T21:25:06.000Z</time></trkpt>
        <trkpt lat="28.6358585" lon="104.5754628"><ele>535.75</ele><time>2026-02-16T21:25:08.000Z</time></trkpt>
        <trkpt lat="28.6358159" lon="104.5754203"><ele>534.88</ele><time>2026-02-16T21:25:12.000Z</time></trkpt>
        <trkpt lat="28.6357681" lon="104.5753822"><ele>534.5</ele><time>2026-02-16T21:25:16.000Z</time></trkpt>
        <trkpt lat="28.6357092" lon="104.5753634"><ele>534.23</ele><time>2026-02-16T21:25:20.000Z</time></trkpt>
        <trkpt lat="28.6356438" lon="104.575346"><ele>533.92</ele><time>2026-02-16T21:25:24.000Z</time></trkpt>
        <trkpt lat="28.6355724" lon="104.575351"><ele>533.76</ele><time>2026-02-16T21:25:28.000Z</time></trkpt>
        <trkpt lat="28.6355084" lon="104.5753827"><ele>534.26</ele><time>2026-02-16T21:25:32.000Z</time></trkpt>
        <trkpt lat="28.6354637" lon="104.5754434"><ele>535.04</ele><time>2026-02-16T21:25:36.000Z</time></trkpt>
        <trkpt lat="28.6354303" lon="104.5755153"><ele>535.29</ele><time>2026-02-16T21:25:40.000Z</time></trkpt>
        <trkpt lat="28.635407" lon="104.5755765"><ele>535.48</ele><time>2026-02-16T21:25:42.000Z</time></trkpt>
        <trkpt lat="28.6353813" lon="104.5756421"><ele>534.73</ele><time>2026-02-16T21:25:46.000Z</time></trkpt>
        <trkpt lat="28.6353764" lon="104.5757136"><ele>534.68</ele><time>2026-02-16T21:25:50.000Z</time></trkpt>
        <trkpt lat="28.6353789" lon="104.575781"><ele>534.44</ele><time>2026-02-16T21:25:54.000Z</time></trkpt>
        <trkpt lat="28.6353871" lon="104.5758531"><ele>534.05</ele><time>2026-02-16T21:25:58.000Z</time></trkpt>
        <trkpt lat="28.6353618" lon="104.5759281"><ele>534.23</ele><time>2026-02-16T21:26:02.000Z</time></trkpt>
        <trkpt lat="28.635283" lon="104.576011"><ele>534.64</ele><time>2026-02-16T21:26:06.000Z</time></trkpt>
        <trkpt lat="28.6351918" lon="104.5760471"><ele>534.23</ele><time>2026-02-16T21:26:08.000Z</time></trkpt>
        <trkpt lat="28.6351059" lon="104.5760348"><ele>533.7</ele><time>2026-02-16T21:26:10.000Z</time></trkpt>
        <trkpt lat="28.6350377" lon="104.5759946"><ele>533.01</ele><time>2026-02-16T21:26:12.000Z</time></trkpt>
        <trkpt lat="28.6349743" lon="104.5759432"><ele>532.36</ele><time>2026-02-16T21:26:14.000Z</time></trkpt>
        <trkpt lat="28.6349186" lon="104.575886"><ele>531.89</ele><time>2026-02-16T21:26:16.000Z</time></trkpt>
        <trkpt lat="28.6348655" lon="104.5758238"><ele>531.01</ele><time>2026-02-16T21:26:18.000Z</time></trkpt>
        <trkpt lat="28.6348326" lon="104.575748"><ele>530.42</ele><time>2026-02-16T21:26:20.000Z</time></trkpt>
        <trkpt lat="28.6348262" lon="104.5756776"><ele>530.42</ele><time>2026-02-16T21:26:22.000Z</time></trkpt>
        <trkpt lat="28.6348353" lon="104.5756077"><ele>530.01</ele><time>2026-02-16T21:26:24.000Z</time></trkpt>
        <trkpt lat="28.6348424" lon="104.5755457"><ele>530.03</ele><time>2026-02-16T21:26:26.000Z</time></trkpt>
        <trkpt lat="28.6348382" lon="104.5754715"><ele>529.42</ele><time>2026-02-16T21:26:30.000Z</time></trkpt>
        <trkpt lat="28.6348029" lon="104.575419"><ele>529.25</ele><time>2026-02-16T21:26:34.000Z</time></trkpt>
        <trkpt lat="28.6347145" lon="104.5753965"><ele>529.57</ele><time>2026-02-16T21:26:38.000Z</time></trkpt>
        <trkpt lat="28.6346367" lon="104.5754129"><ele>529.27</ele><time>2026-02-16T21:26:40.000Z</time></trkpt>
        <trkpt lat="28.6345789" lon="104.575436"><ele>528.34</ele><time>2026-02-16T21:26:42.000Z</time></trkpt>
        <trkpt lat="28.6345161" lon="104.5754512"><ele>527.31</ele><time>2026-02-16T21:26:44.000Z</time></trkpt>
        <trkpt lat="28.6344595" lon="104.5754637"><ele>525.65</ele><time>2026-02-16T21:26:46.000Z</time></trkpt>
        <trkpt lat="28.634398" lon="104.5754701"><ele>524.61</ele><time>2026-02-16T21:26:48.000Z</time></trkpt>
        <trkpt lat="28.6343354" lon="104.5754715"><ele>522.71</ele><time>2026-02-16T21:26:50.000Z</time></trkpt>
        <trkpt lat="28.6342853" lon="104.5754691"><ele>521.82</ele><time>2026-02-16T21:26:52.000Z</time></trkpt>
        <trkpt lat="28.6342208" lon="104.5754735"><ele>521.07</ele><time>2026-02-16T21:26:56.000Z</time></trkpt>
        <trkpt lat="28.6341652" lon="104.5754743"><ele>520.19</ele><time>2026-02-16T21:27:00.000Z</time></trkpt>
        <trkpt lat="28.634112" lon="104.5754483"><ele>518.19</ele><time>2026-02-16T21:27:04.000Z</time></trkpt>
        <trkpt lat="28.6340728" lon="104.575406"><ele>516.29</ele><time>2026-02-16T21:27:08.000Z</time></trkpt>
        <trkpt lat="28.6340345" lon="104.5753581"><ele>515.03</ele><time>2026-02-16T21:27:12.000Z</time></trkpt>
        <trkpt lat="28.6339934" lon="104.5753046"><ele>514.54</ele><time>2026-02-16T21:27:16.000Z</time></trkpt>
        <trkpt lat="28.6339563" lon="104.5752433"><ele>512.74</ele><time>2026-02-16T21:27:20.000Z</time></trkpt>
        <trkpt lat="28.6339317" lon="104.5751837"><ele>511.3</ele><time>2026-02-16T21:27:24.000Z</time></trkpt>
        <trkpt lat="28.6339111" lon="104.5751157"><ele>509.45</ele><time>2026-02-16T21:27:28.000Z</time></trkpt>
        <trkpt lat="28.6338706" lon="104.575057"><ele>507.7</ele><time>2026-02-16T21:27:32.000Z</time></trkpt>
        <trkpt lat="28.6338338" lon="104.5749941"><ele>507.04</ele><time>2026-02-16T21:27:36.000Z</time></trkpt>
        <trkpt lat="28.6337969" lon="104.5749295"><ele>506.67</ele><time>2026-02-16T21:27:40.000Z</time></trkpt>
        <trkpt lat="28.6337622" lon="104.574866"><ele>506.67</ele><time>2026-02-16T21:27:44.000Z</time></trkpt>
        <trkpt lat="28.6337296" lon="104.5748025"><ele>506.42</ele><time>2026-02-16T21:27:48.000Z</time></trkpt>
        <trkpt lat="28.6336883" lon="104.5747505"><ele>506.42</ele><time>2026-02-16T21:27:52.000Z</time></trkpt>
        <trkpt lat="28.6336402" lon="104.5747098"><ele>506.63</ele><time>2026-02-16T21:27:56.000Z</time></trkpt>
        <trkpt lat="28.6335903" lon="104.5746329"><ele>506.88</ele><time>2026-02-16T21:28:00.000Z</time></trkpt>
        <trkpt lat="28.6335458" lon="104.5745919"><ele>505.11</ele><time>2026-02-16T21:28:02.000Z</time></trkpt>
        <trkpt lat="28.6334671" lon="104.5745964"><ele>502.19</ele><time>2026-02-16T21:28:06.000Z</time></trkpt>
        <trkpt lat="28.6334134" lon="104.5746221"><ele>498.74</ele><time>2026-02-16T21:28:08.000Z</time></trkpt>
        <trkpt lat="28.6333621" lon="104.5746647"><ele>494.89</ele><time>2026-02-16T21:28:12.000Z</time></trkpt>
        <trkpt lat="28.6332977" lon="104.5746998"><ele>491.34</ele><time>2026-02-16T21:28:16.000Z</time></trkpt>
        <trkpt lat="28.6332201" lon="104.5747262"><ele>490.09</ele><time>2026-02-16T21:28:20.000Z</time></trkpt>
        <trkpt lat="28.6331547" lon="104.5747632"><ele>490.2</ele><time>2026-02-16T21:28:24.000Z</time></trkpt>
        <trkpt lat="28.6331105" lon="104.5747887"><ele>490.8</ele><time>2026-02-16T21:28:32.000Z</time></trkpt>
        <trkpt lat="28.6330654" lon="104.574765"><ele>490.67</ele><time>2026-02-16T21:28:44.000Z</time></trkpt>
        <trkpt lat="28.6330075" lon="104.5747283"><ele>490.16</ele><time>2026-02-16T21:28:48.000Z</time></trkpt>
        <trkpt lat="28.6329436" lon="104.5747099"><ele>489.69</ele><time>2026-02-16T21:28:52.000Z</time></trkpt>
        <trkpt lat="28.6328792" lon="104.5747138"><ele>489.02</ele><time>2026-02-16T21:28:56.000Z</time></trkpt>
        <trkpt lat="28.6328141" lon="104.5747275"><ele>488.66</ele><time>2026-02-16T21:29:00.000Z</time></trkpt>
        <trkpt lat="28.632757" lon="104.5747319"><ele>488.34</ele><time>2026-02-16T21:29:04.000Z</time></trkpt>
        <trkpt lat="28.6326969" lon="104.5747378"><ele>487.91</ele><time>2026-02-16T21:29:08.000Z</time></trkpt>
        <trkpt lat="28.6326485" lon="104.5747285"><ele>487.4</ele><time>2026-02-16T21:29:12.000Z</time></trkpt>
        <trkpt lat="28.6326257" lon="104.5747318"><ele>487.03</ele><time>2026-02-16T21:29:16.000Z</time></trkpt>
        <trkpt lat="28.6326" lon="104.5746905"><ele>486.82</ele><time>2026-02-16T21:29:30.000Z</time></trkpt>
        <trkpt lat="28.6325705" lon="104.5746234"><ele>486.18</ele><time>2026-02-16T21:29:36.000Z</time></trkpt>
        <trkpt lat="28.6325184" lon="104.5744976"><ele>485.4</ele><time>2026-02-16T21:29:40.000Z</time></trkpt>
        <trkpt lat="28.6324633" lon="104.5743933"><ele>483.18</ele><time>2026-02-16T21:29:42.000Z</time></trkpt>
        <trkpt lat="28.6323899" lon="104.5743192"><ele>481.82</ele><time>2026-02-16T21:29:44.000Z</time></trkpt>
        <trkpt lat="28.632311" lon="104.574266"><ele>481.46</ele><time>2026-02-16T21:29:46.000Z</time></trkpt>
        <trkpt lat="28.6322333" lon="104.5742355"><ele>481.25</ele><time>2026-02-16T21:29:48.000Z</time></trkpt>
        <trkpt lat="28.6321514" lon="104.5741972"><ele>481.33</ele><time>2026-02-16T21:29:50.000Z</time></trkpt>
        <trkpt lat="28.632086" lon="104.5741571"><ele>482.21</ele><time>2026-02-16T21:29:52.000Z</time></trkpt>
        <trkpt lat="28.632009" lon="104.5741112"><ele>480.86</ele><time>2026-02-16T21:29:54.000Z</time></trkpt>
        <trkpt lat="28.6319151" lon="104.5740761"><ele>480.19</ele><time>2026-02-16T21:29:56.000Z</time></trkpt>
        <trkpt lat="28.6318292" lon="104.574058"><ele>479.54</ele><time>2026-02-16T21:29:58.000Z</time></trkpt>
        <trkpt lat="28.6317551" lon="104.5740588"><ele>479.18</ele><time>2026-02-16T21:30:00.000Z</time></trkpt>
        <trkpt lat="28.6316912" lon="104.5740664"><ele>479.03</ele><time>2026-02-16T21:30:02.000Z</time></trkpt>
        <trkpt lat="28.6316346" lon="104.5740781"><ele>478.53</ele><time>2026-02-16T21:30:04.000Z</time></trkpt>
        <trkpt lat="28.6315714" lon="104.5740982"><ele>478.35</ele><time>2026-02-16T21:30:08.000Z</time></trkpt>
        <trkpt lat="28.6315081" lon="104.5741124"><ele>478.26</ele><time>2026-02-16T21:30:12.000Z</time></trkpt>
        <trkpt lat="28.6314446" lon="104.5741164"><ele>478.01</ele><time>2026-02-16T21:30:16.000Z</time></trkpt>
        <trkpt lat="28.6313777" lon="104.5741098"><ele>477.67</ele><time>2026-02-16T21:30:20.000Z</time></trkpt>
        <trkpt lat="28.6313177" lon="104.574092"><ele>477.48</ele><time>2026-02-16T21:30:24.000Z</time></trkpt>
        <trkpt lat="28.6312659" lon="104.5740598"><ele>477.52</ele><time>2026-02-16T21:30:28.000Z</time></trkpt>
        <trkpt lat="28.6312113" lon="104.5740305"><ele>477.84</ele><time>2026-02-16T21:30:32.000Z</time></trkpt>
        <trkpt lat="28.6311482" lon="104.5740344"><ele>477.66</ele><time>2026-02-16T21:30:36.000Z</time></trkpt>
        <trkpt lat="28.6310891" lon="104.5740567"><ele>476.33</ele><time>2026-02-16T21:30:40.000Z</time></trkpt>
        <trkpt lat="28.6310332" lon="104.5741105"><ele>474.38</ele><time>2026-02-16T21:30:44.000Z</time></trkpt>
        <trkpt lat="28.630977" lon="104.5741684"><ele>471.73</ele><time>2026-02-16T21:30:46.000Z</time></trkpt>
        <trkpt lat="28.6309215" lon="104.5742269"><ele>470.4</ele><time>2026-02-16T21:30:48.000Z</time></trkpt>
        <trkpt lat="28.6308615" lon="104.5742576"><ele>470.01</ele><time>2026-02-16T21:30:50.000Z</time></trkpt>
        <trkpt lat="28.6307806" lon="104.5742616"><ele>469.43</ele><time>2026-02-16T21:30:54.000Z</time></trkpt>
        <trkpt lat="28.6307239" lon="104.5742677"><ele>469.4</ele><time>2026-02-16T21:30:56.000Z</time></trkpt>
        <trkpt lat="28.6306615" lon="104.5742878"><ele>469.76</ele><time>2026-02-16T21:31:00.000Z</time></trkpt>
        <trkpt lat="28.6305984" lon="104.5743162"><ele>470.13</ele><time>2026-02-16T21:31:04.000Z</time></trkpt>
        <trkpt lat="28.6305398" lon="104.5743619"><ele>470.76</ele><time>2026-02-16T21:31:08.000Z</time></trkpt>
        <trkpt lat="28.6304798" lon="104.5744031"><ele>471.12</ele><time>2026-02-16T21:31:12.000Z</time></trkpt>
        <trkpt lat="28.6304134" lon="104.5744156"><ele>471.49</ele><time>2026-02-16T21:31:16.000Z</time></trkpt>
        <trkpt lat="28.6303394" lon="104.5744003"><ele>472.54</ele><time>2026-02-16T21:31:20.000Z</time></trkpt>
        <trkpt lat="28.6302817" lon="104.5743935"><ele>470</ele><time>2026-02-16T21:31:22.000Z</time></trkpt>
        <trkpt lat="28.6302171" lon="104.5743927"><ele>468.19</ele><time>2026-02-16T21:31:24.000Z</time></trkpt>
        <trkpt lat="28.6301419" lon="104.5743937"><ele>467.39</ele><time>2026-02-16T21:31:26.000Z</time></trkpt>
        <trkpt lat="28.6300603" lon="104.574381"><ele>467.23</ele><time>2026-02-16T21:31:28.000Z</time></trkpt>
        <trkpt lat="28.6299692" lon="104.5743607"><ele>465.31</ele><time>2026-02-16T21:31:30.000Z</time></trkpt>
        <trkpt lat="28.6298798" lon="104.5743333"><ele>462.96</ele><time>2026-02-16T21:31:32.000Z</time></trkpt>
        <trkpt lat="28.6298068" lon="104.5743079"><ele>461.47</ele><time>2026-02-16T21:31:34.000Z</time></trkpt>
        <trkpt lat="28.6297465" lon="104.5742852"><ele>460.46</ele><time>2026-02-16T21:31:36.000Z</time></trkpt>
        <trkpt lat="28.6296916" lon="104.5742591"><ele>459.83</ele><time>2026-02-16T21:31:38.000Z</time></trkpt>
        <trkpt lat="28.6296395" lon="104.5742377"><ele>459.65</ele><time>2026-02-16T21:31:40.000Z</time></trkpt>
        <trkpt lat="28.6295722" lon="104.5742336"><ele>459.55</ele><time>2026-02-16T21:31:44.000Z</time></trkpt>
        <trkpt lat="28.6295064" lon="104.574228"><ele>460.96</ele><time>2026-02-16T21:31:48.000Z</time></trkpt>
        <trkpt lat="28.6294432" lon="104.574233"><ele>462.1</ele><time>2026-02-16T21:31:52.000Z</time></trkpt>
        <trkpt lat="28.6293802" lon="104.5742189"><ele>462.89</ele><time>2026-02-16T21:31:56.000Z</time></trkpt>
        <trkpt lat="28.6293162" lon="104.5741987"><ele>461.16</ele><time>2026-02-16T21:32:00.000Z</time></trkpt>
        <trkpt lat="28.6292586" lon="104.5741585"><ele>459.63</ele><time>2026-02-16T21:32:04.000Z</time></trkpt>
        <trkpt lat="28.6292198" lon="104.5740993"><ele>458.63</ele><time>2026-02-16T21:32:08.000Z</time></trkpt>
        <trkpt lat="28.6291821" lon="104.5740284"><ele>458.19</ele><time>2026-02-16T21:32:12.000Z</time></trkpt>
        <trkpt lat="28.6291168" lon="104.5739573"><ele>457.64</ele><time>2026-02-16T21:32:16.000Z</time></trkpt>
        <trkpt lat="28.6290504" lon="104.5739089"><ele>456.13</ele><time>2026-02-16T21:32:18.000Z</time></trkpt>
        <trkpt lat="28.6289868" lon="104.5738679"><ele>454.66</ele><time>2026-02-16T21:32:20.000Z</time></trkpt>
        <trkpt lat="28.6289247" lon="104.5738206"><ele>453.44</ele><time>2026-02-16T21:32:22.000Z</time></trkpt>
        <trkpt lat="28.6288589" lon="104.5737735"><ele>452.03</ele><time>2026-02-16T21:32:24.000Z</time></trkpt>
        <trkpt lat="28.6287866" lon="104.5737306"><ele>451.54</ele><time>2026-02-16T21:32:26.000Z</time></trkpt>
        <trkpt lat="28.6287204" lon="104.5736981"><ele>452.17</ele><time>2026-02-16T21:32:28.000Z</time></trkpt>
        <trkpt lat="28.6286615" lon="104.5736742"><ele>452.63</ele><time>2026-02-16T21:32:30.000Z</time></trkpt>
        <trkpt lat="28.6286136" lon="104.5736557"><ele>452.83</ele><time>2026-02-16T21:32:32.000Z</time></trkpt>
        <trkpt lat="28.6285507" lon="104.5736196"><ele>453.2</ele><time>2026-02-16T21:32:36.000Z</time></trkpt>
        <trkpt lat="28.628488" lon="104.5735787"><ele>454.03</ele><time>2026-02-16T21:32:40.000Z</time></trkpt>
        <trkpt lat="28.6284239" lon="104.5735489"><ele>453.94</ele><time>2026-02-16T21:32:44.000Z</time></trkpt>
        <trkpt lat="28.6283639" lon="104.5735134"><ele>452.89</ele><time>2026-02-16T21:32:48.000Z</time></trkpt>
        <trkpt lat="28.6283103" lon="104.5734716"><ele>451.04</ele><time>2026-02-16T21:32:52.000Z</time></trkpt>
        <trkpt lat="28.6282609" lon="104.5734307"><ele>449.44</ele><time>2026-02-16T21:32:56.000Z</time></trkpt>
        <trkpt lat="28.6282106" lon="104.5733859"><ele>449.34</ele><time>2026-02-16T21:33:00.000Z</time></trkpt>
        <trkpt lat="28.6281683" lon="104.5733308"><ele>448.22</ele><time>2026-02-16T21:33:04.000Z</time></trkpt>
        <trkpt lat="28.6281384" lon="104.5732672"><ele>447.26</ele><time>2026-02-16T21:33:08.000Z</time></trkpt>
        <trkpt lat="28.6281148" lon="104.5732001"><ele>445.7</ele><time>2026-02-16T21:33:12.000Z</time></trkpt>
        <trkpt lat="28.6280895" lon="104.5731367"><ele>444.72</ele><time>2026-02-16T21:33:16.000Z</time></trkpt>
        <trkpt lat="28.6280631" lon="104.5730734"><ele>443.75</ele><time>2026-02-16T21:33:20.000Z</time></trkpt>
        <trkpt lat="28.6280381" lon="104.5730139"><ele>442.78</ele><time>2026-02-16T21:33:24.000Z</time></trkpt>
        <trkpt lat="28.6280048" lon="104.5729529"><ele>441.18</ele><time>2026-02-16T21:33:28.000Z</time></trkpt>
        <trkpt lat="28.6279593" lon="104.5729079"><ele>440.89</ele><time>2026-02-16T21:33:32.000Z</time></trkpt>
        <trkpt lat="28.6279056" lon="104.5728792"><ele>440.68</ele><time>2026-02-16T21:33:38.000Z</time></trkpt>
        <trkpt lat="28.6278513" lon="104.5728493"><ele>440.29</ele><time>2026-02-16T21:33:44.000Z</time></trkpt>
        <trkpt lat="28.6277922" lon="104.5728234"><ele>439.78</ele><time>2026-02-16T21:33:50.000Z</time></trkpt>
        <trkpt lat="28.6277428" lon="104.5727978"><ele>439.41</ele><time>2026-02-16T21:33:54.000Z</time></trkpt>
        <trkpt lat="28.6276976" lon="104.5727729"><ele>439.06</ele><time>2026-02-16T21:33:58.000Z</time></trkpt>
        <trkpt lat="28.6276568" lon="104.5727478"><ele>438.76</ele><time>2026-02-16T21:34:02.000Z</time></trkpt>
        <trkpt lat="28.6276117" lon="104.5727274"><ele>438.52</ele><time>2026-02-16T21:34:06.000Z</time></trkpt>
        <trkpt lat="28.6275664" lon="104.5727022"><ele>438.45</ele><time>2026-02-16T21:34:10.000Z</time></trkpt>
        <trkpt lat="28.6275212" lon="104.572697"><ele>439.24</ele><time>2026-02-16T21:34:14.000Z</time></trkpt>
        <trkpt lat="28.6274767" lon="104.5727211"><ele>440.21</ele><time>2026-02-16T21:34:18.000Z</time></trkpt>
        <trkpt lat="28.6274282" lon="104.5727552"><ele>440.79</ele><time>2026-02-16T21:34:22.000Z</time></trkpt>
        <trkpt lat="28.6273789" lon="104.5727901"><ele>440.91</ele><time>2026-02-16T21:34:26.000Z</time></trkpt>
        <trkpt lat="28.6273282" lon="104.5728235"><ele>440.46</ele><time>2026-02-16T21:34:30.000Z</time></trkpt>
        <trkpt lat="28.6272753" lon="104.5728487"><ele>439.62</ele><time>2026-02-16T21:34:34.000Z</time></trkpt>
        <trkpt lat="28.6272184" lon="104.5728583"><ele>439.51</ele><time>2026-02-16T21:34:38.000Z</time></trkpt>
        <trkpt lat="28.627159" lon="104.572847"><ele>439.92</ele><time>2026-02-16T21:34:42.000Z</time></trkpt>
        <trkpt lat="28.6271022" lon="104.5728149"><ele>439.97</ele><time>2026-02-16T21:34:46.000Z</time></trkpt>
        <trkpt lat="28.6270549" lon="104.572764"><ele>439.57</ele><time>2026-02-16T21:34:50.000Z</time></trkpt>
        <trkpt lat="28.6270287" lon="104.5726898"><ele>439</ele><time>2026-02-16T21:34:54.000Z</time></trkpt>
        <trkpt lat="28.6270205" lon="104.5726125"><ele>437.21</ele><time>2026-02-16T21:34:58.000Z</time></trkpt>
        <trkpt lat="28.6270259" lon="104.5725402"><ele>435.99</ele><time>2026-02-16T21:35:02.000Z</time></trkpt>
        <trkpt lat="28.6270374" lon="104.572475"><ele>436.2</ele><time>2026-02-16T21:35:06.000Z</time></trkpt>
        <trkpt lat="28.627071" lon="104.5724153"><ele>437.3</ele><time>2026-02-16T21:35:10.000Z</time></trkpt>
        <trkpt lat="28.6271107" lon="104.5723582"><ele>438.2</ele><time>2026-02-16T21:35:14.000Z</time></trkpt>
        <trkpt lat="28.62714" lon="104.5722948"><ele>438.9</ele><time>2026-02-16T21:35:18.000Z</time></trkpt>
        <trkpt lat="28.6271413" lon="104.5722272"><ele>439.13</ele><time>2026-02-16T21:35:22.000Z</time></trkpt>
        <trkpt lat="28.627136" lon="104.572164"><ele>439.67</ele><time>2026-02-16T21:35:26.000Z</time></trkpt>
        <trkpt lat="28.6271319" lon="104.5720995"><ele>439.52</ele><time>2026-02-16T21:35:30.000Z</time></trkpt>
        <trkpt lat="28.6271307" lon="104.5720379"><ele>439.53</ele><time>2026-02-16T21:35:34.000Z</time></trkpt>
        <trkpt lat="28.6271254" lon="104.5719785"><ele>439.22</ele><time>2026-02-16T21:35:38.000Z</time></trkpt>
        <trkpt lat="28.6271106" lon="104.5719152"><ele>438.31</ele><time>2026-02-16T21:35:42.000Z</time></trkpt>
        <trkpt lat="28.627088" lon="104.5718488"><ele>437.34</ele><time>2026-02-16T21:35:46.000Z</time></trkpt>
        <trkpt lat="28.6270554" lon="104.5717897"><ele>436.4</ele><time>2026-02-16T21:35:50.000Z</time></trkpt>
        <trkpt lat="28.6270101" lon="104.5717547"><ele>435.34</ele><time>2026-02-16T21:35:54.000Z</time></trkpt>
        <trkpt lat="28.6269556" lon="104.5717551"><ele>434.57</ele><time>2026-02-16T21:35:58.000Z</time></trkpt>
        <trkpt lat="28.6269001" lon="104.5717679"><ele>434.35</ele><time>2026-02-16T21:36:02.000Z</time></trkpt>
        <trkpt lat="28.6268439" lon="104.571789"><ele>434.29</ele><time>2026-02-16T21:36:06.000Z</time></trkpt>
        <trkpt lat="28.626787" lon="104.5718126"><ele>435.11</ele><time>2026-02-16T21:36:10.000Z</time></trkpt>
        <trkpt lat="28.6267279" lon="104.5718179"><ele>436.31</ele><time>2026-02-16T21:36:14.000Z</time></trkpt>
        <trkpt lat="28.6266691" lon="104.5718217"><ele>436.63</ele><time>2026-02-16T21:36:18.000Z</time></trkpt>
        <trkpt lat="28.6266132" lon="104.5718385"><ele>436.59</ele><time>2026-02-16T21:36:22.000Z</time></trkpt>
        <trkpt lat="28.626552" lon="104.5718445"><ele>435.92</ele><time>2026-02-16T21:36:26.000Z</time></trkpt>
        <trkpt lat="28.6264905" lon="104.5718366"><ele>434.82</ele><time>2026-02-16T21:36:30.000Z</time></trkpt>
        <trkpt lat="28.6264337" lon="104.5718186"><ele>433.87</ele><time>2026-02-16T21:36:34.000Z</time></trkpt>
        <trkpt lat="28.6263861" lon="104.5717796"><ele>433.21</ele><time>2026-02-16T21:36:38.000Z</time></trkpt>
        <trkpt lat="28.62635" lon="104.5717217"><ele>432.27</ele><time>2026-02-16T21:36:42.000Z</time></trkpt>
        <trkpt lat="28.6263219" lon="104.5716613"><ele>431.47</ele><time>2026-02-16T21:36:46.000Z</time></trkpt>
        <trkpt lat="28.6263075" lon="104.5715988"><ele>431.09</ele><time>2026-02-16T21:36:50.000Z</time></trkpt>
        <trkpt lat="28.6262864" lon="104.5715362"><ele>430.26</ele><time>2026-02-16T21:36:54.000Z</time></trkpt>
        <trkpt lat="28.6262567" lon="104.5714746"><ele>429.23</ele><time>2026-02-16T21:36:58.000Z</time></trkpt>
        <trkpt lat="28.626211" lon="104.5714387"><ele>429.13</ele><time>2026-02-16T21:37:02.000Z</time></trkpt>
        <trkpt lat="28.626157" lon="104.5714413"><ele>429.52</ele><time>2026-02-16T21:37:06.000Z</time></trkpt>
        <trkpt lat="28.6261097" lon="104.5714753"><ele>428.74</ele><time>2026-02-16T21:37:10.000Z</time></trkpt>
        <trkpt lat="28.6260673" lon="104.5715227"><ele>427.36</ele><time>2026-02-16T21:37:14.000Z</time></trkpt>
        <trkpt lat="28.6260291" lon="104.5715687"><ele>426.57</ele><time>2026-02-16T21:37:18.000Z</time></trkpt>
        <trkpt lat="28.6259884" lon="104.5716045"><ele>426</ele><time>2026-02-16T21:37:22.000Z</time></trkpt>
        <trkpt lat="28.6259419" lon="104.5716276"><ele>425.84</ele><time>2026-02-16T21:37:26.000Z</time></trkpt>
        <trkpt lat="28.6258949" lon="104.5716415"><ele>425.92</ele><time>2026-02-16T21:37:30.000Z</time></trkpt>
        <trkpt lat="28.6258392" lon="104.5716472"><ele>425.82</ele><time>2026-02-16T21:37:34.000Z</time></trkpt>
        <trkpt lat="28.625781" lon="104.5716459"><ele>426.32</ele><time>2026-02-16T21:37:38.000Z</time></trkpt>
        <trkpt lat="28.6257264" lon="104.571632"><ele>426.96</ele><time>2026-02-16T21:37:42.000Z</time></trkpt>
        <trkpt lat="28.6256719" lon="104.5716176"><ele>427.45</ele><time>2026-02-16T21:37:46.000Z</time></trkpt>
        <trkpt lat="28.6256203" lon="104.5715891"><ele>427.49</ele><time>2026-02-16T21:37:50.000Z</time></trkpt>
        <trkpt lat="28.6255846" lon="104.5715387"><ele>427.82</ele><time>2026-02-16T21:37:54.000Z</time></trkpt>
        <trkpt lat="28.6255541" lon="104.5714861"><ele>428.08</ele><time>2026-02-16T21:37:58.000Z</time></trkpt>
        <trkpt lat="28.6255284" lon="104.5714303"><ele>428.43</ele><time>2026-02-16T21:38:02.000Z</time></trkpt>
        <trkpt lat="28.6255094" lon="104.5713671"><ele>428.53</ele><time>2026-02-16T21:38:06.000Z</time></trkpt>
        <trkpt lat="28.6254906" lon="104.5713069"><ele>427.77</ele><time>2026-02-16T21:38:10.000Z</time></trkpt>
        <trkpt lat="28.6254678" lon="104.5712455"><ele>426.82</ele><time>2026-02-16T21:38:14.000Z</time></trkpt>
        <trkpt lat="28.6254411" lon="104.57118"><ele>426.15</ele><time>2026-02-16T21:38:18.000Z</time></trkpt>
        <trkpt lat="28.6254067" lon="104.571118"><ele>426.36</ele><time>2026-02-16T21:38:22.000Z</time></trkpt>
        <trkpt lat="28.625365" lon="104.5710631"><ele>427.03</ele><time>2026-02-16T21:38:26.000Z</time></trkpt>
        <trkpt lat="28.6253168" lon="104.5710145"><ele>428.34</ele><time>2026-02-16T21:38:30.000Z</time></trkpt>
        <trkpt lat="28.625266" lon="104.5709713"><ele>429.37</ele><time>2026-02-16T21:38:34.000Z</time></trkpt>
        <trkpt lat="28.6252282" lon="104.5708942"><ele>429.34</ele><time>2026-02-16T21:38:38.000Z</time></trkpt>
        <trkpt lat="28.6252149" lon="104.5708278"><ele>428.7</ele><time>2026-02-16T21:38:40.000Z</time></trkpt>
        <trkpt lat="28.6252111" lon="104.570756"><ele>429.09</ele><time>2026-02-16T21:38:44.000Z</time></trkpt>
        <trkpt lat="28.6252118" lon="104.5706842"><ele>427.7</ele><time>2026-02-16T21:38:48.000Z</time></trkpt>
        <trkpt lat="28.6252282" lon="104.5706065"><ele>424.14</ele><time>2026-02-16T21:38:52.000Z</time></trkpt>
        <trkpt lat="28.6252614" lon="104.5705214"><ele>420.87</ele><time>2026-02-16T21:38:56.000Z</time></trkpt>
        <trkpt lat="28.6253079" lon="104.5704505"><ele>418.92</ele><time>2026-02-16T21:39:00.000Z</time></trkpt>
        <trkpt lat="28.6253613" lon="104.5703791"><ele>416.57</ele><time>2026-02-16T21:39:04.000Z</time></trkpt>
        <trkpt lat="28.6253812" lon="104.5703033"><ele>413.58</ele><time>2026-02-16T21:39:08.000Z</time></trkpt>
        <trkpt lat="28.6253929" lon="104.5702423"><ele>411.36</ele><time>2026-02-16T21:39:12.000Z</time></trkpt>
        <trkpt lat="28.6253824" lon="104.5701827"><ele>409.81</ele><time>2026-02-16T21:39:16.000Z</time></trkpt>
        <trkpt lat="28.6253447" lon="104.5701348"><ele>408.74</ele><time>2026-02-16T21:39:20.000Z</time></trkpt>
        <trkpt lat="28.6253011" lon="104.5700874"><ele>408.71</ele><time>2026-02-16T21:39:24.000Z</time></trkpt>
        <trkpt lat="28.6252654" lon="104.5700306"><ele>408.53</ele><time>2026-02-16T21:39:28.000Z</time></trkpt>
        <trkpt lat="28.6252343" lon="104.5699652"><ele>408.34</ele><time>2026-02-16T21:39:32.000Z</time></trkpt>
        <trkpt lat="28.6251991" lon="104.5699042"><ele>407.94</ele><time>2026-02-16T21:39:36.000Z</time></trkpt>
        <trkpt lat="28.6251521" lon="104.5698534"><ele>407.77</ele><time>2026-02-16T21:39:40.000Z</time></trkpt>
        <trkpt lat="28.6250969" lon="104.5698187"><ele>408.03</ele><time>2026-02-16T21:39:44.000Z</time></trkpt>
        <trkpt lat="28.6250349" lon="104.5698167"><ele>408.95</ele><time>2026-02-16T21:39:48.000Z</time></trkpt>
        <trkpt lat="28.6249809" lon="104.5698552"><ele>409.38</ele><time>2026-02-16T21:39:52.000Z</time></trkpt>
        <trkpt lat="28.6249345" lon="104.5699064"><ele>409.64</ele><time>2026-02-16T21:39:56.000Z</time></trkpt>
        <trkpt lat="28.6248894" lon="104.5699567"><ele>409.81</ele><time>2026-02-16T21:40:00.000Z</time></trkpt>
        <trkpt lat="28.624842" lon="104.569999"><ele>410.04</ele><time>2026-02-16T21:40:04.000Z</time></trkpt>
        <trkpt lat="28.624793" lon="104.5700339"><ele>410.88</ele><time>2026-02-16T21:40:08.000Z</time></trkpt>
        <trkpt lat="28.624741" lon="104.5700559"><ele>411.42</ele><time>2026-02-16T21:40:12.000Z</time></trkpt>
        <trkpt lat="28.6246869" lon="104.5700751"><ele>411.62</ele><time>2026-02-16T21:40:16.000Z</time></trkpt>
        <trkpt lat="28.6246317" lon="104.5700946"><ele>411.65</ele><time>2026-02-16T21:40:20.000Z</time></trkpt>
        <trkpt lat="28.6245746" lon="104.5701078"><ele>411.56</ele><time>2026-02-16T21:40:24.000Z</time></trkpt>
        <trkpt lat="28.6245137" lon="104.5701025"><ele>412.06</ele><time>2026-02-16T21:40:28.000Z</time></trkpt>
        <trkpt lat="28.6244553" lon="104.5700887"><ele>412.47</ele><time>2026-02-16T21:40:32.000Z</time></trkpt>
        <trkpt lat="28.6243981" lon="104.5700662"><ele>412.65</ele><time>2026-02-16T21:40:36.000Z</time></trkpt>
        <trkpt lat="28.6243508" lon="104.5700295"><ele>412.94</ele><time>2026-02-16T21:40:40.000Z</time></trkpt>
        <trkpt lat="28.6243082" lon="104.5699804"><ele>413.7</ele><time>2026-02-16T21:40:44.000Z</time></trkpt>
        <trkpt lat="28.6242759" lon="104.5699213"><ele>413.69</ele><time>2026-02-16T21:40:48.000Z</time></trkpt>
        <trkpt lat="28.6242534" lon="104.5698564"><ele>413.26</ele><time>2026-02-16T21:40:52.000Z</time></trkpt>
        <trkpt lat="28.6242281" lon="104.5697919"><ele>413.13</ele><time>2026-02-16T21:40:56.000Z</time></trkpt>
        <trkpt lat="28.624199" lon="104.5697455"><ele>412.53</ele><time>2026-02-16T21:41:00.000Z</time></trkpt>
        <trkpt lat="28.6241535" lon="104.5697151"><ele>412.46</ele><time>2026-02-16T21:41:04.000Z</time></trkpt>
        <trkpt lat="28.6241003" lon="104.5697142"><ele>412.04</ele><time>2026-02-16T21:41:08.000Z</time></trkpt>
        <trkpt lat="28.6240515" lon="104.5697383"><ele>411.41</ele><time>2026-02-16T21:41:12.000Z</time></trkpt>
        <trkpt lat="28.6240065" lon="104.5697653"><ele>410.8</ele><time>2026-02-16T21:41:16.000Z</time></trkpt>
        <trkpt lat="28.6239571" lon="104.5697902"><ele>410.55</ele><time>2026-02-16T21:41:20.000Z</time></trkpt>
        <trkpt lat="28.6239068" lon="104.5698021"><ele>410.65</ele><time>2026-02-16T21:41:24.000Z</time></trkpt>
        <trkpt lat="28.623856" lon="104.5698151"><ele>410.98</ele><time>2026-02-16T21:41:28.000Z</time></trkpt>
        <trkpt lat="28.6237996" lon="104.5698156"><ele>411.13</ele><time>2026-02-16T21:41:32.000Z</time></trkpt>
        <trkpt lat="28.6237443" lon="104.5698034"><ele>411.03</ele><time>2026-02-16T21:41:36.000Z</time></trkpt>
        <trkpt lat="28.6237376" lon="104.5697494"><ele>411.32</ele><time>2026-02-16T21:41:40.000Z</time></trkpt>
        <trkpt lat="28.6237763" lon="104.5697333"><ele>412.33</ele><time>2026-02-16T21:41:44.000Z</time></trkpt>
        <trkpt lat="28.6237621" lon="104.5697077"><ele>411.98</ele><time>2026-02-16T21:41:56.000Z</time></trkpt>
        <trkpt lat="28.6237094" lon="104.569667"><ele>411.35</ele><time>2026-02-16T21:42:00.000Z</time></trkpt>
        <trkpt lat="28.6236499" lon="104.5696157"><ele>410.68</ele><time>2026-02-16T21:42:04.000Z</time></trkpt>
        <trkpt lat="28.6235939" lon="104.5695644"><ele>410.14</ele><time>2026-02-16T21:42:08.000Z</time></trkpt>
        <trkpt lat="28.6235411" lon="104.5695266"><ele>409.58</ele><time>2026-02-16T21:42:12.000Z</time></trkpt>
        <trkpt lat="28.623494" lon="104.569486"><ele>409.05</ele><time>2026-02-16T21:42:16.000Z</time></trkpt>
        <trkpt lat="28.623435" lon="104.5694599"><ele>408.72</ele><time>2026-02-16T21:42:20.000Z</time></trkpt>
        <trkpt lat="28.6233747" lon="104.5694457"><ele>407.41</ele><time>2026-02-16T21:42:24.000Z</time></trkpt>
        <trkpt lat="28.6233078" lon="104.5694378"><ele>405.76</ele><time>2026-02-16T21:42:28.000Z</time></trkpt>
        <trkpt lat="28.6232525" lon="104.569435"><ele>404.06</ele><time>2026-02-16T21:42:30.000Z</time></trkpt>
        <trkpt lat="28.6232023" lon="104.569439"><ele>402.66</ele><time>2026-02-16T21:42:32.000Z</time></trkpt>
        <trkpt lat="28.6231277" lon="104.56946"><ele>401.72</ele><time>2026-02-16T21:42:36.000Z</time></trkpt>
        <trkpt lat="28.6230607" lon="104.5694698"><ele>400.52</ele><time>2026-02-16T21:42:40.000Z</time></trkpt>
        <trkpt lat="28.6229993" lon="104.5694752"><ele>399.01</ele><time>2026-02-16T21:42:44.000Z</time></trkpt>
        <trkpt lat="28.6229429" lon="104.5694645"><ele>398.17</ele><time>2026-02-16T21:42:48.000Z</time></trkpt>
        <trkpt lat="28.6229053" lon="104.5694233"><ele>397.85</ele><time>2026-02-16T21:42:52.000Z</time></trkpt>
        <trkpt lat="28.6228868" lon="104.5693651"><ele>397.42</ele><time>2026-02-16T21:42:56.000Z</time></trkpt>
        <trkpt lat="28.6228745" lon="104.5692983"><ele>397.55</ele><time>2026-02-16T21:43:00.000Z</time></trkpt>
        <trkpt lat="28.6228511" lon="104.5692297"><ele>397.58</ele><time>2026-02-16T21:43:04.000Z</time></trkpt>
        <trkpt lat="28.6228113" lon="104.5691723"><ele>397.86</ele><time>2026-02-16T21:43:08.000Z</time></trkpt>
        <trkpt lat="28.622757" lon="104.5691279"><ele>397.93</ele><time>2026-02-16T21:43:12.000Z</time></trkpt>
        <trkpt lat="28.622697" lon="104.5690978"><ele>397.53</ele><time>2026-02-16T21:43:16.000Z</time></trkpt>
        <trkpt lat="28.6226336" lon="104.5690866"><ele>396.77</ele><time>2026-02-16T21:43:20.000Z</time></trkpt>
        <trkpt lat="28.6225701" lon="104.5690804"><ele>396.22</ele><time>2026-02-16T21:43:24.000Z</time></trkpt>
        <trkpt lat="28.6225103" lon="104.5690775"><ele>396.03</ele><time>2026-02-16T21:43:28.000Z</time></trkpt>
        <trkpt lat="28.6224535" lon="104.5690724"><ele>395.38</ele><time>2026-02-16T21:43:32.000Z</time></trkpt>
        <trkpt lat="28.6224067" lon="104.5690394"><ele>395.06</ele><time>2026-02-16T21:43:36.000Z</time></trkpt>
        <trkpt lat="28.6223765" lon="104.5689804"><ele>395.31</ele><time>2026-02-16T21:43:40.000Z</time></trkpt>
        <trkpt lat="28.6223703" lon="104.5689104"><ele>395.49</ele><time>2026-02-16T21:43:44.000Z</time></trkpt>
        <trkpt lat="28.6223824" lon="104.5688348"><ele>395.41</ele><time>2026-02-16T21:43:48.000Z</time></trkpt>
        <trkpt lat="28.622414" lon="104.5687678"><ele>395.56</ele><time>2026-02-16T21:43:52.000Z</time></trkpt>
        <trkpt lat="28.6224384" lon="104.5687012"><ele>395.9</ele><time>2026-02-16T21:43:56.000Z</time></trkpt>
        <trkpt lat="28.6224362" lon="104.5686331"><ele>397.16</ele><time>2026-02-16T21:44:00.000Z</time></trkpt>
        <trkpt lat="28.6224083" lon="104.5685662"><ele>398.56</ele><time>2026-02-16T21:44:04.000Z</time></trkpt>
        <trkpt lat="28.6223649" lon="104.5685289"><ele>397.83</ele><time>2026-02-16T21:44:06.000Z</time></trkpt>
        <trkpt lat="28.6223167" lon="104.5685095"><ele>396.71</ele><time>2026-02-16T21:44:08.000Z</time></trkpt>
        <trkpt lat="28.6222401" lon="104.5684823"><ele>395.67</ele><time>2026-02-16T21:44:12.000Z</time></trkpt>
        <trkpt lat="28.6221789" lon="104.5684663"><ele>393.64</ele><time>2026-02-16T21:44:14.000Z</time></trkpt>
        <trkpt lat="28.6221183" lon="104.5684496"><ele>392.08</ele><time>2026-02-16T21:44:18.000Z</time></trkpt>
        <trkpt lat="28.6220566" lon="104.5684328"><ele>391.05</ele><time>2026-02-16T21:44:22.000Z</time></trkpt>
        <trkpt lat="28.6220002" lon="104.5684343"><ele>390.03</ele><time>2026-02-16T21:44:26.000Z</time></trkpt>
        <trkpt lat="28.6219629" lon="104.5684327"><ele>389.52</ele><time>2026-02-16T21:44:30.000Z</time></trkpt>
        <trkpt lat="28.6219203" lon="104.5684081"><ele>389.71</ele><time>2026-02-16T21:44:42.000Z</time></trkpt>
        <trkpt lat="28.6219096" lon="104.5683549"><ele>390.58</ele><time>2026-02-16T21:44:46.000Z</time></trkpt>
        <trkpt lat="28.6219305" lon="104.5682975"><ele>390.83</ele><time>2026-02-16T21:44:50.000Z</time></trkpt>
        <trkpt lat="28.6219612" lon="104.5682395"><ele>390.23</ele><time>2026-02-16T21:44:54.000Z</time></trkpt>
        <trkpt lat="28.6219851" lon="104.5681793"><ele>389.6</ele><time>2026-02-16T21:44:58.000Z</time></trkpt>
        <trkpt lat="28.6219941" lon="104.5681222"><ele>389</ele><time>2026-02-16T21:45:02.000Z</time></trkpt>
        <trkpt lat="28.6219996" lon="104.5680416"><ele>387.95</ele><time>2026-02-16T21:45:06.000Z</time></trkpt>
        <trkpt lat="28.6219967" lon="104.5679783"><ele>387.28</ele><time>2026-02-16T21:45:08.000Z</time></trkpt>
        <trkpt lat="28.6219811" lon="104.5679231"><ele>385.86</ele><time>2026-02-16T21:45:10.000Z</time></trkpt>
        <trkpt lat="28.6219588" lon="104.5678682"><ele>384.23</ele><time>2026-02-16T21:45:12.000Z</time></trkpt>
        <trkpt lat="28.6219373" lon="104.5678163"><ele>383.31</ele><time>2026-02-16T21:45:14.000Z</time></trkpt>
        <trkpt lat="28.6219327" lon="104.5677385"><ele>382.59</ele><time>2026-02-16T21:45:18.000Z</time></trkpt>
        <trkpt lat="28.6219616" lon="104.5676961"><ele>382.39</ele><time>2026-02-16T21:45:20.000Z</time></trkpt>
        <trkpt lat="28.6220277" lon="104.5676697"><ele>381.22</ele><time>2026-02-16T21:45:24.000Z</time></trkpt>
        <trkpt lat="28.6221031" lon="104.5676805"><ele>378.94</ele><time>2026-02-16T21:45:28.000Z</time></trkpt>
        <trkpt lat="28.622189" lon="104.5676977"><ele>376.43</ele><time>2026-02-16T21:45:32.000Z</time></trkpt>
        <trkpt lat="28.6222516" lon="104.5677044"><ele>374.62</ele><time>2026-02-16T21:45:34.000Z</time></trkpt>
        <trkpt lat="28.6223052" lon="104.5677022"><ele>373.22</ele><time>2026-02-16T21:45:36.000Z</time></trkpt>
        <trkpt lat="28.6223572" lon="104.5676912"><ele>372.67</ele><time>2026-02-16T21:45:38.000Z</time></trkpt>
        <trkpt lat="28.6224078" lon="104.567678"><ele>372.71</ele><time>2026-02-16T21:45:40.000Z</time></trkpt>
        <trkpt lat="28.6224564" lon="104.5676668"><ele>372.33</ele><time>2026-02-16T21:45:42.000Z</time></trkpt>
        <trkpt lat="28.622507" lon="104.5676544"><ele>372.23</ele><time>2026-02-16T21:45:44.000Z</time></trkpt>
        <trkpt lat="28.6225579" lon="104.5676378"><ele>372.79</ele><time>2026-02-16T21:45:46.000Z</time></trkpt>
        <trkpt lat="28.6226097" lon="104.5676214"><ele>373.1</ele><time>2026-02-16T21:45:48.000Z</time></trkpt>
        <trkpt lat="28.6226662" lon="104.5676064"><ele>373.02</ele><time>2026-02-16T21:45:50.000Z</time></trkpt>
        <trkpt lat="28.6227111" lon="104.567574"><ele>373.29</ele><time>2026-02-16T21:45:52.000Z</time></trkpt>
        <trkpt lat="28.6227528" lon="104.5675328"><ele>373.55</ele><time>2026-02-16T21:45:54.000Z</time></trkpt>
        <trkpt lat="28.6227686" lon="104.5674816"><ele>374.02</ele><time>2026-02-16T21:45:58.000Z</time></trkpt>
        <trkpt lat="28.6227393" lon="104.567429"><ele>373.42</ele><time>2026-02-16T21:46:02.000Z</time></trkpt>
        <trkpt lat="28.6226878" lon="104.5673954"><ele>373.55</ele><time>2026-02-16T21:46:06.000Z</time></trkpt>
        <trkpt lat="28.6226331" lon="104.5673603"><ele>373.96</ele><time>2026-02-16T21:46:10.000Z</time></trkpt>
        <trkpt lat="28.6225858" lon="104.5673134"><ele>374.51</ele><time>2026-02-16T21:46:14.000Z</time></trkpt>
        <trkpt lat="28.6225426" lon="104.5672615"><ele>372.9</ele><time>2026-02-16T21:46:18.000Z</time></trkpt>
        <trkpt lat="28.6225154" lon="104.5671994"><ele>371.29</ele><time>2026-02-16T21:46:22.000Z</time></trkpt>
        <trkpt lat="28.6224966" lon="104.5671362"><ele>367.75</ele><time>2026-02-16T21:46:26.000Z</time></trkpt>
        <trkpt lat="28.6224839" lon="104.5670774"><ele>366.13</ele><time>2026-02-16T21:46:30.000Z</time></trkpt>
        <trkpt lat="28.6224516" lon="104.5670171"><ele>367.05</ele><time>2026-02-16T21:46:34.000Z</time></trkpt>
        <trkpt lat="28.6224203" lon="104.5669561"><ele>369.42</ele><time>2026-02-16T21:46:38.000Z</time></trkpt>
        <trkpt lat="28.6223991" lon="104.5668976"><ele>370.7</ele><time>2026-02-16T21:46:42.000Z</time></trkpt>
        <trkpt lat="28.6223994" lon="104.5668392"><ele>368.52</ele><time>2026-02-16T21:46:46.000Z</time></trkpt>
        <trkpt lat="28.622419" lon="104.5667847"><ele>366.66</ele><time>2026-02-16T21:46:50.000Z</time></trkpt>
        <trkpt lat="28.6224319" lon="104.5667271"><ele>363.61</ele><time>2026-02-16T21:46:56.000Z</time></trkpt>
        <trkpt lat="28.6223898" lon="104.5667007"><ele>361.55</ele><time>2026-02-16T21:47:02.000Z</time></trkpt>
        <trkpt lat="28.6223483" lon="104.566739"><ele>358.9</ele><time>2026-02-16T21:47:06.000Z</time></trkpt>
        <trkpt lat="28.6223119" lon="104.5667905"><ele>356.59</ele><time>2026-02-16T21:47:10.000Z</time></trkpt>
        <trkpt lat="28.6222683" lon="104.5668255"><ele>355.28</ele><time>2026-02-16T21:47:14.000Z</time></trkpt>
        <trkpt lat="28.622211" lon="104.5668339"><ele>354.98</ele><time>2026-02-16T21:47:18.000Z</time></trkpt>
        <trkpt lat="28.6221482" lon="104.5668331"><ele>356.37</ele><time>2026-02-16T21:47:22.000Z</time></trkpt>
        <trkpt lat="28.6220908" lon="104.5668328"><ele>356</ele><time>2026-02-16T21:47:26.000Z</time></trkpt>
        <trkpt lat="28.6220268" lon="104.5668301"><ele>355.02</ele><time>2026-02-16T21:47:30.000Z</time></trkpt>
        <trkpt lat="28.6219543" lon="104.5668161"><ele>353.57</ele><time>2026-02-16T21:47:34.000Z</time></trkpt>
        <trkpt lat="28.6218933" lon="104.5667816"><ele>348.06</ele><time>2026-02-16T21:47:38.000Z</time></trkpt>
        <trkpt lat="28.6218412" lon="104.5667546"><ele>342.83</ele><time>2026-02-16T21:47:42.000Z</time></trkpt>
        <trkpt lat="28.6217842" lon="104.5667351"><ele>339.96</ele><time>2026-02-16T21:47:46.000Z</time></trkpt>
        <trkpt lat="28.6217299" lon="104.5666963"><ele>340.77</ele><time>2026-02-16T21:47:50.000Z</time></trkpt>
        <trkpt lat="28.6216807" lon="104.5666543"><ele>341.08</ele><time>2026-02-16T21:47:52.000Z</time></trkpt>
        <trkpt lat="28.6216278" lon="104.5666135"><ele>339.63</ele><time>2026-02-16T21:47:54.000Z</time></trkpt>
        <trkpt lat="28.6215774" lon="104.5665726"><ele>338.26</ele><time>2026-02-16T21:47:56.000Z</time></trkpt>
        <trkpt lat="28.6215198" lon="104.5665374"><ele>337.31</ele><time>2026-02-16T21:48:00.000Z</time></trkpt>
        <trkpt lat="28.6214661" lon="104.5665167"><ele>338.44</ele><time>2026-02-16T21:48:04.000Z</time></trkpt>
        <trkpt lat="28.6214102" lon="104.5664915"><ele>340.34</ele><time>2026-02-16T21:48:08.000Z</time></trkpt>
        <trkpt lat="28.6213511" lon="104.5664621"><ele>340.42</ele><time>2026-02-16T21:48:12.000Z</time></trkpt>
        <trkpt lat="28.6212874" lon="104.5664392"><ele>340.86</ele><time>2026-02-16T21:48:16.000Z</time></trkpt>
        <trkpt lat="28.621217" lon="104.5664303"><ele>342.22</ele><time>2026-02-16T21:48:20.000Z</time></trkpt>
        <trkpt lat="28.6211494" lon="104.5664242"><ele>343.71</ele><time>2026-02-16T21:48:24.000Z</time></trkpt>
        <trkpt lat="28.6210831" lon="104.566422"><ele>344.11</ele><time>2026-02-16T21:48:28.000Z</time></trkpt>
        <trkpt lat="28.6210249" lon="104.5664222"><ele>344.07</ele><time>2026-02-16T21:48:32.000Z</time></trkpt>
        <trkpt lat="28.6209866" lon="104.5663874"><ele>344.49</ele><time>2026-02-16T21:48:36.000Z</time></trkpt>
        <trkpt lat="28.6209487" lon="104.566351"><ele>344.12</ele><time>2026-02-16T21:48:40.000Z</time></trkpt>
        <trkpt lat="28.6209154" lon="104.5663028"><ele>343.63</ele><time>2026-02-16T21:48:44.000Z</time></trkpt>
        <trkpt lat="28.6209316" lon="104.5662327"><ele>342.57</ele><time>2026-02-16T21:48:48.000Z</time></trkpt>
        <trkpt lat="28.6209594" lon="104.5661579"><ele>342.02</ele><time>2026-02-16T21:48:52.000Z</time></trkpt>
        <trkpt lat="28.6209867" lon="104.5660891"><ele>341.58</ele><time>2026-02-16T21:48:56.000Z</time></trkpt>
        <trkpt lat="28.621004" lon="104.5660221"><ele>341.19</ele><time>2026-02-16T21:49:00.000Z</time></trkpt>
        <trkpt lat="28.6210184" lon="104.565963"><ele>341.09</ele><time>2026-02-16T21:49:04.000Z</time></trkpt>
        <trkpt lat="28.6210482" lon="104.5659153"><ele>341.26</ele><time>2026-02-16T21:49:08.000Z</time></trkpt>
        <trkpt lat="28.621072" lon="104.5658667"><ele>341.61</ele><time>2026-02-16T21:49:12.000Z</time></trkpt>
        <trkpt lat="28.6210805" lon="104.5658117"><ele>341.23</ele><time>2026-02-16T21:49:16.000Z</time></trkpt>
        <trkpt lat="28.6210926" lon="104.5657552"><ele>343.39</ele><time>2026-02-16T21:49:20.000Z</time></trkpt>
        <trkpt lat="28.6211061" lon="104.5656959"><ele>344.72</ele><time>2026-02-16T21:49:24.000Z</time></trkpt>
        <trkpt lat="28.6211178" lon="104.5656359"><ele>343.89</ele><time>2026-02-16T21:49:28.000Z</time></trkpt>
        <trkpt lat="28.6211343" lon="104.565571"><ele>343.07</ele><time>2026-02-16T21:49:32.000Z</time></trkpt>
        <trkpt lat="28.6211365" lon="104.5654973"><ele>342.35</ele><time>2026-02-16T21:49:36.000Z</time></trkpt>
        <trkpt lat="28.6211292" lon="104.5654292"><ele>340.49</ele><time>2026-02-16T21:49:40.000Z</time></trkpt>
        <trkpt lat="28.6211356" lon="104.5653729"><ele>338.44</ele><time>2026-02-16T21:49:44.000Z</time></trkpt>
        <trkpt lat="28.6211481" lon="104.565313"><ele>336.03</ele><time>2026-02-16T21:49:48.000Z</time></trkpt>
        <trkpt lat="28.6211631" lon="104.5652404"><ele>333.79</ele><time>2026-02-16T21:49:52.000Z</time></trkpt>
        <trkpt lat="28.6211798" lon="104.5651731"><ele>332.38</ele><time>2026-02-16T21:49:56.000Z</time></trkpt>
        <trkpt lat="28.6211912" lon="104.5651022"><ele>331.37</ele><time>2026-02-16T21:50:00.000Z</time></trkpt>
        <trkpt lat="28.6212069" lon="104.5650318"><ele>331.03</ele><time>2026-02-16T21:50:04.000Z</time></trkpt>
        <trkpt lat="28.6212293" lon="104.5649697"><ele>331.8</ele><time>2026-02-16T21:50:08.000Z</time></trkpt>
        <trkpt lat="28.6212469" lon="104.5649078"><ele>332.64</ele><time>2026-02-16T21:50:12.000Z</time></trkpt>
        <trkpt lat="28.6212662" lon="104.5648423"><ele>333.5</ele><time>2026-02-16T21:50:16.000Z</time></trkpt>
        <trkpt lat="28.621279" lon="104.5647778"><ele>333.84</ele><time>2026-02-16T21:50:20.000Z</time></trkpt>
        <trkpt lat="28.6212856" lon="104.5647146"><ele>334.86</ele><time>2026-02-16T21:50:24.000Z</time></trkpt>
        <trkpt lat="28.6213042" lon="104.5646581"><ele>336.13</ele><time>2026-02-16T21:50:28.000Z</time></trkpt>
        <trkpt lat="28.6213238" lon="104.564595"><ele>337.01</ele><time>2026-02-16T21:50:32.000Z</time></trkpt>
        <trkpt lat="28.6213389" lon="104.5645251"><ele>337.68</ele><time>2026-02-16T21:50:36.000Z</time></trkpt>
        <trkpt lat="28.6213514" lon="104.564454"><ele>338.35</ele><time>2026-02-16T21:50:40.000Z</time></trkpt>
        <trkpt lat="28.6213575" lon="104.5643862"><ele>339.13</ele><time>2026-02-16T21:50:44.000Z</time></trkpt>
        <trkpt lat="28.6213622" lon="104.5643217"><ele>339.87</ele><time>2026-02-16T21:50:48.000Z</time></trkpt>
        <trkpt lat="28.6213652" lon="104.5642584"><ele>340.22</ele><time>2026-02-16T21:50:52.000Z</time></trkpt>
        <trkpt lat="28.6213628" lon="104.5641974"><ele>340.58</ele><time>2026-02-16T21:50:56.000Z</time></trkpt>
        <trkpt lat="28.6213673" lon="104.5641384"><ele>341.41</ele><time>2026-02-16T21:51:00.000Z</time></trkpt>
        <trkpt lat="28.621374" lon="104.5640827"><ele>341.4</ele><time>2026-02-16T21:51:04.000Z</time></trkpt>
        <trkpt lat="28.6213849" lon="104.5640225"><ele>341.69</ele><time>2026-02-16T21:51:08.000Z</time></trkpt>
        <trkpt lat="28.6213907" lon="104.5639642"><ele>342.33</ele><time>2026-02-16T21:51:12.000Z</time></trkpt>
        <trkpt lat="28.6213933" lon="104.5639056"><ele>343.03</ele><time>2026-02-16T21:51:16.000Z</time></trkpt>
        <trkpt lat="28.6213941" lon="104.563849"><ele>343.28</ele><time>2026-02-16T21:51:20.000Z</time></trkpt>
        <trkpt lat="28.6213995" lon="104.5637918"><ele>343.81</ele><time>2026-02-16T21:51:24.000Z</time></trkpt>
        <trkpt lat="28.6214101" lon="104.5637335"><ele>344.57</ele><time>2026-02-16T21:51:28.000Z</time></trkpt>
        <trkpt lat="28.6214101" lon="104.5637335"><ele>344.57</ele><time>2026-02-16T21:51:32.000Z</time></trkpt>
      </trkseg>
  </trk>
</gpx>